Site Date LOGGERID PROGID SNOWDEP_MED_0_0_01 SNOWDEP_QUAL_0_0_01 WSPD_PRO_MEAN_1000_0_01 WMAG_PRO_MEAN_1000_0_01 WDIR_PRO_MEAN_1000_0_01 WDIR_PRO_STDDEV_1000_0_01 DEWPT_MEAN_150_0_04 DEWPT_MEAN_450_0_01 VAPDEF150_AVG VAPDEF450_AVG AIRTEMP_MEAN_150_0_04 AIRTEMP_MEAN_250_0_03 AIRTEMP_MEAN_350_0_02 AIRTEMP_MEAN_450_0_01 RELHUM_MEAN_150_0_04 RELHUM_MEAN_450_0_01 WSPD_PRO_MAX_1000_0_01 AIRTEMP_MAX_150_0_04 AIRTEMP_MAX_250_0_03 AIRTEMP_MAX_350_0_02 AIRTEMP_MAX_450_0_01 AIRTEMP_MIN_150_0_04 AIRTEMP_MIN_250_0_03 AIRTEMP_MIN_350_0_02 AIRTEMP_MIN_450_0_01 DEWPT_MAX_150_0_04 DEWPT_MAX_450_0_01 DEWPT_MIN_150_0_04 DEWPT_MIN_450_0_01 SATVP_MEAN_150_0_04 VAP_MEAN_150_0_04 VPD_MEAN_150_0_04 SATVP_MEAN_450_0_01 VAP_MEAN_450_0_01 VPD_MEAN_450_0_01
PRIMET_226 2015-10-01 00:00:00 226 156.7 -1.00 196 0.007 0.007 211.300 0.056 6.687 7.168 0.308 0.0 7.14 7.163 7.280 7.168 96.900 100.000 0.007 7.16 7.179 7.309 7.208 7.12 7.124 7.234 7.131 6.710 7.208 6.668 7.131 10.113 9.805 0.314 10.134 10.134 0.000
PRIMET_226 2015-09-30 23:55:00 226 156.7 -1.50 195 0.007 0.007 211.300 0.056 6.722 7.243 0.314 0.0 7.18 7.208 7.347 7.243 96.900 100.000 0.007 7.20 7.246 7.391 7.284 7.16 7.177 7.307 7.208 6.750 7.284 6.701 7.208 10.142 9.828 0.314 10.186 10.186 0.000
PRIMET_226 2015-09-30 23:50:00 226 156.7 -1.50 197 0.007 0.007 211.300 0.063 6.744 7.313 0.322 0.0 7.21 7.283 7.425 7.313 96.800 100.000 0.007 7.23 7.329 7.457 7.344 7.20 7.250 7.391 7.281 6.763 7.344 6.731 7.281 10.165 9.843 0.325 10.235 10.235 0.000
PRIMET_226 2015-09-30 23:45:00 226 156.7 -2.00 196 0.007 0.007 211.300 0.063 6.779 7.379 0.317 0.0 7.24 7.337 7.481 7.379 96.900 100.000 0.007 7.27 7.357 7.503 7.407 7.22 7.320 7.457 7.350 6.809 7.407 6.757 7.350 10.184 9.867 0.316 10.282 10.282 0.000
PRIMET_226 2015-09-30 23:40:00 226 156.7 -2.00 191 0.007 0.007 211.300 0.056 6.821 7.416 0.312 0.0 7.27 7.363 7.518 7.416 96.900 100.000 0.007 7.30 7.377 7.536 7.439 7.25 7.349 7.495 7.393 6.848 7.439 6.792 7.393 10.207 9.896 0.316 10.308 10.308 0.000
PRIMET_226 2015-09-30 23:35:00 226 156.7 -2.00 197 0.007 0.007 211.300 0.056 6.831 7.471 0.318 0.0 7.29 7.407 7.563 7.471 96.900 100.000 0.007 7.30 7.439 7.593 7.507 7.28 7.380 7.539 7.432 6.841 7.507 6.822 7.432 10.221 9.902 0.317 10.347 10.347 0.000
PRIMET_226 2015-09-30 23:30:00 226 156.7 -2.00 182 0.007 0.007 211.300 0.056 6.839 7.540 0.355 0.0 7.35 7.454 7.620 7.547 96.500 100.000 0.007 7.44 7.519 7.671 7.594 7.29 7.421 7.585 7.507 6.914 7.580 6.794 7.507 10.263 9.908 0.359 10.401 10.396 0.000
PRIMET_226 2015-09-30 23:25:00 226 156.7 -2.00 197 0.007 0.007 211.300 0.063 6.925 7.604 0.380 0.0 7.47 7.525 7.683 7.612 96.300 99.900 0.007 7.50 7.540 7.691 7.621 7.43 7.507 7.668 7.594 6.946 7.621 6.904 7.572 10.347 9.966 0.383 10.447 10.441 0.010
PRIMET_226 2015-09-30 23:20:00 226 156.7 -2.00 196 0.007 0.007 211.400 0.063 6.934 7.571 0.413 0.0 7.53 7.572 7.711 7.638 96.000 99.500 0.007 7.56 7.605 7.736 7.667 7.49 7.527 7.684 7.608 6.952 7.590 6.917 7.555 10.386 9.973 0.415 10.465 10.418 0.052
PRIMET_226 2015-09-30 23:15:00 226 156.7 -3.00 195 0.007 0.007 211.300 0.069 6.924 7.577 0.485 0.1 7.62 7.657 7.783 7.715 95.400 99.100 0.007 7.68 7.740 7.842 7.754 7.57 7.608 7.733 7.664 7.003 7.594 6.858 7.554 10.450 9.966 0.481 10.521 10.422 0.095
PRIMET_226 2015-09-30 23:10:00 226 156.7 -3.00 174 0.007 0.007 211.300 0.056 7.035 7.604 0.477 0.1 7.71 7.760 7.869 7.788 95.500 98.800 0.007 7.74 7.787 7.894 7.817 7.68 7.740 7.847 7.751 7.065 7.629 7.008 7.583 10.518 10.042 0.473 10.573 10.441 0.127
PRIMET_226 2015-09-30 23:05:00 226 156.7 -3.00 187 0.007 0.007 211.300 0.056 7.096 7.655 0.479 0.1 7.77 7.802 7.913 7.861 95.500 98.600 0.007 7.81 7.840 7.952 7.904 7.74 7.771 7.883 7.821 7.143 7.702 7.062 7.628 10.563 10.084 0.475 10.626 10.478 0.149
PRIMET_226 2015-09-30 23:00:00 226 156.7 -3.50 182 0.007 0.007 211.300 0.088 7.179 7.717 0.473 0.1 7.84 7.881 8.000 7.915 95.500 98.700 0.007 7.88 7.918 8.040 7.956 7.82 7.850 7.955 7.890 7.219 7.759 7.150 7.698 10.614 10.142 0.478 10.665 10.522 0.139
PRIMET_226 2015-09-30 22:55:00 226 156.7 -4.00 192 0.007 0.007 211.200 0.063 7.234 7.802 0.469 0.1 7.89 7.945 8.080 8.000 95.600 98.700 0.007 7.93 7.986 8.120 8.040 7.86 7.915 8.040 7.950 7.255 7.849 7.211 7.746 10.649 10.180 0.469 10.727 10.583 0.139
PRIMET_226 2015-09-30 22:50:00 226 156.7 -4.00 197 0.007 0.007 211.300 0.137 7.260 7.854 0.489 0.1 7.95 7.995 8.130 8.050 95.400 98.700 0.007 7.97 8.020 8.150 8.070 7.92 7.983 8.120 8.040 7.280 7.883 7.223 7.825 10.688 10.198 0.492 10.764 10.621 0.140
PRIMET_226 2015-09-30 22:45:00 226 156.7 -4.00 184 0.007 0.007 210.100 0.063 7.293 7.843 0.494 0.2 7.98 8.030 8.160 8.080 95.400 98.400 0.007 8.00 8.040 8.170 8.100 7.96 8.010 8.150 8.050 7.320 7.889 7.264 7.800 10.715 10.221 0.493 10.786 10.613 0.173
PRIMET_226 2015-09-30 22:40:00 226 156.7 -4.00 187 0.007 0.007 210.100 0.074 7.310 7.867 0.510 0.2 8.02 8.050 8.170 8.110 95.300 98.300 0.007 8.05 8.080 8.210 8.140 7.99 8.030 8.150 8.090 7.329 7.889 7.288 7.844 10.742 10.233 0.505 10.808 10.630 0.184
PRIMET_226 2015-09-30 22:35:00 226 156.7 -4.00 187 0.007 0.007 210.100 0.063 7.356 7.932 0.540 0.2 8.11 8.130 8.260 8.180 95.000 98.300 0.007 8.15 8.170 8.290 8.200 8.06 8.090 8.210 8.150 7.379 7.968 7.316 7.898 10.808 10.265 0.540 10.859 10.677 0.185
PRIMET_226 2015-09-30 22:30:00 226 156.7 -4.00 187 0.007 0.007 210.100 0.063 7.399 7.974 0.571 0.2 8.19 8.220 8.340 8.240 94.700 98.200 0.007 8.23 8.250 8.370 8.290 8.15 8.170 8.290 8.210 7.421 8.020 7.370 7.945 10.867 10.296 0.576 10.904 10.708 0.196
PRIMET_226 2015-09-30 22:25:00 226 156.7 -4.00 197 0.007 0.007 210.100 0.069 7.473 8.030 0.574 0.2 8.26 8.300 8.410 8.310 94.700 98.100 0.007 8.29 8.330 8.440 8.340 8.24 8.250 8.370 8.270 7.494 8.050 7.436 7.997 10.918 10.348 0.579 10.956 10.749 0.208
PRIMET_226 2015-09-30 22:20:00 226 156.7 -4.00 194 0.007 0.007 210.100 0.063 7.496 8.030 0.596 0.3 8.32 8.330 8.430 8.370 94.600 97.700 0.007 8.35 8.350 8.470 8.420 8.29 8.310 8.400 8.340 7.510 8.050 7.479 8.010 10.963 10.364 0.592 11.000 10.749 0.253
PRIMET_226 2015-09-30 22:15:00 226 156.7 -4.00 196 0.007 0.007 210.100 0.063 7.558 8.100 0.621 0.3 8.41 8.400 8.530 8.470 94.400 97.500 0.007 8.45 8.480 8.610 8.520 8.35 8.350 8.480 8.420 7.612 8.140 7.512 8.050 11.030 10.408 0.618 11.075 10.800 0.277
PRIMET_226 2015-09-30 22:10:00 226 156.7 -4.50 196 0.007 0.007 210.100 0.069 7.613 8.150 0.643 0.3 8.49 8.510 8.650 8.560 94.200 97.200 0.007 8.53 8.550 8.700 8.610 8.44 8.470 8.610 8.520 7.634 8.180 7.591 8.130 11.090 10.448 0.643 11.143 10.837 0.312
PRIMET_226 2015-09-30 22:05:00 226 156.7 -5.00 186 0.007 0.007 210.000 0.063 7.660 8.180 0.669 0.4 8.57 8.610 8.760 8.650 94.000 96.800 0.007 8.61 8.680 8.820 8.700 8.53 8.550 8.700 8.610 7.698 8.210 7.616 8.160 11.151 10.481 0.669 11.211 10.859 0.359
PRIMET_226 2015-09-30 22:00:00 226 156.7 -5.00 197 0.007 0.007 210.100 0.063 7.715 8.240 0.684 0.4 8.64 8.710 8.860 8.750 93.900 96.600 0.007 8.67 8.740 8.880 8.800 8.61 8.680 8.820 8.710 7.756 8.310 7.692 8.200 11.204 10.521 0.683 11.287 10.904 0.384
PRIMET_226 2015-09-30 21:55:00 226 156.7 -5.00 196 0.007 0.007 210.100 0.063 7.800 8.320 0.664 0.4 8.70 8.790 8.940 8.830 94.100 96.600 0.007 8.72 8.840 9.000 8.880 8.67 8.740 8.880 8.790 7.840 8.370 7.755 8.290 11.249 10.582 0.664 11.349 10.963 0.386
PRIMET_226 2015-09-30 21:50:00 226 156.7 -5.00 192 0.007 0.007 210.100 0.063 7.845 8.400 0.674 0.4 8.75 8.880 9.050 8.930 94.000 96.400 0.007 8.80 8.930 9.100 8.980 8.72 8.840 9.000 8.890 7.864 8.420 7.828 8.370 11.287 10.614 0.677 11.426 11.023 0.411
PRIMET_226 2015-09-30 21:45:00 226 156.7 -5.00 197 0.007 0.007 209.900 0.231 7.899 8.430 0.716 0.4 8.86 8.980 9.140 9.020 93.700 96.100 0.007 8.89 9.010 9.180 9.060 8.81 8.930 9.100 8.980 7.956 8.480 7.849 8.400 11.372 10.653 0.716 11.495 11.045 0.448
PRIMET_226 2015-09-30 21:40:00 226 156.7 -5.00 196 0.007 0.007 209.500 0.069 7.994 8.540 0.676 0.4 8.89 9.000 9.160 9.050 94.100 96.600 0.007 8.92 9.010 9.190 9.070 8.87 8.980 9.140 9.020 8.030 8.580 7.942 8.470 11.395 10.723 0.672 11.519 11.128 0.392
PRIMET_226 2015-09-30 21:35:00 226 156.7 -5.50 198 0.007 0.007 208.700 0.517 8.030 8.560 0.681 0.4 8.93 8.980 9.140 9.030 94.000 96.900 0.007 8.96 9.010 9.160 9.070 8.89 8.970 9.120 9.000 8.060 8.600 7.987 8.530 11.426 10.749 0.686 11.503 11.143 0.357
PRIMET_226 2015-09-30 21:30:00 226 156.7 -6.00 196 0.007 0.007 208.400 0.069 8.050 8.600 0.712 0.4 9.00 9.050 9.190 9.100 93.800 96.700 0.007 9.03 9.080 9.220 9.140 8.95 9.010 9.160 9.070 8.070 8.620 8.030 8.570 11.480 10.764 0.712 11.558 11.173 0.381
PRIMET_226 2015-09-30 21:25:00 226 156.7 -6.00 197 0.007 0.007 208.400 0.063 8.070 8.620 0.748 0.4 9.06 9.110 9.250 9.160 93.500 96.400 0.007 9.11 9.130 9.280 9.190 9.03 9.080 9.220 9.130 8.090 8.640 8.050 8.600 11.526 10.778 0.749 11.604 11.188 0.418
PRIMET_226 2015-09-30 21:20:00 226 156.7 -6.00 194 0.007 0.007 208.400 0.069 8.080 8.640 0.822 0.5 9.17 9.150 9.280 9.230 92.900 96.100 0.007 9.26 9.230 9.350 9.280 9.11 9.120 9.240 9.190 8.170 8.680 8.050 8.620 11.612 10.786 0.824 11.659 11.204 0.455
PRIMET_226 2015-09-30 21:15:00 226 156.7 -6.00 196 0.007 0.007 208.400 0.063 8.200 8.720 0.841 0.5 9.30 9.290 9.410 9.340 92.800 95.900 0.007 9.34 9.350 9.460 9.380 9.26 9.240 9.350 9.300 8.240 8.740 8.170 8.690 11.715 10.874 0.843 11.746 11.264 0.482
PRIMET_226 2015-09-30 21:10:00 226 156.7 -6.00 200 0.007 0.007 208.400 0.074 8.280 8.800 0.841 0.5 9.38 9.380 9.520 9.430 92.900 95.800 0.007 9.41 9.420 9.560 9.490 9.34 9.350 9.470 9.390 8.320 8.850 8.240 8.750 11.778 10.933 0.836 11.818 11.326 0.496
PRIMET_226 2015-09-30 21:05:00 226 156.7 -6.50 176 0.007 0.007 208.400 0.069 8.350 8.870 0.845 0.5 9.44 9.470 9.620 9.540 92.900 95.600 0.007 9.49 9.510 9.680 9.580 9.40 9.420 9.570 9.480 8.400 8.910 8.310 8.830 11.826 10.985 0.840 11.905 11.379 0.524
PRIMET_226 2015-09-30 21:00:00 226 156.7 -6.50 196 0.007 0.007 208.400 0.063 8.430 8.980 0.840 0.5 9.52 9.560 9.720 9.620 92.900 95.700 0.007 9.56 9.610 9.760 9.660 9.47 9.520 9.670 9.590 8.500 9.010 8.390 8.930 11.889 11.045 0.844 11.970 11.464 0.515
PRIMET_226 2015-09-30 20:55:00 226 156.7 -7.00 189 0.007 0.007 208.400 0.074 8.560 9.050 0.805 0.5 9.60 9.640 9.790 9.690 93.300 95.800 0.007 9.63 9.670 9.800 9.730 9.56 9.610 9.770 9.660 8.590 9.100 8.520 9.010 11.953 11.143 0.801 12.026 11.519 0.505
PRIMET_226 2015-09-30 20:50:00 226 156.7 -7.00 197 0.007 0.007 205.100 3.254 8.600 9.140 0.814 0.5 9.64 9.680 9.810 9.740 93.200 96.100 0.007 9.68 9.700 9.820 9.780 9.61 9.670 9.800 9.720 8.650 9.180 8.570 9.100 11.986 11.173 0.815 12.066 11.589 0.471
PRIMET_226 2015-09-30 20:45:00 226 156.7 -7.50 197 0.007 0.007 201.100 0.531 8.670 9.210 0.827 0.5 9.72 9.730 9.840 9.800 93.100 96.100 0.007 9.76 9.770 9.880 9.840 9.67 9.700 9.810 9.760 8.710 9.280 8.640 9.170 12.050 11.226 0.831 12.115 11.644 0.472
PRIMET_226 2015-09-30 20:40:00 226 156.7 -7.50 194 0.007 0.007 200.700 0.079 8.760 9.320 0.824 0.5 9.81 9.820 9.920 9.890 93.200 96.300 0.007 9.86 9.880 9.980 9.950 9.76 9.780 9.880 9.840 8.800 9.360 8.720 9.270 12.123 11.295 0.824 12.189 11.730 0.451
PRIMET_226 2015-09-30 20:35:00 226 156.7 -7.50 198 0.007 0.007 200.700 0.084 8.860 9.370 0.817 0.5 9.89 9.920 10.030 9.990 93.300 95.900 0.007 9.93 9.970 10.090 10.050 9.85 9.880 9.970 9.950 8.930 9.410 8.790 9.330 12.189 11.372 0.817 12.271 11.770 0.503
PRIMET_226 2015-09-30 20:30:00 226 156.7 -7.00 193 0.007 0.007 200.600 0.079 8.940 9.460 0.797 0.5 9.94 10.020 10.160 10.110 93.500 95.700 0.007 9.96 10.050 10.210 10.160 9.92 9.980 10.090 10.060 8.960 9.510 8.910 9.410 12.229 11.433 0.795 12.370 11.841 0.532
PRIMET_226 2015-09-30 20:25:00 226 156.7 -7.00 198 0.007 0.007 200.700 0.088 8.880 9.490 0.898 0.6 10.00 10.100 10.260 10.200 92.700 95.300 0.007 10.05 10.160 10.310 10.230 9.96 10.050 10.210 10.150 8.920 9.500 8.840 9.470 12.279 11.387 0.896 12.444 11.865 0.585
PRIMET_226 2015-09-30 20:20:00 226 156.7 -7.00 197 0.007 0.007 200.100 0.761 8.930 9.550 0.949 0.6 10.12 10.200 10.350 10.280 92.300 95.200 0.007 10.20 10.270 10.400 10.360 10.06 10.150 10.310 10.240 8.990 9.590 8.880 9.500 12.378 11.426 0.953 12.511 11.913 0.601
PRIMET_226 2015-09-30 20:15:00 226 156.7 -7.50 198 0.007 0.007 211.800 5.141 9.040 9.600 1.043 0.7 10.33 10.370 10.490 10.430 91.700 94.600 0.007 10.41 10.450 10.570 10.480 10.22 10.270 10.410 10.370 9.110 9.630 8.930 9.560 12.553 11.511 1.042 12.637 11.953 0.682
PRIMET_226 2015-09-30 20:10:00 226 156.7 -7.50 197 0.007 0.007 213.600 1.666 9.160 9.700 1.058 0.7 10.46 10.500 10.620 10.510 91.600 94.700 0.007 10.51 10.530 10.640 10.550 10.41 10.450 10.590 10.480 9.190 9.720 9.120 9.640 12.662 11.604 1.064 12.705 12.034 0.673
PRIMET_226 2015-09-30 20:05:00 226 156.7 -7.50 200 0.007 0.007 208.600 0.079 9.230 9.770 1.088 0.7 10.57 10.550 10.660 10.610 91.500 94.500 0.007 10.62 10.590 10.700 10.670 10.51 10.520 10.640 10.560 9.310 9.800 9.170 9.710 12.756 11.659 1.084 12.790 12.091 0.703
PRIMET_226 2015-09-30 20:00:00 226 156.7 -7.50 197 0.007 0.007 208.600 0.063 9.320 9.840 1.102 0.7 10.66 10.640 10.760 10.740 91.400 94.200 0.007 10.70 10.710 10.830 10.790 10.62 10.590 10.700 10.670 9.340 9.870 9.300 9.800 12.832 11.730 1.104 12.901 12.148 0.748
PRIMET_226 2015-09-30 19:55:00 226 156.7 -9.00 204 0.007 0.007 208.600 0.074 9.380 9.900 1.126 0.8 10.74 10.770 10.920 10.840 91.300 93.900 0.007 10.79 10.820 10.990 10.890 10.69 10.710 10.850 10.790 9.440 9.950 9.330 9.860 12.901 11.778 1.122 12.987 12.197 0.792
PRIMET_226 2015-09-30 19:50:00 226 156.7 -10.00 200 0.007 0.007 208.600 0.056 9.480 10.020 1.120 0.8 10.83 10.870 11.030 10.950 91.400 94.000 0.007 10.88 10.890 11.060 10.990 10.78 10.830 10.990 10.910 9.530 10.070 9.430 9.970 12.979 11.857 1.116 13.083 12.295 0.785
PRIMET_226 2015-09-30 19:45:00 226 156.7 -10.50 198 0.007 0.007 208.600 0.069 9.570 10.100 1.135 0.8 10.93 10.950 11.100 11.040 91.300 93.900 0.007 10.98 11.010 11.150 11.110 10.88 10.890 11.060 10.990 9.600 10.140 9.530 10.040 13.065 11.929 1.137 13.161 12.361 0.803
PRIMET_226 2015-09-30 19:40:00 226 156.7 -11.00 200 0.007 0.007 208.600 0.074 9.600 10.130 1.189 0.9 11.02 11.070 11.220 11.150 91.000 93.400 0.007 11.06 11.130 11.270 11.220 10.98 11.020 11.160 11.100 9.640 10.160 9.580 10.090 13.144 11.953 1.183 13.258 12.386 0.875
PRIMET_226 2015-09-30 19:35:00 226 156.7 -11.00 198 0.007 0.007 208.600 0.079 9.670 10.210 1.203 0.9 11.10 11.160 11.330 11.270 90.900 93.200 0.007 11.15 11.210 11.400 11.330 11.06 11.120 11.280 11.210 9.750 10.270 9.590 10.130 13.214 12.010 1.202 13.364 12.453 0.909
PRIMET_226 2015-09-30 19:30:00 226 156.7 -11.00 197 0.007 0.007 208.600 0.079 9.760 10.300 1.223 0.9 11.20 11.260 11.440 11.390 90.800 93.000 0.007 11.28 11.290 11.480 11.430 11.15 11.220 11.400 11.340 9.790 10.310 9.740 10.270 13.302 12.083 1.224 13.470 12.528 0.943
PRIMET_226 2015-09-30 19:25:00 226 156.7 -11.00 189 0.007 0.007 208.600 0.063 9.780 10.360 1.343 1.0 11.35 11.340 11.500 11.480 90.000 92.800 0.007 11.44 11.430 11.550 11.560 11.28 11.290 11.470 11.420 9.830 10.400 9.750 10.300 13.435 12.099 1.343 13.551 12.578 0.976
PRIMET_226 2015-09-30 19:20:00 226 156.7 -11.00 198 0.007 0.007 208.600 0.069 9.930 10.480 1.330 1.0 11.48 11.500 11.630 11.610 90.200 92.800 0.007 11.52 11.550 11.690 11.660 11.44 11.430 11.560 11.550 10.000 10.580 9.840 10.390 13.551 12.221 1.328 13.668 12.679 0.984
PRIMET_226 2015-09-30 19:15:00 226 156.7 -11.00 200 0.007 0.007 208.100 0.540 10.060 10.640 1.314 0.9 11.58 11.600 11.750 11.700 90.400 93.200 0.007 11.64 11.660 11.810 11.760 11.52 11.560 11.710 11.660 10.100 10.660 10.010 10.590 13.641 12.328 1.310 13.749 12.815 0.935
PRIMET_226 2015-09-30 19:10:00 226 156.7 -11.00 200 0.007 0.007 207.300 0.156 10.100 10.670 1.393 1.0 11.71 11.750 11.890 11.830 89.900 92.600 0.007 11.77 11.850 11.980 11.890 11.63 11.670 11.820 11.750 10.130 10.690 10.060 10.640 13.759 12.361 1.390 13.868 12.841 1.026
PRIMET_226 2015-09-30 19:05:00 226 156.7 -11.00 198 0.007 0.007 207.000 0.074 10.160 10.710 1.435 1.1 11.80 11.890 12.020 11.960 89.600 92.100 0.007 11.84 11.940 12.070 12.010 11.77 11.850 11.980 11.900 10.190 10.750 10.130 10.670 13.841 12.411 1.439 13.988 12.875 1.105
PRIMET_226 2015-09-30 19:00:00 226 156.7 -11.00 200 0.007 0.007 207.100 0.112 10.210 10.750 1.448 1.1 11.86 11.960 12.100 12.040 89.600 91.800 0.007 11.91 11.980 12.130 12.080 11.83 11.940 12.070 12.010 10.250 10.800 10.160 10.710 13.896 12.453 1.445 14.062 12.910 1.153
PRIMET_226 2015-09-30 18:55:00 226 156.7 -11.00 200 0.007 0.007 206.600 0.093 10.250 10.760 1.505 1.2 11.97 12.020 12.170 12.130 89.200 91.400 0.007 12.04 12.060 12.210 12.180 11.91 11.970 12.130 12.070 10.280 10.790 10.230 10.700 13.997 12.486 1.512 14.145 12.918 1.216
PRIMET_226 2015-09-30 18:50:00 226 156.7 -10.50 197 0.007 0.007 206.500 0.079 10.280 10.840 1.656 1.3 12.15 12.170 12.300 12.270 88.300 91.000 0.007 12.23 12.240 12.360 12.340 12.05 12.070 12.210 12.190 10.310 10.880 10.240 10.800 14.164 12.511 1.657 14.276 12.987 1.285
PRIMET_226 2015-09-30 18:45:00 226 156.7 -10.00 200 0.007 0.007 206.600 0.088 10.390 10.920 1.674 1.3 12.27 12.300 12.440 12.400 88.300 90.700 0.007 12.31 12.340 12.500 12.460 12.23 12.250 12.370 12.340 10.420 10.960 10.350 10.890 14.276 12.603 1.670 14.399 13.056 1.339
PRIMET_226 2015-09-30 18:40:00 226 156.7 -10.00 205 0.007 0.007 206.500 0.084 10.420 10.970 1.735 1.4 12.37 12.400 12.560 12.530 87.900 90.200 0.007 12.42 12.460 12.620 12.580 12.31 12.360 12.500 12.480 10.480 11.010 10.390 10.940 14.370 12.629 1.739 14.522 13.100 1.423
PRIMET_226 2015-09-30 18:35:00 226 156.7 -9.50 194 0.007 0.007 206.500 0.084 10.560 11.050 1.715 1.5 12.46 12.520 12.690 12.650 88.100 90.000 0.007 12.50 12.580 12.760 12.720 12.43 12.460 12.630 12.590 10.650 11.100 10.490 11.000 14.456 12.747 1.720 14.637 13.170 1.464
PRIMET_226 2015-09-30 18:30:00 226 156.7 -9.00 194 0.007 0.007 206.500 0.105 10.600 11.160 1.730 1.5 12.52 12.640 12.820 12.780 88.100 89.800 0.007 12.57 12.680 12.880 12.860 12.49 12.590 12.760 12.720 10.620 11.230 10.580 11.090 14.513 12.781 1.727 14.762 13.266 1.506
PRIMET_226 2015-09-30 18:25:00 226 156.7 -9.00 200 0.007 0.007 206.400 0.343 10.720 11.300 1.768 1.6 12.67 12.780 12.970 12.970 87.900 89.600 0.007 12.84 12.910 13.090 13.080 12.56 12.700 12.890 12.860 10.810 11.390 10.620 11.230 14.656 12.884 1.773 14.947 13.390 1.554
PRIMET_226 2015-09-30 18:20:00 226 156.7 -9.00 197 0.007 0.007 206.900 0.101 10.760 11.260 2.035 1.8 12.98 13.040 13.190 13.150 86.400 88.300 0.007 13.06 13.110 13.240 13.220 12.86 12.930 13.120 13.100 10.830 11.370 10.670 11.180 14.957 12.918 2.034 15.124 13.355 1.770
PRIMET_226 2015-09-30 18:15:00 226 156.7 -9.00 195 0.007 0.007 206.700 0.088 10.880 11.380 2.103 1.8 13.15 13.190 13.320 13.320 86.100 88.100 0.007 13.23 13.280 13.400 13.410 13.06 13.110 13.240 13.220 11.000 11.480 10.740 11.290 15.124 13.022 2.102 15.293 13.461 1.820
PRIMET_226 2015-09-30 18:10:00 226 156.7 -9.00 199 0.007 0.007 206.800 0.074 11.100 11.630 2.056 1.8 13.30 13.360 13.490 13.510 86.500 88.400 0.007 13.36 13.440 13.560 13.600 13.22 13.270 13.400 13.420 11.240 11.740 10.940 11.510 15.273 13.214 2.062 15.483 13.686 1.796
PRIMET_226 2015-09-30 18:05:00 226 156.7 -9.00 205 0.007 0.007 206.800 0.079 11.330 11.830 2.009 1.8 13.45 13.520 13.670 13.710 87.000 88.400 0.007 13.53 13.630 13.780 13.810 13.37 13.440 13.580 13.620 11.430 11.940 11.250 11.730 15.423 13.417 2.005 15.686 13.868 1.820
PRIMET_226 2015-09-30 18:00:00 226 156.7 -9.00 197 0.007 0.007 206.000 1.363 11.570 12.140 1.920 1.7 13.58 13.720 13.870 13.890 87.700 89.200 0.007 13.60 13.780 13.950 13.970 13.53 13.640 13.780 13.810 11.740 12.360 11.410 11.940 15.554 13.632 1.913 15.871 14.154 1.714
PRIMET_226 2015-09-30 17:55:00 226 156.7 -9.00 194 0.007 0.007 203.800 0.128 11.660 12.210 1.864 1.8 13.60 13.800 14.000 14.050 88.000 88.700 0.007 13.62 13.840 14.060 14.100 13.58 13.780 13.940 13.980 11.690 12.310 11.610 12.180 15.574 13.713 1.869 16.037 14.220 1.812
PRIMET_226 2015-09-30 17:50:00 226 156.7 -9.00 200 0.007 0.007 203.800 0.088 11.510 12.120 2.053 2.0 13.66 13.860 14.120 14.190 86.900 87.400 0.007 13.71 13.900 14.170 14.260 13.62 13.830 14.070 14.120 11.610 12.220 11.430 11.990 15.635 13.578 2.048 16.183 14.136 2.039
PRIMET_226 2015-09-30 17:45:00 226 156.7 -9.00 194 0.007 0.007 203.700 0.101 11.460 11.960 2.233 2.4 13.79 13.980 14.240 14.350 85.800 85.600 0.007 13.82 14.030 14.300 14.420 13.71 13.890 14.170 14.270 11.510 12.020 11.420 11.870 15.768 13.533 2.239 16.351 13.988 2.355
PRIMET_226 2015-09-30 17:40:00 226 156.7 -9.50 198 0.007 0.007 203.400 0.211 11.400 11.960 2.329 2.5 13.83 14.070 14.350 14.510 85.300 84.700 0.007 13.85 14.100 14.390 14.600 13.81 14.020 14.300 14.420 11.460 12.030 11.360 11.900 15.809 13.479 2.324 16.521 13.988 2.528
PRIMET_226 2015-09-30 17:35:00 226 156.7 -10.00 185 0.007 0.007 203.100 0.088 11.410 11.920 2.453 2.8 13.96 14.180 14.510 14.750 84.600 83.100 0.007 14.07 14.280 14.630 14.870 13.84 14.080 14.400 14.610 11.470 12.040 11.370 11.750 15.943 13.488 2.455 16.779 13.951 2.836
PRIMET_226 2015-09-30 17:30:00 226 156.7 -10.00 199 0.007 0.007 203.100 0.088 11.420 11.810 2.683 3.1 14.19 14.400 14.740 14.940 83.400 81.500 0.007 14.26 14.500 14.820 15.020 14.08 14.300 14.640 14.860 11.530 11.890 11.330 11.750 16.183 13.497 2.686 16.986 13.850 3.142
PRIMET_226 2015-09-30 17:25:00 226 156.7 -10.50 199 0.007 0.007 203.000 0.093 11.470 11.860 2.812 3.3 14.35 14.600 14.920 15.130 82.800 80.800 0.007 14.45 14.700 15.010 15.220 14.27 14.500 14.830 15.030 11.560 11.920 11.420 11.820 16.351 13.542 2.812 17.195 13.896 3.301
PRIMET_226 2015-09-30 17:20:00 226 156.7 -11.00 198 0.007 0.007 203.100 0.088 11.700 11.910 2.834 3.5 14.57 14.850 15.140 15.350 82.900 79.940 0.007 14.70 14.980 15.250 15.460 14.45 14.710 15.020 15.220 11.770 12.120 11.570 11.770 16.586 13.749 2.836 17.440 13.941 3.498
PRIMET_226 2015-09-30 17:15:00 226 156.7 -11.00 199 0.007 0.007 203.100 0.093 11.600 11.930 3.149 3.7 14.78 15.090 15.380 15.520 81.300 79.180 0.007 14.84 15.160 15.440 15.570 14.70 14.980 15.270 15.460 11.720 12.030 11.490 11.840 16.812 13.659 3.144 17.631 13.960 3.671
PRIMET_226 2015-09-30 17:10:00 226 156.7 -11.50 195 0.007 0.007 203.400 0.722 11.710 12.150 3.207 3.7 14.92 15.230 15.530 15.680 81.100 79.490 0.007 15.04 15.310 15.630 15.780 14.82 15.160 15.440 15.590 11.880 12.310 11.590 11.910 16.964 13.759 3.206 17.813 14.164 3.653
PRIMET_226 2015-09-30 17:05:00 226 156.7 -11.50 193 0.007 0.007 204.400 0.079 11.970 12.180 3.252 3.8 15.18 15.440 15.740 15.880 81.100 78.670 0.007 15.28 15.550 15.830 15.970 15.06 15.330 15.640 15.810 12.240 12.350 11.750 12.080 17.250 13.997 3.260 18.042 14.192 3.848
PRIMET_226 2015-09-30 17:00:00 226 156.7 -12.00 189 0.007 0.007 204.300 0.367 12.150 12.400 3.336 3.9 15.40 15.700 15.990 16.130 80.900 78.550 0.007 15.50 15.790 16.090 16.240 15.29 15.550 15.830 15.980 12.300 12.700 11.950 12.140 17.496 14.164 3.342 18.333 14.399 3.932
PRIMET_226 2015-09-30 16:55:00 226 156.7 -12.00 194 0.007 0.007 203.500 0.119 12.340 12.660 3.472 4.0 15.68 15.960 16.270 16.430 80.500 78.410 0.007 15.81 16.080 16.380 16.570 15.53 15.800 16.110 16.270 12.500 13.060 12.180 12.370 17.813 14.342 3.474 18.686 14.647 4.034
PRIMET_226 2015-09-30 16:50:00 226 156.7 -12.00 197 0.079 0.079 203.700 0.122 12.630 12.730 3.594 4.4 16.03 16.290 16.620 16.810 80.300 76.860 0.379 16.15 16.480 16.800 16.980 15.86 16.090 16.410 16.610 12.880 13.140 12.380 12.360 18.216 14.618 3.589 19.143 14.714 4.430
PRIMET_226 2015-09-30 16:45:00 226 156.7 -12.50 198 0.370 0.369 205.200 4.321 12.680 12.890 3.891 4.7 16.32 16.650 16.980 17.160 79.030 75.970 0.771 16.46 16.810 17.140 17.330 16.17 16.500 16.820 16.990 13.100 13.400 12.300 12.540 18.556 14.666 3.891 19.573 14.869 4.703
PRIMET_226 2015-09-30 16:40:00 226 156.7 -12.50 197 0.480 0.473 194.700 9.660 13.140 13.250 3.810 4.8 16.63 16.960 17.310 17.530 79.870 75.980 0.647 16.82 17.170 17.540 17.800 16.46 16.820 17.160 17.330 13.340 13.710 12.820 12.880 18.926 15.114 3.810 20.036 15.223 4.813
PRIMET_226 2015-09-30 16:35:00 226 156.7 -12.00 198 0.337 0.331 213.300 11.340 12.610 13.030 4.777 5.6 17.00 17.330 17.710 17.940 75.360 73.010 0.732 17.22 17.480 17.830 18.070 16.84 17.190 17.570 17.830 13.020 13.690 12.300 12.590 19.375 14.599 4.774 20.560 15.006 5.549
PRIMET_226 2015-09-30 16:30:00 226 156.7 -12.50 193 0.007 0.007 225.000 0.074 12.500 12.810 5.458 6.2 17.46 17.700 18.000 18.240 72.640 70.600 0.007 17.64 17.860 18.140 18.380 17.23 17.510 17.830 18.070 12.820 13.110 12.250 12.510 19.947 14.494 5.458 20.951 14.791 6.160
PRIMET_226 2015-09-30 16:25:00 226 156.7 -13.00 194 0.007 0.005 283.500 44.130 12.800 13.170 5.718 6.3 17.90 18.090 18.350 18.580 72.110 70.780 0.007 18.09 18.320 18.560 18.770 17.67 17.900 18.170 18.380 13.060 13.560 12.410 12.690 20.508 14.782 5.720 21.402 15.144 6.254
PRIMET_226 2015-09-30 16:20:00 226 156.7 -14.00 189 0.007 0.007 318.700 0.358 12.920 13.090 6.105 6.9 18.28 18.540 18.790 18.990 70.950 68.660 0.007 18.44 18.740 18.990 19.150 18.11 18.320 18.570 18.800 13.400 13.940 12.230 12.090 21.004 14.898 6.102 21.958 15.065 6.882
PRIMET_226 2015-09-30 16:15:00 226 156.7 -15.50 198 0.147 0.144 321.800 9.940 12.090 12.200 7.285 8.3 18.57 18.930 19.200 19.370 65.950 63.280 0.516 18.68 19.090 19.370 19.470 18.48 18.760 19.020 19.180 12.740 12.940 11.420 10.910 21.389 14.108 7.283 22.484 14.211 8.256
PRIMET_226 2015-09-30 16:10:00 226 156.7 -16.50 194 0.181 0.151 299.200 33.180 12.050 12.270 7.706 8.6 18.86 19.230 19.540 19.690 64.610 62.280 0.804 18.94 19.430 19.750 19.880 18.68 19.010 19.300 19.450 12.550 13.280 11.400 11.200 21.780 14.071 7.708 22.935 14.276 8.651
PRIMET_226 2015-09-30 16:05:00 226 156.7 -17.50 198 0.403 0.256 249.100 48.940 11.740 11.660 8.060 9.4 18.91 19.300 19.620 19.830 63.130 59.320 0.810 19.05 19.560 19.880 20.030 18.78 19.130 19.460 19.680 12.480 12.500 9.920 10.280 21.849 13.786 8.056 23.135 13.713 9.411
PRIMET_226 2015-09-30 16:00:00 226 156.7 -18.50 200 0.220 0.189 291.700 30.570 12.070 12.020 8.300 9.7 19.30 19.700 20.030 20.270 62.960 59.130 1.209 19.44 19.870 20.230 20.430 19.12 19.450 19.780 20.050 12.670 13.120 10.520 10.480 22.386 14.089 8.292 23.774 14.043 9.716
PRIMET_226 2015-09-30 15:55:00 226 156.7 -20.00 194 0.537 0.442 236.000 34.170 11.720 11.400 8.990 10.8 19.58 20.010 20.400 20.600 60.520 55.610 2.071 19.76 20.340 20.710 20.700 19.43 19.820 20.220 20.440 12.190 12.310 9.460 9.780 22.779 13.768 8.993 24.263 13.479 10.770
PRIMET_226 2015-09-30 15:50:00 226 156.7 -20.50 195 0.546 0.432 279.900 37.070 11.400 11.080 9.470 11.6 19.70 20.270 20.670 20.980 58.730 53.170 0.915 19.79 20.460 20.850 21.110 19.54 20.040 20.430 20.740 12.110 12.080 10.710 10.100 22.950 13.479 9.471 24.837 13.196 11.631
PRIMET_226 2015-09-30 15:45:00 226 156.7 -20.50 202 0.543 0.506 265.100 21.100 11.000 10.560 9.850 12.2 19.73 20.330 20.770 21.050 57.150 51.170 1.045 19.86 20.570 20.960 21.160 19.59 20.100 20.610 20.980 11.770 11.680 9.120 9.400 22.992 13.126 9.852 24.944 12.747 12.180
PRIMET_226 2015-09-30 15:40:00 226 156.7 -20.50 195 0.775 0.573 255.000 41.380 10.900 10.750 10.210 12.3 19.92 20.440 20.860 21.210 56.100 51.320 1.529 20.03 20.680 21.080 21.300 19.82 20.260 20.650 21.050 11.880 12.080 8.920 9.380 23.265 13.039 10.213 25.190 12.910 12.262
PRIMET_226 2015-09-30 15:35:00 226 156.7 -21.00 220 0.337 0.254 269.700 40.130 11.290 11.120 10.190 12.7 20.14 20.560 21.080 21.690 56.770 51.020 1.111 20.29 20.690 21.310 22.130 19.91 20.300 20.760 21.310 11.870 11.840 10.880 10.420 23.584 13.381 10.195 25.941 13.231 12.706
PRIMET_226 2015-09-30 15:30:00 226 156.7 -20.50 190 0.534 0.473 264.400 27.390 10.820 10.370 11.330 14.8 20.64 21.200 21.840 22.600 53.400 45.940 1.085 21.00 21.640 22.280 22.930 20.29 20.710 21.340 22.200 11.850 10.990 8.840 9.220 24.323 12.970 11.334 27.419 12.586 14.822
PRIMET_226 2015-09-30 15:25:00 226 156.7 -19.50 199 0.251 0.197 242.900 37.360 11.080 10.910 12.710 15.1 21.67 22.280 22.750 23.050 50.960 46.290 0.947 22.06 22.760 23.080 23.170 21.06 21.670 22.310 22.970 11.750 11.890 10.460 10.390 25.909 13.196 12.706 28.176 13.048 15.133
PRIMET_226 2015-09-30 15:20:00 226 156.7 -19.50 201 0.352 0.267 230.100 39.690 10.140 10.010 14.200 15.8 22.10 22.620 22.940 23.000 46.630 43.800 1.196 22.21 22.900 23.230 23.160 22.03 22.460 22.760 22.880 11.500 11.940 8.640 8.810 26.598 12.394 14.195 28.091 12.287 15.787
PRIMET_226 2015-09-30 15:15:00 226 156.7 -19.00 192 0.884 0.675 242.000 39.370 10.220 10.090 14.430 15.6 22.29 22.770 23.000 22.950 46.350 44.170 2.287 22.48 23.040 23.270 23.120 22.08 22.540 22.790 22.720 11.460 12.360 8.720 8.960 26.907 12.461 14.436 28.006 12.353 15.636
PRIMET_226 2015-09-30 15:10:00 226 156.7 -19.50 199 0.573 0.474 219.200 33.710 10.470 10.080 14.100 15.2 22.22 22.580 22.680 22.680 47.380 44.850 1.032 22.39 22.730 22.800 22.740 21.99 22.410 22.550 22.610 11.840 11.950 8.610 8.930 26.793 12.671 14.098 27.552 12.345 15.195
PRIMET_226 2015-09-30 15:05:00 226 156.7 -19.50 194 0.845 0.351 247.900 61.950 10.540 10.030 14.370 15.8 22.41 22.740 22.910 23.030 46.990 43.780 2.607 22.68 22.980 23.220 23.200 21.97 22.220 22.390 22.640 11.350 11.080 9.560 8.990 27.104 12.730 14.368 28.142 12.303 15.821
PRIMET_226 2015-09-30 15:00:00 226 156.7 -19.50 209 0.810 0.617 274.800 39.560 10.200 9.560 15.110 16.4 22.69 22.920 23.120 23.160 45.190 42.090 1.816 22.78 23.100 23.280 23.290 22.56 22.700 22.950 23.090 11.510 12.150 8.450 8.790 27.569 12.444 15.110 28.364 11.921 16.426
PRIMET_226 2015-09-30 14:55:00 226 156.7 -18.00 200 1.027 0.739 252.900 42.920 10.090 9.480 15.410 16.7 22.82 22.980 23.160 23.260 44.550 41.610 1.914 23.06 23.250 23.360 23.300 22.59 22.820 23.070 23.220 11.860 11.420 8.140 8.340 27.787 12.353 15.408 28.536 11.857 16.662
PRIMET_226 2015-09-30 14:50:00 226 156.7 -18.00 206 0.382 0.293 245.000 39.140 10.930 10.210 15.340 16.5 23.19 23.270 23.380 23.500 46.030 43.110 0.902 23.33 23.550 23.630 23.620 22.96 22.880 23.000 23.280 12.210 12.250 9.500 8.300 28.415 13.065 15.336 28.952 12.453 16.471
PRIMET_226 2015-09-30 14:45:00 226 156.7 -20.00 207 0.406 0.293 241.100 42.720 10.200 9.600 16.500 17.4 23.51 23.520 23.610 23.740 43.030 40.740 1.202 23.63 23.610 23.690 23.820 23.31 23.390 23.510 23.620 11.620 11.190 7.581 7.983 28.969 12.444 16.504 29.373 11.953 17.406
PRIMET_226 2015-09-30 14:40:00 226 156.7 -20.00 215 0.770 0.618 223.200 36.030 10.060 9.630 17.020 17.7 23.77 23.830 23.830 23.920 42.170 40.520 1.431 23.95 24.150 24.130 24.040 23.51 23.580 23.620 23.830 12.880 12.300 6.691 7.496 29.426 12.328 17.017 29.693 11.978 17.661
PRIMET_226 2015-09-30 14:35:00 226 156.7 -18.50 302 0.699 0.517 231.600 41.320 9.430 9.430 18.200 18.3 24.12 24.180 24.120 24.140 39.430 39.340 1.829 24.40 24.540 24.470 24.350 23.91 23.970 23.920 24.010 10.990 10.920 6.812 7.595 30.051 11.818 18.202 30.087 11.818 18.251
PRIMET_226 2015-09-30 14:30:00 226 156.7 -20.00 198 1.277 1.046 217.100 34.430 8.710 9.000 19.070 18.9 24.30 24.390 24.320 24.290 37.230 37.920 2.267 24.46 24.540 24.470 24.380 24.21 24.250 24.190 24.250 11.160 11.510 6.863 7.644 30.377 11.257 19.068 30.359 11.480 18.847
PRIMET_226 2015-09-30 14:25:00 226 156.7 -20.00 200 0.410 0.202 246.900 57.730 9.840 9.700 18.910 18.7 24.70 24.700 24.580 24.510 39.230 39.290 1.137 24.92 25.030 24.920 24.640 24.38 24.420 24.320 24.360 12.140 11.960 7.105 7.540 31.112 12.148 18.907 30.761 12.034 18.675
PRIMET_226 2015-09-30 14:20:00 226 156.7 -18.50 219 0.766 0.658 233.100 30.470 9.310 9.430 18.830 18.6 24.43 24.530 24.460 24.360 38.490 38.940 1.973 24.57 24.680 24.620 24.460 24.29 24.390 24.340 24.310 11.450 11.870 6.916 7.447 30.614 11.722 18.831 30.486 11.818 18.615
PRIMET_226 2015-09-30 14:15:00 226 156.7 -14.00 209 0.889 0.762 235.600 30.550 9.250 9.470 18.750 18.7 24.36 24.570 24.530 24.440 38.490 38.840 1.888 24.52 24.720 24.680 24.560 24.16 24.370 24.390 24.370 12.360 12.050 7.121 7.554 30.486 11.675 18.752 30.632 11.849 18.735
PRIMET_226 2015-09-30 14:10:00 226 156.7 -12.00 205 0.908 0.811 230.800 26.510 9.970 9.610 17.930 18.3 24.23 24.360 24.370 24.250 40.700 39.720 1.607 24.38 24.530 24.550 24.410 24.10 24.130 24.100 24.120 13.170 13.170 7.819 7.627 30.250 12.254 17.938 30.286 11.962 18.256
PRIMET_226 2015-09-30 14:05:00 226 156.7 -13.00 227 0.534 0.384 217.600 42.870 11.190 10.910 16.970 17.1 24.28 24.290 24.190 24.220 44.050 43.430 1.411 24.46 24.450 24.290 24.260 24.03 24.080 24.030 24.160 13.300 13.690 7.784 7.661 30.341 13.293 16.976 30.232 13.048 17.102
PRIMET_226 2015-09-30 14:00:00 226 156.7 -13.00 275 0.607 0.572 210.100 19.430 10.590 10.400 17.080 17.3 24.06 24.250 24.210 24.070 42.950 42.320 1.411 24.26 24.550 24.470 24.260 23.92 23.830 23.810 23.860 13.170 13.270 7.189 7.734 29.943 12.773 17.083 29.961 12.612 17.282
PRIMET_226 2015-09-30 13:55:00 226 156.7 -13.00 224 0.644 0.544 220.300 31.970 10.580 10.410 16.930 16.9 23.98 23.960 23.870 23.860 43.180 42.890 1.457 24.17 24.260 24.200 24.060 23.80 23.680 23.580 23.690 13.180 13.310 6.985 7.777 29.800 12.764 16.932 29.586 12.620 16.896
PRIMET_226 2015-09-30 13:50:00 226 156.7 -11.50 216 0.852 0.573 219.300 46.340 10.800 11.070 16.820 16.6 24.01 24.000 23.900 24.030 43.680 44.350 2.411 24.37 24.250 24.150 24.250 23.75 23.800 23.720 23.900 12.740 13.040 6.986 7.716 29.853 12.953 16.813 29.889 13.187 16.633
PRIMET_226 2015-09-30 13:45:00 226 156.7 -10.50 205 0.805 0.511 256.200 48.980 9.560 9.450 18.360 18.2 24.29 24.240 24.160 24.130 39.520 39.490 2.143 24.40 24.460 24.370 24.270 24.20 24.010 23.930 24.050 12.020 11.920 6.763 7.573 30.359 11.921 18.361 30.069 11.833 18.195
PRIMET_226 2015-09-30 13:40:00 226 156.7 -9.50 220 0.850 0.582 221.700 45.500 8.720 9.070 19.030 18.6 24.29 24.230 24.160 24.170 37.300 38.400 2.149 24.38 24.410 24.320 24.280 24.20 24.030 23.980 24.100 12.130 12.320 6.984 7.674 30.359 11.264 19.035 30.141 11.534 18.567
PRIMET_226 2015-09-30 13:35:00 226 156.7 -8.50 200 0.853 0.705 225.600 33.700 9.610 9.600 18.500 18.3 24.38 24.210 24.190 24.240 39.400 39.640 1.790 24.52 24.360 24.370 24.380 24.20 23.940 23.900 24.130 13.240 12.060 7.065 7.569 30.523 11.962 18.497 30.268 11.953 18.270
PRIMET_226 2015-09-30 13:30:00 226 156.7 -7.50 198 0.993 0.762 255.500 39.110 8.550 8.690 19.260 18.7 24.33 24.270 24.170 24.080 36.730 37.590 1.947 24.56 24.470 24.370 24.250 24.04 23.940 23.860 23.810 11.170 11.070 6.798 7.453 30.432 11.135 19.254 29.979 11.242 18.710
PRIMET_226 2015-09-30 13:25:00 226 156.7 -7.50 200 0.893 0.760 268.600 31.180 9.170 9.230 18.340 18.0 24.09 23.910 23.850 23.910 38.860 39.410 1.744 24.24 24.120 24.050 24.010 23.94 23.660 23.650 23.730 12.430 12.960 7.103 7.776 29.997 11.612 18.340 29.675 11.659 17.980
PRIMET_226 2015-09-30 13:20:00 226 156.7 -9.00 193 0.887 0.701 250.200 37.060 9.420 9.510 18.000 17.7 24.02 23.940 23.890 23.890 39.700 40.220 1.823 24.18 24.160 24.110 24.050 23.68 23.680 23.630 23.780 12.120 12.150 6.912 7.814 29.871 11.810 18.012 29.639 11.881 17.718
PRIMET_226 2015-09-30 13:15:00 226 156.7 -10.50 196 0.994 0.775 213.100 38.050 9.090 9.360 17.820 17.5 23.78 23.830 23.750 23.670 39.430 40.360 2.430 23.95 24.020 23.980 23.870 23.51 23.520 23.360 23.390 12.390 12.290 7.198 7.690 29.444 11.550 17.834 29.250 11.762 17.444
PRIMET_226 2015-09-30 13:10:00 226 156.7 -10.50 204 0.885 0.597 253.900 46.180 9.700 9.880 16.740 16.3 23.44 23.440 23.310 23.230 41.960 42.920 1.797 23.75 23.840 23.690 23.380 22.98 23.070 22.940 23.040 13.190 13.110 7.579 8.150 28.847 12.034 16.743 28.484 12.180 16.259
PRIMET_226 2015-09-30 13:05:00 226 156.7 -9.00 196 0.940 0.852 226.200 24.870 10.490 10.530 15.180 15.2 22.92 23.050 22.940 22.920 45.680 45.720 2.163 23.05 23.210 23.080 23.070 22.83 22.830 22.720 22.780 12.760 12.590 6.823 7.751 27.955 12.688 15.185 27.955 12.722 15.174
PRIMET_226 2015-09-30 13:00:00 226 156.7 -9.50 198 0.848 0.781 210.600 22.790 10.970 11.100 14.890 14.8 22.99 23.000 22.930 22.990 46.960 47.280 2.313 23.20 23.290 23.250 23.150 22.76 22.720 22.620 22.760 13.020 12.910 8.090 8.530 28.074 13.100 14.890 28.074 13.214 14.801
PRIMET_226 2015-09-30 12:55:00 226 156.7 -13.00 198 0.654 0.365 218.800 53.800 10.490 10.340 15.610 15.5 23.15 23.080 23.020 22.980 44.930 44.840 2.313 23.33 23.400 23.350 23.160 22.92 22.750 22.680 22.820 12.470 11.880 7.896 8.690 28.347 12.688 15.611 28.057 12.561 15.476
PRIMET_226 2015-09-30 12:50:00 226 156.7 -11.50 237 1.304 1.152 227.900 27.670 8.460 8.810 16.730 16.7 22.87 23.060 23.030 23.000 39.980 40.520 3.031 23.09 23.210 23.160 23.070 22.67 22.940 22.880 22.900 12.560 12.510 6.673 7.561 27.871 11.068 16.728 28.091 11.333 16.709
PRIMET_226 2015-09-30 12:45:00 226 156.7 -11.00 198 0.521 0.367 198.200 44.100 10.270 10.240 14.540 14.6 22.42 22.550 22.480 22.440 46.370 46.120 1.202 22.75 22.980 22.930 22.850 22.12 21.960 21.930 22.150 12.930 12.300 7.868 8.560 27.121 12.503 14.545 27.154 12.478 14.630
PRIMET_226 2015-09-30 12:40:00 226 156.7 -12.50 200 0.758 0.660 230.700 29.110 11.320 11.360 13.270 13.2 22.19 22.200 22.100 22.180 50.380 50.590 2.006 22.39 22.510 22.430 22.360 22.00 21.860 21.750 22.010 13.090 13.510 7.994 8.550 26.744 13.408 13.270 26.728 13.444 13.206
PRIMET_226 2015-09-30 12:35:00 226 156.7 -12.50 241 0.812 0.747 214.800 22.960 11.060 10.440 12.920 13.8 21.84 21.780 21.880 22.010 50.590 47.990 2.555 22.20 22.330 22.340 22.290 21.46 21.190 21.370 21.800 13.200 13.550 8.080 8.600 26.180 13.179 12.935 26.452 12.645 13.758
PRIMET_226 2015-09-30 12:30:00 226 156.7 -13.00 204 1.169 1.059 213.500 24.920 9.410 9.400 13.850 14.1 21.55 21.760 21.770 21.680 46.120 45.540 2.744 21.94 22.070 22.100 21.970 21.33 21.500 21.490 21.570 13.190 11.630 7.928 8.370 25.720 11.802 13.858 25.925 11.794 14.119
PRIMET_226 2015-09-30 12:25:00 226 156.7 -10.50 193 1.014 0.896 209.700 27.660 11.320 11.400 11.710 11.9 21.20 21.380 21.360 21.340 53.490 53.200 2.365 21.54 21.910 21.860 21.660 20.91 20.880 20.900 21.090 13.240 13.100 8.850 9.030 25.174 13.408 11.709 25.391 13.479 11.883
PRIMET_226 2015-09-30 12:20:00 226 156.7 -10.50 211 1.198 0.978 226.900 34.670 10.530 10.610 11.610 12.1 20.68 20.990 21.060 21.030 52.370 51.530 2.626 20.98 21.220 21.290 21.280 20.42 20.670 20.790 20.760 13.380 13.570 8.500 8.850 24.383 12.722 11.613 24.913 12.790 12.075
PRIMET_226 2015-09-30 12:15:00 226 156.7 -8.50 210 1.232 1.169 209.600 18.220 10.470 10.430 11.000 11.7 20.23 20.600 20.710 20.660 53.600 52.020 2.339 20.48 20.840 20.920 20.760 20.06 20.440 20.540 20.530 12.520 12.400 8.490 9.050 23.715 12.671 11.004 24.353 12.637 11.684
PRIMET_226 2015-09-30 12:10:00 226 156.7 -5.50 200 0.965 0.810 207.000 32.510 10.910 10.270 10.260 11.3 19.99 20.180 20.270 20.290 56.070 52.670 2.071 20.19 20.550 20.600 20.560 19.78 19.690 19.800 20.020 12.730 12.670 8.680 8.660 23.366 13.048 10.265 23.803 12.503 11.266
PRIMET_226 2015-09-30 12:05:00 226 156.7 -5.50 213 0.593 0.487 205.800 34.270 11.670 11.210 9.940 10.6 20.22 20.260 20.320 20.420 58.100 55.680 1.757 20.42 20.760 20.730 20.650 19.82 19.680 19.820 20.070 13.030 13.430 8.130 8.870 23.701 13.722 9.931 23.995 13.310 10.635
PRIMET_226 2015-09-30 12:00:00 226 156.7 -5.00 203 0.919 0.818 218.200 26.920 10.710 10.780 10.450 10.9 20.01 20.400 20.400 20.360 55.360 54.330 1.823 20.32 20.730 20.720 20.580 19.78 20.170 20.200 20.180 12.820 13.070 7.751 8.230 23.395 12.875 10.443 23.906 12.935 10.918
PRIMET_226 2015-09-30 11:55:00 226 156.7 -5.00 190 1.008 0.874 202.400 29.460 10.380 10.080 9.640 10.6 19.22 19.720 19.860 19.710 56.790 54.040 2.339 19.72 20.320 20.400 20.110 18.91 19.220 19.440 19.350 12.410 13.130 7.761 8.080 22.275 12.595 9.625 22.964 12.345 10.554
PRIMET_226 2015-09-30 11:50:00 226 156.7 -6.50 194 0.834 0.762 202.600 23.870 11.800 10.970 7.825 9.1 18.79 19.140 19.280 19.190 63.910 59.010 1.431 18.99 19.330 19.460 19.360 18.41 18.790 18.910 18.890 13.140 12.460 9.960 9.810 21.685 13.841 7.826 22.233 13.100 9.113
PRIMET_226 2015-09-30 11:45:00 226 156.7 -7.00 200 0.529 0.398 217.700 40.270 11.950 11.720 6.513 7.4 17.90 18.290 18.420 18.410 68.280 65.100 1.346 18.43 18.890 19.020 18.870 17.55 17.790 17.950 18.090 12.930 12.950 9.220 9.510 20.508 13.978 6.505 21.176 13.768 7.390
PRIMET_226 2015-09-30 11:40:00 226 156.7 -6.50 193 0.639 0.619 202.400 14.300 12.030 11.960 6.297 7.1 17.78 18.100 18.240 18.310 69.070 66.480 1.457 17.91 18.350 18.470 18.450 17.58 17.740 17.920 18.140 12.420 12.630 11.240 10.980 20.354 14.052 6.295 21.043 13.988 7.054
PRIMET_226 2015-09-30 11:35:00 226 156.7 -6.50 202 0.840 0.783 210.500 21.070 10.980 10.570 7.301 8.4 17.84 18.270 18.420 18.430 64.280 60.290 1.339 18.06 18.500 18.640 18.510 17.63 18.020 18.190 18.330 12.140 12.170 8.820 9.200 20.431 13.109 7.298 21.202 12.756 8.419
PRIMET_226 2015-09-30 11:30:00 226 156.7 -6.50 199 0.696 0.613 211.000 27.870 10.760 10.320 7.529 8.7 17.87 18.300 18.510 18.460 63.220 59.160 1.725 18.02 18.650 18.840 18.640 17.77 18.110 18.280 18.270 11.960 11.710 8.680 8.990 20.470 12.918 7.529 21.242 12.545 8.675
PRIMET_226 2015-09-30 11:25:00 226 156.7 -6.50 234 0.546 0.473 211.000 29.630 11.110 10.420 6.963 8.2 17.66 18.100 18.250 18.160 65.540 60.640 1.071 17.90 18.420 18.560 18.340 17.24 17.880 18.020 17.840 11.910 11.700 9.200 8.720 20.201 13.222 6.961 20.846 12.629 8.205
PRIMET_226 2015-09-30 11:20:00 226 156.7 -5.50 197 0.491 0.465 203.800 18.690 10.880 10.050 6.279 7.6 16.94 17.270 17.460 17.450 67.470 61.900 1.117 17.15 17.710 17.900 17.730 16.67 17.020 17.200 17.260 11.940 10.910 9.240 8.490 19.302 13.022 6.279 19.935 12.320 7.595
PRIMET_226 2015-09-30 11:15:00 226 156.7 -5.50 200 0.521 0.455 193.700 28.850 10.560 10.000 5.825 7.2 16.35 16.890 17.170 17.130 68.660 62.900 1.653 16.60 17.110 17.370 17.290 16.23 16.630 16.930 16.980 11.590 11.020 8.550 8.490 18.592 12.747 5.827 19.536 12.279 7.248
PRIMET_226 2015-09-30 11:10:00 226 156.7 -6.50 215 0.418 0.392 192.700 20.120 10.800 10.170 5.623 6.8 16.34 16.700 16.890 16.870 69.740 64.660 1.542 16.52 16.920 17.120 17.010 16.05 16.520 16.740 16.780 11.810 10.880 10.030 8.600 18.580 12.953 5.622 19.216 12.419 6.791
PRIMET_226 2015-09-30 11:05:00 226 156.7 -6.50 198 0.344 0.302 193.100 28.160 10.410 10.070 5.415 6.6 15.88 16.410 16.670 16.620 69.990 65.280 0.797 16.11 16.670 16.900 16.800 15.77 16.140 16.410 16.410 11.200 11.010 8.970 8.880 18.042 12.620 5.414 18.914 12.336 6.567
PRIMET_226 2015-09-30 11:00:00 226 156.7 -6.50 212 0.235 0.206 183.400 28.090 10.540 10.150 5.017 5.9 15.63 15.910 16.090 16.100 71.740 67.820 1.045 15.74 16.110 16.360 16.370 15.51 15.740 15.880 15.960 11.610 10.970 9.850 9.550 17.756 12.730 5.018 18.298 12.403 5.888
PRIMET_226 2015-09-30 10:55:00 226 156.7 -6.50 198 0.284 0.271 184.200 17.240 10.490 10.120 4.885 5.7 15.47 15.680 15.880 15.880 72.210 68.620 0.875 15.58 15.810 16.040 16.050 15.37 15.500 15.740 15.740 11.060 10.610 10.100 9.580 17.575 12.688 4.884 18.042 12.378 5.662
PRIMET_226 2015-09-30 10:50:00 226 156.7 -6.00 199 0.424 0.343 190.900 35.260 10.280 10.130 4.827 5.5 15.27 15.660 15.790 15.730 72.170 69.310 1.274 15.47 15.960 16.070 15.870 15.13 15.390 15.520 15.610 11.460 11.000 8.840 9.060 17.351 12.511 4.829 17.870 12.386 5.484
PRIMET_226 2015-09-30 10:45:00 226 156.7 -5.50 219 0.159 0.080 192.800 57.070 10.400 10.110 4.365 5.4 14.93 15.370 15.610 15.630 74.290 69.690 0.686 15.15 15.480 15.750 15.760 14.71 15.090 15.370 15.360 11.230 11.050 8.660 8.730 16.975 12.612 4.364 17.756 12.370 5.382
PRIMET_226 2015-09-30 10:40:00 226 156.7 -5.50 229 0.126 0.121 193.500 16.900 10.150 10.020 4.357 5.0 14.73 15.070 15.230 15.200 74.000 71.170 0.581 14.90 15.290 15.460 15.360 14.64 14.870 14.970 15.080 10.660 10.460 9.710 9.390 16.758 12.403 4.357 17.273 12.295 4.980
PRIMET_226 2015-09-30 10:35:00 226 156.7 -5.50 194 0.105 0.102 183.000 13.870 10.170 9.910 4.039 4.9 14.45 14.880 15.080 15.070 75.460 71.270 1.150 14.65 15.020 15.250 15.140 14.30 14.780 14.970 14.960 10.820 10.610 9.410 8.620 16.457 12.419 4.039 17.129 12.205 4.921
PRIMET_226 2015-09-30 10:30:00 226 156.7 -4.00 194 0.571 0.525 194.400 23.030 9.910 9.430 3.803 4.9 14.04 14.430 14.710 14.680 76.280 70.840 1.470 14.23 14.810 15.080 14.870 13.75 14.190 14.530 14.400 10.940 10.050 7.768 8.190 16.026 12.205 3.801 16.704 11.818 4.871
PRIMET_226 2015-09-30 10:25:00 226 156.7 -5.50 204 0.180 0.162 190.800 25.910 9.700 9.420 3.528 4.3 13.59 13.880 14.140 14.120 77.330 73.350 0.810 13.74 14.090 14.390 14.330 13.40 13.740 13.980 13.960 10.120 9.710 9.310 8.970 15.564 12.034 3.528 16.110 11.810 4.293
PRIMET_226 2015-09-30 10:20:00 226 156.7 -5.50 192 0.245 0.235 157.400 16.510 9.850 9.700 3.025 3.9 13.21 13.590 13.930 13.950 80.100 75.550 0.693 13.40 13.700 14.080 14.040 12.99 13.440 13.810 13.890 10.200 10.320 9.280 9.170 15.183 12.156 3.021 15.933 12.034 3.896
PRIMET_226 2015-09-30 10:15:00 226 156.7 -6.00 194 0.494 0.443 191.500 26.090 9.260 9.100 2.889 4.2 12.58 13.390 13.910 13.810 80.200 73.240 0.987 12.94 13.670 14.210 14.090 12.19 13.000 13.500 13.410 9.880 9.710 8.390 8.270 14.570 11.683 2.885 15.789 11.558 4.225
PRIMET_226 2015-09-30 10:10:00 226 156.7 -6.00 202 0.204 0.195 173.400 16.120 9.120 9.160 2.695 3.5 12.26 12.840 13.180 13.140 81.100 76.800 0.706 12.37 12.900 13.380 13.380 12.18 12.720 12.960 12.930 9.410 9.410 8.790 8.890 14.267 11.573 2.696 15.114 11.604 3.506
PRIMET_226 2015-09-30 10:05:00 226 156.7 -6.00 188 0.159 0.150 184.400 19.200 9.250 9.210 2.688 3.1 12.36 12.610 12.770 12.740 81.300 79.060 0.732 12.43 12.800 13.010 12.940 12.33 12.490 12.640 12.610 9.770 9.670 8.950 8.990 14.361 11.675 2.685 14.724 11.644 3.083
PRIMET_226 2015-09-30 10:00:00 226 156.7 -6.00 193 0.007 0.007 193.900 2.438 9.350 9.230 2.488 2.8 12.24 12.450 12.550 12.510 82.500 80.400 0.007 12.36 12.550 12.700 12.640 12.10 12.300 12.400 12.380 9.710 9.450 9.060 8.830 14.248 11.754 2.493 14.503 11.659 2.843
PRIMET_226 2015-09-30 09:55:00 226 156.7 -5.50 188 0.007 0.007 195.900 0.084 9.320 9.090 2.177 2.6 11.88 12.120 12.220 12.180 84.400 81.400 0.007 12.07 12.320 12.400 12.360 11.66 11.920 12.090 11.990 9.940 9.280 9.160 8.920 13.914 11.730 2.171 14.192 11.550 2.640
PRIMET_226 2015-09-30 09:50:00 226 156.7 -5.00 192 0.007 0.007 197.000 1.040 9.510 9.040 1.506 2.3 11.30 11.700 11.910 11.750 88.800 83.400 0.007 11.62 11.900 12.070 11.970 10.91 11.460 11.750 11.560 9.870 9.110 9.180 8.990 13.390 11.881 1.500 13.795 11.511 2.290
PRIMET_226 2015-09-30 09:45:00 226 156.7 -3.50 199 0.007 0.007 198.000 0.084 9.380 9.200 0.763 1.8 10.31 10.910 11.360 11.350 93.900 86.600 0.007 10.86 11.450 11.730 11.530 9.77 10.260 10.880 11.110 9.760 9.310 9.180 8.990 12.536 11.778 0.765 13.435 11.636 1.800
PRIMET_226 2015-09-30 09:40:00 226 156.7 -3.50 193 0.007 0.007 198.000 0.084 8.710 9.040 0.570 1.4 9.44 9.850 10.350 10.750 95.200 89.200 0.007 9.72 10.190 10.800 11.070 9.29 9.700 10.110 10.530 9.140 9.140 8.410 8.950 11.826 11.257 0.568 12.910 11.511 1.394
PRIMET_226 2015-09-30 09:35:00 226 156.7 -1.00 209 0.007 0.007 198.000 0.084 8.280 8.870 0.764 1.5 9.28 9.770 10.270 10.690 93.500 88.500 0.007 9.30 9.890 10.450 10.830 9.26 9.700 10.140 10.530 8.370 8.920 8.240 8.830 11.699 10.933 0.760 12.858 11.379 1.479
PRIMET_226 2015-09-30 09:30:00 226 156.7 -1.00 197 0.007 0.007 198.000 0.093 8.160 9.000 0.864 1.5 9.29 10.130 10.690 10.880 92.600 88.200 0.007 9.32 10.350 10.880 10.940 9.27 9.900 10.470 10.810 8.250 9.040 8.040 8.950 11.707 10.844 0.866 13.022 11.480 1.537
PRIMET_226 2015-09-30 09:25:00 226 156.7 0.50 202 0.007 0.007 198.000 0.079 8.060 8.990 0.932 1.3 9.28 10.340 10.860 10.570 92.000 89.900 0.007 9.35 10.410 10.950 10.780 9.12 10.140 10.650 10.350 8.110 9.030 8.010 8.960 11.699 10.771 0.936 12.756 11.472 1.288
PRIMET_226 2015-09-30 09:20:00 226 156.7 1.50 200 0.007 0.007 198.000 0.088 8.170 8.840 0.355 1.0 8.64 9.580 10.270 10.030 96.900 92.300 0.007 9.08 10.080 10.620 10.300 8.13 8.930 9.760 9.700 8.280 8.940 7.908 8.760 11.204 10.852 0.347 12.303 11.356 0.947
PRIMET_226 2015-09-30 09:15:00 226 156.7 7.50 199 0.007 0.007 198.000 0.074 7.389 8.540 0.193 0.6 7.66 8.340 9.160 9.280 98.200 95.100 0.007 8.08 8.870 9.690 9.640 7.39 7.942 8.690 8.940 7.851 8.700 7.095 8.430 10.483 10.289 0.189 11.699 11.128 0.573
PRIMET_226 2015-09-30 09:10:00 226 156.7 13.50 190 0.007 0.007 199.100 2.292 6.960 8.250 0.200 0.2 7.25 7.680 8.190 8.470 98.000 98.500 0.007 7.37 7.911 8.630 8.900 7.12 7.503 7.897 8.120 7.082 8.430 6.832 8.070 10.191 9.990 0.204 11.075 10.911 0.166
PRIMET_226 2015-09-30 09:05:00 226 156.7 17.50 204 0.007 0.007 204.500 0.084 6.828 7.879 0.150 0.0 7.05 7.428 7.828 7.896 98.500 99.900 0.007 7.12 7.493 7.880 8.100 6.99 7.379 7.782 7.801 6.866 8.100 6.808 7.720 10.050 9.900 0.151 10.651 10.639 0.011
PRIMET_226 2015-09-30 09:00:00 226 156.7 21.50 201 0.007 0.007 204.500 0.084 6.872 7.501 0.028 0.1 6.91 7.382 7.888 7.607 99.700 99.300 0.007 6.98 7.436 7.930 7.777 6.86 7.348 7.820 7.517 6.890 7.777 6.857 7.274 9.958 9.930 0.030 10.443 10.368 0.073
PRIMET_226 2015-09-30 08:55:00 226 156.7 24.00 202 0.007 0.007 210.900 3.680 6.734 7.376 0.000 0.1 6.73 7.295 7.907 7.528 100.000 99.000 0.007 6.86 7.364 7.984 7.580 6.52 7.120 7.736 7.400 6.860 7.517 6.520 7.256 9.836 9.836 0.000 10.387 10.280 0.104
PRIMET_226 2015-09-30 08:50:00 226 156.7 27.00 214 0.007 0.007 213.100 0.040 6.340 7.013 0.000 0.0 6.34 6.837 7.256 7.013 100.000 100.000 0.007 6.50 7.097 7.702 7.374 6.07 6.568 6.807 6.620 6.497 7.374 6.070 6.620 9.573 9.573 0.000 10.027 10.027 0.000
PRIMET_226 2015-09-30 08:45:00 226 156.7 29.50 228 0.007 0.007 213.200 0.056 5.796 6.239 0.000 0.0 5.80 6.158 6.404 6.239 100.000 100.000 0.007 6.01 6.511 6.760 6.597 5.62 5.863 6.081 5.884 6.007 6.597 5.618 5.884 9.219 9.219 0.000 9.506 9.506 0.000
PRIMET_226 2015-09-30 08:40:00 226 156.7 31.00 216 0.007 0.006 215.200 5.790 5.513 5.761 0.007 0.0 5.52 5.744 5.969 5.761 99.900 100.000 0.007 5.61 5.845 6.060 5.867 5.43 5.646 5.869 5.661 5.611 5.867 5.407 5.661 9.047 9.040 0.009 9.197 9.197 0.000
PRIMET_226 2015-09-30 08:35:00 226 156.7 31.50 243 0.007 0.007 235.300 0.553 5.315 5.559 0.019 0.0 5.35 5.532 5.760 5.559 99.800 100.000 0.007 5.42 5.638 5.861 5.644 5.28 5.426 5.641 5.467 5.403 5.644 5.243 5.467 8.936 8.916 0.018 9.069 9.069 0.000
PRIMET_226 2015-09-30 08:30:00 226 156.7 31.50 289 0.007 0.007 236.200 0.280 5.188 5.387 0.028 0.0 5.23 5.340 5.536 5.387 99.700 100.000 0.007 5.28 5.418 5.633 5.450 5.20 5.278 5.462 5.324 5.241 5.450 5.147 5.324 8.866 8.838 0.027 8.961 8.961 0.000
PRIMET_226 2015-09-30 08:25:00 226 156.7 31.50 288 0.007 0.007 236.400 0.048 5.128 5.329 0.033 0.0 5.18 5.262 5.448 5.329 99.600 100.000 0.007 5.19 5.279 5.465 5.340 5.16 5.252 5.433 5.317 5.143 5.340 5.107 5.317 8.833 8.801 0.035 8.925 8.925 0.000
PRIMET_226 2015-09-30 08:20:00 226 156.7 33.00 246 0.007 0.007 236.400 0.040 5.130 5.311 0.032 0.0 5.18 5.294 5.472 5.311 99.600 100.000 0.007 5.20 5.313 5.481 5.324 5.17 5.274 5.462 5.295 5.153 5.324 5.117 5.295 8.834 8.802 0.035 8.914 8.914 0.000
PRIMET_226 2015-09-30 08:15:00 226 156.7 33.00 271 0.007 0.007 236.400 0.040 5.141 5.290 0.028 0.0 5.19 5.298 5.465 5.290 99.700 100.000 0.007 5.20 5.305 5.473 5.314 5.18 5.291 5.450 5.272 5.153 5.314 5.134 5.272 8.837 8.809 0.027 8.901 8.901 0.000
PRIMET_226 2015-09-30 08:10:00 226 156.7 35.50 308 0.007 0.007 236.400 0.040 5.188 5.267 0.020 0.0 5.22 5.297 5.438 5.267 99.800 100.000 0.007 5.26 5.305 5.450 5.282 5.18 5.285 5.421 5.252 5.230 5.282 5.140 5.252 8.858 8.838 0.018 8.887 8.887 0.000
PRIMET_226 2015-09-30 08:05:00 226 156.7 35.50 270 0.007 0.007 236.400 0.048 5.196 5.241 0.017 0.0 5.22 5.298 5.436 5.241 99.800 100.000 0.007 5.25 5.315 5.444 5.259 5.20 5.279 5.421 5.212 5.223 5.259 5.170 5.212 8.859 8.843 0.018 8.870 8.870 0.000
PRIMET_226 2015-09-30 08:00:00 226 156.7 36.00 329 0.007 0.007 236.400 0.040 5.145 5.208 0.015 0.0 5.17 5.253 5.398 5.208 99.800 100.000 0.007 5.20 5.277 5.426 5.228 5.14 5.228 5.360 5.185 5.172 5.228 5.116 5.185 8.827 8.811 0.018 8.850 8.850 0.000
PRIMET_226 2015-09-30 07:55:00 226 156.7 35.50 285 0.007 0.007 236.400 0.040 5.105 5.160 0.013 0.0 5.13 5.191 5.322 5.160 99.900 100.000 0.007 5.15 5.220 5.357 5.188 5.10 5.162 5.297 5.142 5.127 5.188 5.078 5.142 8.800 8.787 0.009 8.821 8.821 0.000
PRIMET_226 2015-09-30 07:50:00 226 156.7 35.50 353 0.007 0.007 236.400 0.040 5.077 5.122 0.011 0.0 5.10 5.145 5.289 5.122 99.900 100.000 0.007 5.11 5.162 5.305 5.152 5.08 5.131 5.266 5.095 5.096 5.152 5.061 5.095 8.781 8.770 0.009 8.797 8.797 0.000
PRIMET_226 2015-09-30 07:45:00 226 156.7 36.50 320 0.007 0.007 236.400 0.040 5.038 5.083 0.010 0.0 5.05 5.112 5.249 5.083 99.900 100.000 0.007 5.08 5.131 5.276 5.105 5.03 5.082 5.221 5.065 5.067 5.105 5.012 5.065 8.756 8.746 0.009 8.773 8.773 0.000
PRIMET_226 2015-09-30 07:40:00 226 156.7 33.00 354 0.007 0.007 236.400 0.048 5.007 5.066 0.009 0.0 5.02 5.074 5.221 5.066 99.900 100.000 0.007 5.05 5.090 5.229 5.079 5.01 5.050 5.200 5.042 5.029 5.079 4.993 5.042 8.736 8.727 0.009 8.763 8.763 0.000
PRIMET_226 2015-09-30 07:35:00 226 156.7 27.50 302 0.007 0.007 236.400 0.040 4.991 5.019 0.009 0.0 5.01 5.049 5.179 5.019 99.900 100.000 0.007 5.02 5.069 5.203 5.038 4.99 5.038 5.167 5.001 5.004 5.038 4.975 5.001 8.727 8.717 0.009 8.734 8.734 0.000
PRIMET_226 2015-09-30 07:30:00 226 156.7 28.50 282 0.007 0.007 236.400 0.040 4.948 4.991 0.012 0.0 4.97 5.007 5.140 4.991 99.900 100.000 0.007 4.99 5.043 5.170 5.008 4.93 4.976 5.115 4.968 4.977 5.008 4.913 4.968 8.703 8.691 0.009 8.717 8.717 0.000
PRIMET_226 2015-09-30 07:25:00 226 156.7 33.00 331 0.007 0.007 236.400 0.040 4.889 4.943 0.013 0.0 4.91 4.930 5.067 4.943 99.800 100.000 0.007 4.94 4.968 5.103 4.965 4.88 4.912 5.040 4.911 4.920 4.965 4.860 4.911 8.669 8.655 0.017 8.688 8.688 0.000
PRIMET_226 2015-09-30 07:20:00 226 156.7 28.50 278 0.007 0.007 236.400 0.048 4.867 4.920 0.014 0.0 4.89 4.904 5.037 4.920 99.800 100.000 0.007 4.90 4.922 5.047 4.937 4.88 4.889 5.025 4.910 4.874 4.937 4.859 4.910 8.656 8.642 0.017 8.674 8.674 0.000
PRIMET_226 2015-09-30 07:15:00 226 156.7 28.50 363 0.007 0.007 236.400 0.040 4.856 4.913 0.015 0.0 4.88 4.900 5.045 4.913 99.800 100.000 0.007 4.90 4.925 5.059 4.921 4.86 4.866 5.034 4.901 4.877 4.921 4.839 4.901 8.650 8.635 0.017 8.670 8.670 0.000
PRIMET_226 2015-09-30 07:10:00 226 156.7 26.50 256 0.007 0.007 236.400 0.040 4.838 4.891 0.016 0.0 4.86 4.851 5.015 4.891 99.800 100.000 0.007 4.88 4.874 5.031 4.908 4.84 4.835 4.994 4.871 4.852 4.908 4.817 4.871 8.640 8.625 0.017 8.657 8.657 0.000
PRIMET_226 2015-09-30 07:05:00 226 156.7 26.50 364 0.007 0.007 236.400 0.040 4.830 4.863 0.016 0.0 4.86 4.855 4.992 4.863 99.800 100.000 0.007 4.87 4.878 5.009 4.878 4.85 4.831 4.966 4.854 4.841 4.878 4.820 4.854 8.637 8.620 0.017 8.640 8.640 0.000
PRIMET_226 2015-09-30 07:00:00 226 156.7 23.50 297 0.007 0.007 236.400 0.040 4.821 4.872 0.016 0.0 4.85 4.857 5.000 4.872 99.800 100.000 0.007 4.86 4.870 5.010 4.894 4.84 4.844 4.989 4.854 4.831 4.894 4.810 4.854 8.631 8.614 0.017 8.645 8.645 0.000
PRIMET_226 2015-09-30 06:55:00 226 156.7 21.50 350 0.007 0.007 236.400 0.048 4.817 4.882 0.017 0.0 4.84 4.865 5.013 4.882 99.800 100.000 0.007 4.87 4.892 5.026 4.893 4.83 4.844 4.994 4.873 4.840 4.893 4.805 4.873 8.629 8.612 0.017 8.651 8.651 0.000
PRIMET_226 2015-09-30 06:50:00 226 156.7 21.50 337 0.007 0.007 236.400 0.048 4.803 4.887 0.019 0.0 4.83 4.875 5.019 4.887 99.800 100.000 0.007 4.85 4.884 5.028 4.896 4.81 4.869 5.011 4.879 4.815 4.896 4.779 4.879 8.622 8.603 0.017 8.654 8.654 0.000
PRIMET_226 2015-09-30 06:45:00 226 156.7 20.00 261 0.007 0.007 236.400 0.048 4.790 4.876 0.021 0.0 4.82 4.859 4.999 4.876 99.800 100.000 0.007 4.85 4.870 5.024 4.896 4.81 4.846 4.975 4.856 4.821 4.896 4.770 4.856 8.616 8.596 0.017 8.647 8.647 0.000
PRIMET_226 2015-09-30 06:40:00 226 156.7 17.00 242 0.007 0.007 236.400 0.048 4.763 4.831 0.024 0.0 4.80 4.842 4.963 4.831 99.700 100.000 0.007 4.82 4.849 4.980 4.863 4.79 4.827 4.945 4.799 4.777 4.863 4.745 4.799 8.603 8.579 0.026 8.620 8.620 0.000
PRIMET_226 2015-09-30 06:35:00 226 156.7 13.00 291 0.007 0.007 236.400 0.028 4.745 4.806 0.027 0.0 4.79 4.815 4.937 4.806 99.700 100.000 0.007 4.80 4.829 4.953 4.826 4.78 4.803 4.922 4.789 4.755 4.826 4.736 4.789 8.596 8.569 0.026 8.605 8.605 0.000
PRIMET_226 2015-09-30 06:30:00 226 156.7 10.50 316 0.007 0.007 236.400 0.048 4.734 4.812 0.032 0.0 4.79 4.813 4.937 4.812 99.600 100.000 0.007 4.81 4.824 4.948 4.822 4.77 4.803 4.930 4.799 4.759 4.822 4.709 4.799 8.594 8.562 0.034 8.609 8.609 0.000
PRIMET_226 2015-09-30 06:25:00 226 156.7 10.00 258 0.007 0.007 236.400 0.048 4.687 4.826 0.040 0.0 4.75 4.798 4.949 4.826 99.500 100.000 0.007 4.78 4.807 4.957 4.836 4.74 4.781 4.932 4.816 4.717 4.836 4.668 4.816 8.573 8.534 0.043 8.617 8.617 0.000
PRIMET_226 2015-09-30 06:20:00 226 156.7 9.00 233 0.007 0.007 236.400 0.040 4.658 4.848 0.045 0.0 4.73 4.777 4.950 4.848 99.500 100.000 0.007 4.75 4.792 4.964 4.872 4.72 4.768 4.936 4.829 4.672 4.872 4.646 4.829 8.561 8.517 0.043 8.631 8.631 0.000
PRIMET_226 2015-09-30 06:15:00 226 156.7 6.00 241 0.007 0.007 236.400 0.048 4.711 4.872 0.045 0.0 4.79 4.787 4.964 4.872 99.500 100.000 0.007 4.82 4.810 4.978 4.892 4.74 4.766 4.953 4.849 4.744 4.892 4.659 4.849 8.594 8.548 0.043 8.645 8.645 0.000
PRIMET_226 2015-09-30 06:10:00 226 156.7 3.00 217 0.007 0.007 236.400 0.063 4.746 4.891 0.049 0.0 4.83 4.844 4.988 4.891 99.400 100.000 0.007 4.84 4.874 5.011 4.919 4.81 4.812 4.975 4.872 4.761 4.919 4.729 4.872 8.618 8.569 0.052 8.657 8.657 0.000
PRIMET_226 2015-09-30 06:05:00 226 156.7 2.00 209 0.007 0.007 236.400 0.028 4.755 4.925 0.056 0.0 4.85 4.875 5.020 4.925 99.400 100.000 0.007 4.86 4.889 5.034 4.956 4.83 4.864 5.006 4.896 4.766 4.956 4.738 4.896 8.631 8.575 0.052 8.677 8.677 0.000
PRIMET_226 2015-09-30 06:00:00 226 156.7 1.50 218 0.007 0.007 236.400 0.028 4.737 4.967 0.064 0.0 4.84 4.894 5.044 4.967 99.300 100.000 0.007 4.86 4.899 5.058 4.992 4.83 4.884 5.026 4.949 4.761 4.992 4.719 4.949 8.628 8.564 0.060 8.703 8.703 0.000
PRIMET_226 2015-09-30 05:55:00 226 156.7 1.00 259 0.007 0.007 236.400 0.040 4.801 4.992 0.061 0.0 4.90 4.913 5.062 4.992 99.300 100.000 0.007 4.96 4.946 5.088 5.012 4.84 4.885 5.038 4.972 4.860 5.012 4.735 4.972 8.663 8.602 0.061 8.718 8.718 0.000
PRIMET_226 2015-09-30 05:50:00 226 156.7 0.50 225 0.007 0.007 236.400 0.028 4.882 5.022 0.060 0.0 4.98 4.965 5.099 5.022 99.300 100.000 0.007 5.00 4.982 5.114 5.042 4.96 4.938 5.077 4.992 4.905 5.042 4.857 4.992 8.710 8.651 0.061 8.736 8.736 0.000
PRIMET_226 2015-09-30 05:45:00 226 156.7 0.00 198 0.007 0.007 236.400 0.056 4.912 5.059 0.062 0.0 5.01 5.022 5.161 5.059 99.300 100.000 0.007 5.04 5.049 5.186 5.082 4.99 4.985 5.119 5.039 4.935 5.082 4.893 5.039 8.731 8.669 0.061 8.759 8.759 0.000
PRIMET_226 2015-09-30 05:40:00 226 156.7 -0.50 193 0.007 0.007 236.400 0.048 4.929 5.100 0.066 0.0 5.04 5.063 5.202 5.100 99.200 100.000 0.007 5.05 5.077 5.227 5.138 5.01 5.048 5.177 5.079 4.939 5.138 4.906 5.079 8.746 8.680 0.070 8.784 8.784 0.000
PRIMET_226 2015-09-30 05:35:00 226 156.7 -0.50 204 0.007 0.007 236.400 0.028 4.953 5.137 0.067 0.0 5.06 5.091 5.252 5.137 99.200 100.000 0.007 5.09 5.114 5.264 5.149 5.05 5.073 5.227 5.129 4.973 5.149 4.934 5.129 8.762 8.694 0.070 8.806 8.806 0.000
PRIMET_226 2015-09-30 05:30:00 226 156.7 -2.00 197 0.007 0.007 236.400 0.000 4.987 5.164 0.068 0.0 5.10 5.128 5.280 5.164 99.200 100.000 0.007 5.11 5.151 5.304 5.185 5.08 5.112 5.262 5.139 5.001 5.185 4.972 5.139 8.783 8.715 0.070 8.823 8.823 0.000
PRIMET_226 2015-09-30 05:25:00 226 156.7 -2.50 198 0.007 0.007 236.400 0.000 5.036 5.191 0.065 0.0 5.14 5.182 5.315 5.191 99.300 100.000 0.007 5.17 5.218 5.342 5.208 5.11 5.149 5.293 5.171 5.063 5.208 4.997 5.171 8.809 8.745 0.062 8.840 8.840 0.000
PRIMET_226 2015-09-30 05:20:00 226 156.7 -2.50 195 0.007 0.007 236.400 0.000 5.059 5.217 0.067 0.0 5.17 5.219 5.351 5.217 99.200 100.000 0.007 5.18 5.226 5.361 5.230 5.15 5.213 5.339 5.205 5.076 5.230 5.046 5.205 8.825 8.759 0.071 8.856 8.856 0.000
PRIMET_226 2015-09-30 05:15:00 226 156.7 -2.50 197 0.007 0.007 236.400 0.000 5.052 5.235 0.071 0.0 5.17 5.215 5.361 5.235 99.200 100.000 0.007 5.19 5.231 5.376 5.250 5.16 5.202 5.341 5.214 5.069 5.250 5.041 5.214 8.825 8.754 0.071 8.867 8.867 0.000
PRIMET_226 2015-09-30 05:10:00 226 156.7 -2.50 200 0.007 0.007 236.400 0.000 5.061 5.237 0.077 0.0 5.19 5.214 5.354 5.237 99.100 100.000 0.007 5.20 5.233 5.370 5.249 5.17 5.199 5.339 5.226 5.078 5.249 5.044 5.226 8.837 8.760 0.080 8.868 8.868 0.000
PRIMET_226 2015-09-30 05:05:00 226 156.7 -4.00 192 0.007 0.007 236.400 0.028 5.074 5.262 0.081 0.0 5.21 5.225 5.382 5.262 99.100 100.000 0.007 5.24 5.254 5.398 5.283 5.18 5.207 5.362 5.242 5.104 5.283 5.051 5.242 8.849 8.768 0.080 8.883 8.883 0.000
PRIMET_226 2015-09-30 05:00:00 226 156.7 -4.50 199 0.007 0.007 236.400 0.056 5.097 5.289 0.086 0.0 5.24 5.260 5.396 5.289 99.000 100.000 0.007 5.26 5.274 5.406 5.306 5.23 5.251 5.388 5.272 5.117 5.306 5.087 5.272 8.868 8.782 0.089 8.900 8.900 0.000
PRIMET_226 2015-09-30 04:55:00 226 156.7 -4.50 186 0.007 0.007 236.300 0.040 5.109 5.305 0.090 0.0 5.26 5.274 5.406 5.305 99.000 100.000 0.007 5.29 5.287 5.421 5.326 5.23 5.261 5.395 5.282 5.147 5.326 5.087 5.282 8.880 8.789 0.089 8.910 8.910 0.000
PRIMET_226 2015-09-30 04:50:00 226 156.7 -3.50 184 0.007 0.007 236.400 0.202 5.158 5.354 0.091 0.0 5.30 5.315 5.454 5.354 99.000 100.000 0.007 5.33 5.330 5.467 5.382 5.29 5.289 5.431 5.329 5.179 5.382 5.144 5.329 8.910 8.819 0.089 8.941 8.941 0.000
PRIMET_226 2015-09-30 04:45:00 226 156.7 -3.50 187 0.007 0.007 240.900 1.692 5.186 5.394 0.095 0.0 5.34 5.335 5.471 5.394 98.900 100.000 0.007 5.36 5.365 5.507 5.416 5.32 5.311 5.446 5.369 5.197 5.416 5.168 5.369 8.931 8.837 0.098 8.965 8.965 0.000
PRIMET_226 2015-09-30 04:40:00 226 156.7 -3.50 193 0.007 0.007 242.400 0.079 5.199 5.430 0.100 0.0 5.36 5.362 5.516 5.430 98.900 100.000 0.007 5.38 5.371 5.536 5.452 5.33 5.357 5.502 5.409 5.213 5.452 5.176 5.409 8.944 8.845 0.098 8.988 8.988 0.000
PRIMET_226 2015-09-30 04:35:00 226 156.7 -3.50 184 0.007 0.007 242.400 0.069 5.232 5.445 0.101 0.0 5.40 5.384 5.536 5.445 98.900 100.000 0.007 5.43 5.402 5.544 5.466 5.36 5.374 5.525 5.429 5.267 5.466 5.197 5.429 8.967 8.865 0.099 8.997 8.997 0.000
PRIMET_226 2015-09-30 04:30:00 226 156.7 -3.00 197 0.007 0.007 242.400 0.074 5.272 5.466 0.103 0.0 5.44 5.411 5.552 5.466 98.900 100.000 0.007 5.46 5.428 5.562 5.482 5.41 5.394 5.536 5.442 5.286 5.482 5.249 5.442 8.992 8.890 0.099 9.010 9.010 0.000
PRIMET_226 2015-09-30 04:25:00 226 156.7 -3.50 197 0.007 0.007 242.400 0.074 5.262 5.468 0.112 0.0 5.44 5.381 5.524 5.468 98.700 100.000 0.007 5.47 5.420 5.555 5.489 5.42 5.358 5.502 5.446 5.285 5.489 5.239 5.446 8.996 8.883 0.117 9.012 9.012 0.000
PRIMET_226 2015-09-30 04:20:00 226 156.7 -4.50 187 0.007 0.007 242.400 0.074 5.308 5.509 0.112 0.0 5.49 5.429 5.586 5.509 98.800 100.000 0.007 5.51 5.472 5.615 5.529 5.45 5.393 5.538 5.482 5.337 5.529 5.268 5.482 9.024 8.912 0.108 9.037 9.037 0.000
PRIMET_226 2015-09-30 04:15:00 226 156.7 -5.00 198 0.007 0.007 242.400 0.074 5.350 5.539 0.115 0.0 5.53 5.501 5.634 5.539 98.700 100.000 0.007 5.55 5.511 5.646 5.558 5.52 5.478 5.615 5.522 5.363 5.558 5.334 5.522 9.053 8.938 0.118 9.056 9.056 0.000
PRIMET_226 2015-09-30 04:10:00 226 156.7 -5.00 191 0.007 0.007 242.400 0.069 5.369 5.569 0.120 0.0 5.56 5.524 5.660 5.569 98.700 100.000 0.007 5.59 5.554 5.681 5.582 5.53 5.506 5.641 5.552 5.393 5.582 5.345 5.552 9.070 8.950 0.118 9.075 9.075 0.000
PRIMET_226 2015-09-30 04:05:00 226 156.7 -5.50 187 0.007 0.007 242.400 0.074 5.388 5.601 0.126 0.0 5.59 5.556 5.699 5.601 98.600 100.000 0.007 5.60 5.566 5.709 5.621 5.57 5.545 5.684 5.581 5.400 5.621 5.374 5.581 9.088 8.962 0.127 9.095 9.095 0.000
PRIMET_226 2015-09-30 04:00:00 226 156.7 -6.00 193 0.007 0.007 242.400 0.074 5.402 5.638 0.136 0.0 5.62 5.569 5.720 5.638 98.500 100.000 0.007 5.63 5.586 5.732 5.650 5.60 5.550 5.703 5.627 5.414 5.650 5.389 5.627 9.106 8.970 0.137 9.119 9.119 0.000
PRIMET_226 2015-09-30 03:55:00 226 156.7 -6.00 195 0.007 0.007 242.400 0.074 5.426 5.694 0.144 0.0 5.65 5.611 5.754 5.694 98.400 100.000 0.007 5.68 5.653 5.801 5.723 5.63 5.563 5.708 5.657 5.450 5.723 5.401 5.657 9.129 8.985 0.146 9.154 9.154 0.000
PRIMET_226 2015-09-30 03:50:00 226 156.7 -6.50 184 0.007 0.007 242.400 0.074 5.455 5.730 0.150 0.0 5.69 5.668 5.802 5.730 98.400 100.000 0.007 5.72 5.691 5.813 5.752 5.67 5.643 5.793 5.703 5.489 5.752 5.437 5.703 9.153 9.004 0.146 9.177 9.177 0.000
PRIMET_226 2015-09-30 03:45:00 226 156.7 -7.00 187 0.007 0.007 242.400 0.074 5.500 5.776 0.155 0.0 5.74 5.732 5.861 5.776 98.300 100.000 0.007 5.76 5.763 5.898 5.809 5.72 5.696 5.818 5.749 5.513 5.809 5.482 5.749 9.187 9.032 0.156 9.207 9.207 0.000
PRIMET_226 2015-09-30 03:40:00 226 156.7 -7.00 197 0.007 0.007 242.400 0.074 5.529 5.820 0.163 0.0 5.79 5.785 5.923 5.820 98.200 100.000 0.007 5.82 5.801 5.938 5.839 5.76 5.766 5.895 5.805 5.559 5.839 5.504 5.805 9.213 9.050 0.166 9.235 9.235 0.000
PRIMET_226 2015-09-30 03:35:00 226 156.7 -7.00 197 0.007 0.007 242.400 0.074 5.560 5.832 0.171 0.0 5.83 5.813 5.918 5.832 98.100 100.000 0.007 5.85 5.845 5.943 5.855 5.81 5.796 5.902 5.815 5.574 5.855 5.549 5.815 9.240 9.070 0.176 9.242 9.242 0.000
PRIMET_226 2015-09-30 03:30:00 226 156.7 -7.00 188 0.007 0.007 242.400 0.079 5.594 5.855 0.174 0.0 5.87 5.859 5.952 5.855 98.100 100.000 0.007 5.89 5.883 5.971 5.889 5.84 5.838 5.936 5.835 5.614 5.889 5.563 5.835 9.265 9.091 0.176 9.257 9.257 0.000
PRIMET_226 2015-09-30 03:25:00 226 156.7 -7.00 195 0.007 0.007 242.400 0.069 5.627 5.909 0.176 0.0 5.90 5.892 5.990 5.909 98.100 100.000 0.007 5.92 5.916 6.033 5.942 5.88 5.878 5.966 5.872 5.648 5.942 5.603 5.872 9.287 9.112 0.176 9.292 9.292 0.000
PRIMET_226 2015-09-30 03:20:00 226 156.7 -7.00 193 0.007 0.007 242.400 0.079 5.656 5.961 0.176 0.0 5.93 5.935 6.069 5.961 98.100 100.000 0.007 5.96 5.949 6.084 5.979 5.91 5.916 6.032 5.939 5.679 5.979 5.633 5.939 9.307 9.130 0.177 9.325 9.325 0.000
PRIMET_226 2015-09-30 03:15:00 226 156.7 -7.00 193 0.007 0.007 242.400 0.079 5.672 6.000 0.185 0.0 5.96 5.949 6.075 6.000 98.000 100.000 0.007 5.98 5.956 6.085 6.015 5.95 5.936 6.067 5.985 5.685 6.015 5.656 5.985 9.326 9.140 0.187 9.351 9.351 0.000
PRIMET_226 2015-09-30 03:10:00 226 156.7 -7.00 197 0.007 0.007 242.400 0.074 5.696 6.035 0.195 0.0 6.00 5.971 6.103 6.035 97.900 100.000 0.007 6.02 5.990 6.117 6.052 5.98 5.956 6.086 6.012 5.712 6.052 5.679 6.012 9.351 9.156 0.196 9.373 9.373 0.000
PRIMET_226 2015-09-30 03:05:00 226 156.7 -7.00 203 0.007 0.007 242.400 0.074 5.725 6.068 0.204 0.0 6.04 5.992 6.114 6.068 97.800 100.000 0.007 6.07 6.015 6.134 6.095 6.01 5.974 6.098 6.045 5.747 6.095 5.702 6.045 9.378 9.174 0.206 9.395 9.395 0.000
PRIMET_226 2015-09-30 03:00:00 226 156.7 -7.00 197 0.007 0.007 242.400 0.063 5.763 6.115 0.210 0.0 6.09 6.073 6.188 6.115 97.800 100.000 0.007 6.11 6.105 6.214 6.142 6.07 6.026 6.140 6.082 5.775 6.142 5.746 6.082 9.409 9.198 0.207 9.425 9.425 0.000
PRIMET_226 2015-09-30 02:55:00 226 156.7 -7.00 195 0.007 0.007 242.400 0.074 5.791 6.166 0.218 0.0 6.13 6.131 6.248 6.166 97.700 100.000 0.007 6.15 6.164 6.293 6.208 6.11 6.112 6.216 6.138 5.806 6.208 5.776 6.138 9.434 9.216 0.217 9.459 9.459 0.000
PRIMET_226 2015-09-30 02:50:00 226 156.7 -7.00 196 0.007 0.007 242.400 0.079 5.826 6.220 0.229 0.0 6.18 6.183 6.309 6.220 97.600 100.000 0.007 6.21 6.205 6.337 6.247 6.15 6.156 6.293 6.191 5.843 6.247 5.807 6.191 9.468 9.239 0.227 9.494 9.494 0.000
PRIMET_226 2015-09-30 02:45:00 226 156.7 -7.00 195 0.007 0.007 242.400 0.079 5.872 6.276 0.234 0.0 6.23 6.257 6.390 6.276 97.500 100.000 0.007 6.26 6.296 6.423 6.296 6.20 6.218 6.343 6.250 5.902 6.296 5.838 6.250 9.502 9.268 0.238 9.531 9.531 0.000
PRIMET_226 2015-09-30 02:40:00 226 156.7 -7.00 188 0.007 0.007 242.400 0.079 5.907 6.316 0.230 0.0 6.26 6.286 6.431 6.316 97.600 100.000 0.007 6.27 6.295 6.446 6.352 6.24 6.272 6.417 6.299 5.916 6.352 5.893 6.299 9.521 9.291 0.229 9.557 9.557 0.000
PRIMET_226 2015-09-30 02:35:00 226 156.7 -7.00 197 0.007 0.007 242.400 0.069 5.915 6.363 0.243 0.0 6.29 6.309 6.464 6.363 97.500 100.000 0.007 6.32 6.326 6.487 6.378 6.26 6.285 6.446 6.342 5.937 6.378 5.898 6.342 9.539 9.296 0.238 9.588 9.588 0.000
PRIMET_226 2015-09-30 02:30:00 226 156.7 -7.00 197 0.007 0.007 242.400 0.079 5.962 6.400 0.244 0.0 6.34 6.360 6.512 6.400 97.500 100.000 0.007 6.36 6.376 6.535 6.425 6.31 6.328 6.477 6.375 5.978 6.425 5.937 6.375 9.570 9.326 0.239 9.613 9.613 0.000
PRIMET_226 2015-09-30 02:25:00 226 156.7 -7.00 193 0.007 0.007 242.400 0.069 5.978 6.450 0.257 0.0 6.37 6.394 6.542 6.450 97.300 100.000 0.007 6.39 6.425 6.558 6.482 6.34 6.368 6.526 6.415 6.004 6.482 5.957 6.415 9.593 9.336 0.259 9.646 9.646 0.000
PRIMET_226 2015-09-30 02:20:00 226 156.7 -6.50 197 0.007 0.007 242.400 0.069 5.973 6.509 0.276 0.0 6.39 6.437 6.566 6.509 97.100 100.000 0.007 6.41 6.453 6.588 6.548 6.38 6.425 6.553 6.475 6.000 6.548 5.931 6.475 9.609 9.333 0.279 9.685 9.685 0.000
PRIMET_226 2015-09-30 02:15:00 226 156.7 -6.50 197 0.007 0.007 242.400 0.069 5.977 6.577 0.319 0.0 6.46 6.494 6.623 6.577 96.700 100.000 0.007 6.51 6.538 6.662 6.605 6.41 6.454 6.588 6.535 6.017 6.605 5.936 6.535 9.655 9.336 0.319 9.731 9.731 0.000
PRIMET_226 2015-09-30 02:10:00 226 156.7 -6.00 200 0.007 0.007 242.300 0.074 6.091 6.640 0.307 0.0 6.56 6.578 6.720 6.640 96.800 100.000 0.007 6.59 6.625 6.773 6.662 6.51 6.534 6.661 6.605 6.126 6.662 6.023 6.605 9.717 9.410 0.311 9.773 9.773 0.000
PRIMET_226 2015-09-30 02:05:00 226 156.7 -6.00 192 0.007 0.007 242.300 0.074 6.148 6.694 0.302 0.0 6.60 6.651 6.813 6.694 96.900 100.000 0.007 6.63 6.675 6.839 6.718 6.58 6.627 6.783 6.668 6.163 6.718 6.121 6.668 9.749 9.447 0.302 9.809 9.809 0.000
PRIMET_226 2015-09-30 02:00:00 226 156.7 -6.50 194 0.007 0.007 242.300 0.069 6.173 6.720 0.316 0.0 6.65 6.700 6.849 6.720 96.800 100.000 0.007 6.68 6.718 6.869 6.732 6.62 6.683 6.825 6.708 6.204 6.732 6.150 6.708 9.779 9.463 0.313 9.827 9.827 0.000
PRIMET_226 2015-09-30 01:55:00 226 156.7 -6.00 198 0.007 0.007 242.300 0.074 6.215 6.757 0.318 0.0 6.69 6.722 6.855 6.757 96.800 100.000 0.007 6.71 6.762 6.897 6.794 6.67 6.695 6.824 6.721 6.227 6.794 6.196 6.721 9.809 9.491 0.314 9.852 9.852 0.000
PRIMET_226 2015-09-30 01:50:00 226 156.7 -6.00 188 0.007 0.007 242.400 0.069 6.225 6.810 0.335 0.0 6.73 6.783 6.926 6.810 96.600 100.000 0.007 6.76 6.811 6.943 6.837 6.71 6.751 6.900 6.801 6.242 6.837 6.207 6.801 9.832 9.497 0.334 9.888 9.888 0.000
PRIMET_226 2015-09-30 01:45:00 226 156.7 -6.50 197 0.007 0.007 242.400 0.069 6.281 6.862 0.346 0.0 6.80 6.837 6.978 6.862 96.500 100.000 0.007 6.84 6.867 7.013 6.906 6.75 6.804 6.931 6.813 6.312 6.906 6.233 6.813 9.880 9.534 0.346 9.923 9.923 0.000
PRIMET_226 2015-09-30 01:40:00 226 156.7 -7.00 200 0.007 0.007 242.400 0.069 6.332 6.918 0.352 0.0 6.86 6.894 7.034 6.918 96.500 100.000 0.007 6.88 6.910 7.061 6.941 6.83 6.875 7.025 6.896 6.350 6.941 6.304 6.896 9.919 9.568 0.347 9.962 9.962 0.000
PRIMET_226 2015-09-30 01:35:00 226 156.7 -7.00 192 0.007 0.007 242.400 0.074 6.366 6.950 0.365 0.0 6.91 6.921 7.065 6.951 96.300 100.000 0.007 6.93 6.933 7.075 6.978 6.87 6.907 7.053 6.934 6.390 6.973 6.334 6.934 9.956 9.590 0.368 9.984 9.984 0.000
PRIMET_226 2015-09-30 01:30:00 226 156.7 -7.00 197 0.007 0.007 242.400 0.069 6.408 6.994 0.370 0.0 6.96 6.961 7.100 7.007 96.300 99.900 0.007 6.99 7.015 7.155 7.044 6.92 6.923 7.067 6.968 6.443 7.036 6.372 6.960 9.988 9.618 0.370 10.023 10.014 0.010
PRIMET_226 2015-09-30 01:25:00 226 156.7 -7.00 197 0.007 0.007 242.400 0.079 6.457 7.051 0.369 0.0 7.00 7.040 7.173 7.066 96.300 99.900 0.007 7.02 7.052 7.185 7.094 6.98 7.020 7.155 7.038 6.478 7.074 6.430 7.026 10.019 9.651 0.371 10.063 10.053 0.010
PRIMET_226 2015-09-30 01:20:00 226 156.7 -7.00 193 0.007 0.007 242.400 0.074 6.467 7.082 0.389 0.0 7.04 7.066 7.198 7.110 96.100 99.800 0.007 7.07 7.086 7.216 7.134 7.01 7.046 7.174 7.091 6.484 7.113 6.449 7.060 10.046 9.657 0.392 10.094 10.075 0.020
PRIMET_226 2015-09-30 01:15:00 226 156.7 -7.00 208 0.007 0.007 242.400 0.074 6.541 7.134 0.386 0.0 7.11 7.113 7.236 7.151 96.200 99.900 0.007 7.13 7.137 7.252 7.184 7.08 7.068 7.198 7.134 6.570 7.160 6.486 7.115 10.093 9.707 0.384 10.122 10.111 0.010
PRIMET_226 2015-09-30 01:10:00 226 156.7 -7.00 200 0.007 0.007 242.300 0.074 6.586 7.173 0.380 0.0 7.14 7.172 7.283 7.203 96.200 99.800 0.007 7.16 7.195 7.306 7.228 7.12 7.144 7.257 7.174 6.607 7.189 6.569 7.150 10.117 9.737 0.384 10.158 10.138 0.020
PRIMET_226 2015-09-30 01:05:00 226 156.7 -7.00 197 0.007 0.007 242.300 0.069 6.594 7.210 0.400 0.0 7.18 7.187 7.324 7.261 96.100 99.700 0.007 7.22 7.213 7.344 7.301 7.15 7.170 7.301 7.234 6.627 7.249 6.557 7.186 10.142 9.742 0.396 10.199 10.163 0.031
PRIMET_226 2015-09-30 01:00:00 226 156.7 -7.00 187 0.007 0.007 242.400 0.069 6.665 7.254 0.410 0.1 7.26 7.254 7.392 7.340 96.000 99.400 0.007 7.30 7.314 7.454 7.383 7.22 7.210 7.344 7.294 6.705 7.282 6.628 7.234 10.200 9.790 0.408 10.254 10.194 0.062
PRIMET_226 2015-09-30 00:55:00 226 156.7 -7.00 196 0.007 0.007 242.400 0.069 6.711 7.296 0.424 0.1 7.33 7.357 7.504 7.407 95.900 99.200 0.007 7.38 7.404 7.542 7.429 7.30 7.314 7.455 7.376 6.756 7.317 6.687 7.273 10.245 9.821 0.420 10.301 10.223 0.082
PRIMET_226 2015-09-30 00:50:00 226 156.7 -7.50 197 0.007 0.007 242.400 0.074 6.747 7.309 0.437 0.1 7.38 7.419 7.564 7.469 95.700 98.900 0.007 7.41 7.431 7.580 7.514 7.36 7.404 7.534 7.429 6.763 7.320 6.715 7.294 10.282 9.845 0.442 10.345 10.233 0.114
PRIMET_226 2015-09-30 00:45:00 226 156.7 -7.50 193 0.007 0.007 242.400 0.074 6.720 7.325 0.512 0.2 7.46 7.474 7.605 7.544 95.000 98.500 0.007 7.53 7.516 7.636 7.584 7.40 7.423 7.571 7.511 6.798 7.358 6.697 7.304 10.340 9.827 0.517 10.398 10.244 0.156
PRIMET_226 2015-09-30 00:40:00 226 156.7 -7.50 196 0.007 0.007 242.400 0.079 6.851 7.392 0.506 0.2 7.58 7.570 7.692 7.629 95.100 98.400 0.007 7.61 7.616 7.741 7.681 7.53 7.526 7.644 7.581 6.889 7.452 6.812 7.336 10.422 9.916 0.511 10.459 10.291 0.167
PRIMET_226 2015-09-30 00:35:00 226 156.7 -7.00 196 0.007 0.007 242.300 0.079 6.931 7.480 0.503 0.2 7.65 7.658 7.794 7.710 95.200 98.400 0.007 7.68 7.702 7.840 7.744 7.61 7.621 7.744 7.677 6.968 7.520 6.885 7.446 10.474 9.971 0.503 10.517 10.353 0.168
PRIMET_226 2015-09-30 00:30:00 226 156.7 -7.00 197 0.007 0.007 242.300 0.074 7.002 7.551 0.497 0.2 7.71 7.724 7.877 7.773 95.300 98.500 0.007 7.74 7.754 7.913 7.807 7.68 7.696 7.837 7.741 7.024 7.578 6.971 7.518 10.516 10.019 0.494 10.562 10.403 0.158
PRIMET_226 2015-09-30 00:25:00 226 156.7 -7.00 197 0.007 0.007 242.300 0.074 7.052 7.599 0.515 0.2 7.78 7.783 7.949 7.840 95.100 98.400 0.007 7.82 7.807 7.971 7.867 7.74 7.754 7.916 7.807 7.088 7.626 7.025 7.576 10.568 10.054 0.518 10.611 10.438 0.170
PRIMET_226 2015-09-30 00:20:00 226 156.7 -7.00 199 0.007 0.007 242.300 0.074 7.106 7.632 0.530 0.2 7.86 7.852 7.998 7.905 95.000 98.200 0.007 7.88 7.898 8.040 7.940 7.82 7.814 7.970 7.873 7.132 7.656 7.074 7.610 10.622 10.091 0.531 10.658 10.461 0.192
PRIMET_226 2015-09-30 00:15:00 226 156.7 -7.00 197 0.007 0.007 242.300 0.074 7.177 7.715 0.532 0.2 7.93 7.942 8.100 7.982 95.000 98.200 0.007 7.96 7.973 8.130 8.010 7.89 7.908 8.050 7.950 7.208 7.776 7.133 7.658 10.672 10.140 0.534 10.714 10.521 0.193
PRIMET_226 2015-09-30 00:10:00 226 156.7 -7.00 197 0.007 0.007 242.300 0.069 7.239 7.785 0.536 0.2 7.99 8.010 8.170 8.040 95.000 98.300 0.007 8.03 8.050 8.200 8.060 7.96 7.974 8.130 8.010 7.287 7.818 7.206 7.751 10.720 10.184 0.536 10.756 10.571 0.183
PRIMET_226 2015-09-30 00:05:00 226 156.7 -7.00 196 0.007 0.007 242.400 0.079 7.319 7.847 0.535 0.2 8.06 8.070 8.210 8.100 95.000 98.300 0.007 8.11 8.100 8.230 8.130 8.02 8.050 8.200 8.060 7.349 7.873 7.280 7.820 10.771 10.240 0.539 10.800 10.616 0.184
PRIMET_226 2015-09-30 00:00:00 226 156.7 -7.00 197 0.007 0.007 242.400 0.074 7.378 7.921 0.552 0.2 8.14 8.140 8.260 8.180 94.900 98.200 0.007 8.18 8.190 8.300 8.220 8.10 8.100 8.220 8.140 7.417 7.959 7.341 7.876 10.830 10.281 0.552 10.859 10.669 0.195
PRIMET_226 2015-09-29 23:55:00 226 156.7 -7.50 192 0.007 0.007 242.400 0.074 7.430 7.971 0.564 0.2 8.21 8.220 8.340 8.260 94.800 98.100 0.007 8.24 8.240 8.370 8.290 8.17 8.190 8.300 8.220 7.453 7.991 7.404 7.948 10.881 10.318 0.566 10.918 10.706 0.207
PRIMET_226 2015-09-29 23:50:00 226 156.7 -7.50 197 0.007 0.007 242.400 0.074 7.474 8.020 0.575 0.2 8.27 8.270 8.410 8.330 94.700 97.900 0.007 8.31 8.300 8.450 8.380 8.23 8.240 8.370 8.280 7.509 8.060 7.441 7.977 10.926 10.349 0.579 10.970 10.742 0.230
PRIMET_226 2015-09-29 23:45:00 226 156.7 -7.50 197 0.007 0.007 242.400 0.074 7.521 8.090 0.608 0.2 8.36 8.360 8.510 8.410 94.500 97.800 0.007 8.40 8.420 8.540 8.450 8.31 8.300 8.460 8.380 7.554 8.110 7.485 8.060 10.993 10.382 0.605 11.030 10.793 0.243
PRIMET_226 2015-09-29 23:40:00 226 156.7 -7.00 196 0.007 0.007 242.300 0.105 7.606 8.150 0.607 0.3 8.44 8.450 8.570 8.490 94.500 97.700 0.007 8.46 8.470 8.590 8.540 8.40 8.430 8.540 8.440 7.640 8.190 7.560 8.090 11.053 10.443 0.608 11.090 10.837 0.255
PRIMET_226 2015-09-29 23:35:00 226 156.7 -7.00 197 0.007 0.007 242.400 0.074 7.664 8.230 0.608 0.3 8.49 8.490 8.620 8.570 94.500 97.700 0.007 8.54 8.520 8.670 8.600 8.46 8.460 8.590 8.540 7.698 8.280 7.644 8.160 11.090 10.484 0.610 11.151 10.896 0.256
PRIMET_226 2015-09-29 23:30:00 226 156.7 -6.50 197 0.007 0.007 242.400 0.079 7.735 8.280 0.631 0.3 8.59 8.570 8.690 8.630 94.400 97.700 0.007 8.64 8.620 8.730 8.680 8.53 8.530 8.660 8.580 7.782 8.300 7.688 8.260 11.166 10.535 0.625 11.196 10.933 0.258
PRIMET_226 2015-09-29 23:25:00 226 156.7 -6.50 198 0.007 0.007 242.400 0.063 7.805 8.340 0.636 0.3 8.66 8.650 8.770 8.730 94.300 97.400 0.007 8.71 8.690 8.840 8.770 8.62 8.620 8.730 8.680 7.836 8.380 7.765 8.290 11.219 10.585 0.639 11.272 10.978 0.293
PRIMET_226 2015-09-29 23:20:00 226 156.7 -6.50 194 0.007 0.007 242.400 0.079 7.894 8.420 0.630 0.3 8.74 8.740 8.880 8.820 94.400 97.300 0.007 8.77 8.780 8.910 8.860 8.71 8.690 8.840 8.780 7.945 8.470 7.839 8.380 11.280 10.650 0.632 11.341 11.038 0.306
PRIMET_226 2015-09-29 23:15:00 226 156.7 -6.50 198 0.007 0.007 242.400 0.069 7.982 8.530 0.611 0.3 8.80 8.800 8.950 8.900 94.600 97.500 0.007 8.83 8.840 8.970 8.930 8.77 8.780 8.920 8.870 8.000 8.550 7.944 8.480 11.326 10.714 0.612 11.402 11.120 0.285
PRIMET_226 2015-09-29 23:10:00 226 156.7 -7.50 197 0.007 0.007 242.400 0.074 8.000 8.560 0.648 0.3 8.86 8.880 9.020 8.970 94.300 97.200 0.007 8.91 8.930 9.060 9.020 8.82 8.830 8.970 8.930 8.020 8.580 7.981 8.530 11.372 10.727 0.648 11.457 11.143 0.321
PRIMET_226 2015-09-29 23:05:00 226 156.7 -6.50 202 0.007 0.007 242.400 0.074 8.040 8.610 0.693 0.3 8.96 8.990 9.110 9.050 93.900 97.000 0.007 9.01 9.040 9.160 9.100 8.91 8.940 9.070 9.010 8.100 8.660 7.972 8.560 11.449 10.756 0.698 11.519 11.181 0.346
PRIMET_226 2015-09-29 23:00:00 226 156.7 -6.50 198 0.007 0.007 242.400 0.074 8.120 8.720 0.716 0.3 9.06 9.080 9.190 9.140 93.800 97.200 0.007 9.13 9.120 9.220 9.170 9.01 9.040 9.160 9.110 8.180 8.770 8.080 8.670 11.526 10.815 0.715 11.589 11.264 0.324
PRIMET_226 2015-09-29 22:55:00 226 156.7 -6.50 197 0.007 0.007 242.400 0.074 8.230 8.770 0.728 0.3 9.18 9.170 9.260 9.190 93.700 97.200 0.007 9.22 9.200 9.280 9.220 9.13 9.120 9.220 9.160 8.270 8.800 8.170 8.750 11.620 10.896 0.732 11.628 11.303 0.326
PRIMET_226 2015-09-29 22:50:00 226 156.7 -6.50 199 0.007 0.007 242.400 0.079 8.320 8.840 0.727 0.3 9.27 9.230 9.320 9.270 93.800 97.200 0.007 9.32 9.280 9.370 9.310 9.23 9.200 9.280 9.220 8.370 8.870 8.280 8.810 11.691 10.963 0.725 11.691 11.356 0.327
PRIMET_226 2015-09-29 22:45:00 226 156.7 -7.00 197 0.007 0.007 242.400 0.069 8.390 8.930 0.733 0.3 9.35 9.330 9.420 9.360 93.800 97.100 0.007 9.40 9.380 9.480 9.400 9.31 9.290 9.370 9.310 8.450 8.970 8.360 8.870 11.754 11.015 0.729 11.762 11.426 0.341
PRIMET_226 2015-09-29 22:40:00 226 156.7 -7.00 198 0.007 0.007 242.400 0.079 8.480 9.000 0.732 0.4 9.42 9.420 9.530 9.460 93.800 96.900 0.007 9.45 9.460 9.570 9.510 9.40 9.380 9.480 9.400 8.500 9.020 8.450 8.960 11.810 11.083 0.732 11.841 11.480 0.367
PRIMET_226 2015-09-29 22:35:00 226 156.7 -7.00 198 0.007 0.007 242.400 0.063 8.530 9.040 0.750 0.4 9.50 9.510 9.620 9.570 93.700 96.500 0.007 9.53 9.550 9.680 9.620 9.46 9.460 9.580 9.520 8.580 9.100 8.500 9.020 11.873 11.120 0.748 11.929 11.511 0.418
PRIMET_226 2015-09-29 22:30:00 226 156.7 -7.00 199 0.007 0.007 242.400 0.074 8.620 9.160 0.737 0.4 9.57 9.590 9.720 9.660 93.800 96.700 0.007 9.62 9.650 9.770 9.700 9.53 9.560 9.680 9.630 8.690 9.230 8.590 9.110 11.929 11.188 0.740 12.002 11.604 0.396
PRIMET_226 2015-09-29 22:25:00 226 156.7 -7.50 200 0.007 0.007 242.400 0.069 8.740 9.290 0.706 0.4 9.64 9.680 9.810 9.740 94.100 97.000 0.007 9.68 9.710 9.840 9.780 9.61 9.650 9.780 9.710 8.780 9.350 8.700 9.240 11.986 11.280 0.707 12.066 11.707 0.362
PRIMET_226 2015-09-29 22:20:00 226 156.7 -7.50 199 0.007 0.007 242.400 0.069 8.770 9.380 0.751 0.3 9.73 9.760 9.890 9.810 93.800 97.200 0.007 9.77 9.800 9.920 9.850 9.67 9.710 9.840 9.780 8.820 9.420 8.730 9.340 12.058 11.303 0.748 12.123 11.778 0.339
PRIMET_226 2015-09-29 22:15:00 226 156.7 -7.00 189 0.007 0.007 242.400 0.074 8.880 9.420 0.754 0.4 9.83 9.840 9.960 9.890 93.800 96.900 0.007 9.86 9.860 9.980 9.930 9.79 9.810 9.920 9.850 8.930 9.460 8.810 9.390 12.140 11.387 0.753 12.189 11.810 0.378
PRIMET_226 2015-09-29 22:10:00 226 156.7 -7.00 195 0.007 0.007 242.400 0.074 8.960 9.520 0.740 0.4 9.89 9.890 10.010 9.970 93.900 97.000 0.007 9.93 9.910 10.030 10.000 9.86 9.860 9.980 9.920 9.000 9.550 8.940 9.460 12.189 11.449 0.743 12.254 11.889 0.368
PRIMET_226 2015-09-29 22:05:00 226 156.7 -7.50 201 0.007 0.007 242.400 0.074 9.030 9.580 0.740 0.4 9.96 9.960 10.080 10.050 94.000 96.900 0.007 10.00 10.000 10.120 10.100 9.93 9.920 10.030 9.990 9.080 9.620 9.000 9.520 12.246 11.503 0.735 12.320 11.937 0.382
PRIMET_226 2015-09-29 22:00:00 226 156.7 -7.50 197 0.007 0.007 242.400 0.074 9.090 9.640 0.742 0.4 10.02 10.030 10.170 10.140 94.000 96.700 0.007 10.05 10.080 10.230 10.190 9.99 9.990 10.110 10.100 9.110 9.660 9.060 9.620 12.295 11.550 0.738 12.394 11.986 0.409
PRIMET_226 2015-09-29 21:55:00 226 156.7 -7.50 193 0.007 0.007 242.400 0.069 9.080 9.670 0.801 0.5 10.08 10.120 10.290 10.230 93.500 96.300 0.007 10.12 10.150 10.330 10.270 10.04 10.080 10.250 10.180 9.110 9.720 9.060 9.640 12.345 11.542 0.802 12.469 12.010 0.461
PRIMET_226 2015-09-29 21:50:00 226 156.7 -8.00 200 0.007 0.007 242.400 0.074 9.170 9.780 0.858 0.5 10.23 10.230 10.370 10.330 93.100 96.400 0.007 10.29 10.310 10.440 10.380 10.15 10.150 10.320 10.270 9.270 9.840 9.080 9.720 12.469 11.612 0.860 12.553 12.099 0.452
PRIMET_226 2015-09-29 21:45:00 226 156.7 -7.50 198 0.007 0.007 242.400 0.069 9.320 9.880 0.816 0.5 10.32 10.350 10.490 10.430 93.500 96.400 0.007 10.36 10.400 10.530 10.470 10.29 10.310 10.450 10.370 9.390 9.910 9.270 9.830 12.545 11.730 0.815 12.637 12.180 0.455
PRIMET_226 2015-09-29 21:40:00 226 156.7 -7.50 198 0.007 0.007 242.400 0.079 9.410 9.930 0.790 0.5 10.37 10.430 10.580 10.510 93.700 96.200 0.007 10.40 10.460 10.620 10.560 10.34 10.390 10.530 10.460 9.440 9.960 9.370 9.900 12.586 11.802 0.793 12.705 12.221 0.483
PRIMET_226 2015-09-29 21:35:00 226 156.7 -7.50 201 0.007 0.007 242.400 0.079 9.420 10.000 0.829 0.5 10.43 10.490 10.650 10.610 93.400 96.000 0.007 10.48 10.510 10.680 10.650 10.41 10.460 10.610 10.570 9.450 10.060 9.380 9.960 12.637 11.810 0.834 12.790 12.279 0.512
PRIMET_226 2015-09-29 21:30:00 226 156.7 -8.50 194 0.007 0.007 242.400 0.084 9.460 10.030 0.907 0.5 10.56 10.570 10.720 10.680 92.900 95.800 0.007 10.61 10.610 10.740 10.730 10.49 10.530 10.680 10.640 9.490 10.070 9.410 10.000 12.747 11.841 0.905 12.850 12.303 0.540
PRIMET_226 2015-09-29 21:25:00 226 156.7 -7.50 223 0.007 0.007 242.400 0.079 9.560 10.100 0.933 0.6 10.68 10.680 10.800 10.790 92.700 95.500 0.007 10.74 10.740 10.870 10.860 10.62 10.620 10.740 10.740 9.600 10.160 9.480 10.040 12.850 11.921 0.938 12.944 12.361 0.582
PRIMET_226 2015-09-29 21:20:00 226 156.7 -7.50 197 0.007 0.007 242.400 0.063 9.650 10.210 0.946 0.6 10.78 10.790 10.930 10.900 92.700 95.500 0.007 10.85 10.840 10.980 10.950 10.73 10.740 10.880 10.840 9.700 10.280 9.600 10.140 12.935 11.994 0.944 13.039 12.453 0.587
PRIMET_226 2015-09-29 21:15:00 226 156.7 -8.50 198 0.007 0.007 242.400 0.079 9.750 10.310 0.965 0.6 10.90 10.920 11.050 11.000 92.600 95.500 0.007 10.96 10.990 11.110 11.050 10.86 10.840 10.990 10.950 9.790 10.350 9.710 10.280 13.039 12.075 0.965 13.126 12.536 0.591
PRIMET_226 2015-09-29 21:10:00 226 156.7 -8.50 204 0.007 0.007 242.400 0.074 9.850 10.390 0.958 0.6 10.98 11.040 11.160 11.100 92.700 95.400 0.007 11.03 11.070 11.190 11.150 10.95 11.000 11.120 11.060 9.910 10.450 9.800 10.350 13.109 12.156 0.957 13.214 12.603 0.608
PRIMET_226 2015-09-29 21:05:00 226 156.7 -9.00 203 0.007 0.007 242.400 0.074 9.890 10.450 0.982 0.6 11.05 11.090 11.220 11.160 92.500 95.400 0.007 11.10 11.120 11.250 11.190 11.01 11.060 11.200 11.140 9.920 10.490 9.850 10.380 13.170 12.189 0.988 13.266 12.654 0.610
PRIMET_226 2015-09-29 21:00:00 226 156.7 -9.00 200 0.007 0.007 242.400 0.069 9.840 10.430 1.123 0.7 11.16 11.180 11.310 11.270 91.500 94.600 0.007 11.25 11.250 11.370 11.340 11.10 11.130 11.250 11.210 9.880 10.480 9.800 10.400 13.266 12.148 1.128 13.364 12.637 0.722
PRIMET_226 2015-09-29 20:55:00 226 156.7 -9.00 202 0.007 0.007 242.400 0.074 9.970 10.510 1.133 0.8 11.30 11.320 11.450 11.380 91.500 94.300 0.007 11.34 11.380 11.510 11.430 11.25 11.250 11.380 11.340 10.000 10.540 9.890 10.480 13.390 12.254 1.138 13.461 12.705 0.767
PRIMET_226 2015-09-29 20:50:00 226 156.7 -9.00 206 0.007 0.007 242.400 0.079 10.070 10.580 1.120 0.8 11.37 11.410 11.550 11.480 91.700 94.200 0.007 11.41 11.450 11.620 11.530 11.34 11.380 11.510 11.430 10.100 10.630 10.000 10.530 13.452 12.336 1.117 13.551 12.764 0.786
PRIMET_226 2015-09-29 20:45:00 226 156.7 -9.00 205 0.007 0.007 242.400 0.074 10.100 10.660 1.149 0.8 11.44 11.500 11.670 11.580 91.500 94.100 0.007 11.48 11.550 11.710 11.620 11.40 11.460 11.620 11.530 10.140 10.700 10.070 10.630 13.515 12.361 1.149 13.641 12.832 0.805
PRIMET_226 2015-09-29 20:40:00 226 156.7 -9.00 200 0.007 0.007 242.400 0.079 10.180 10.720 1.181 0.8 11.55 11.600 11.750 11.660 91.300 94.000 0.007 11.61 11.650 11.790 11.710 11.49 11.560 11.730 11.620 10.240 10.750 10.140 10.680 13.614 12.428 1.184 13.713 12.884 0.823
PRIMET_226 2015-09-29 20:35:00 226 156.7 -8.00 200 0.007 0.007 242.400 0.069 10.250 10.800 1.234 0.9 11.67 11.710 11.840 11.760 91.000 93.800 0.007 11.72 11.770 11.890 11.800 11.60 11.650 11.790 11.700 10.310 10.860 10.160 10.750 13.722 12.486 1.235 13.804 12.953 0.856
PRIMET_226 2015-09-29 20:30:00 226 156.7 -7.50 190 0.007 0.007 242.400 0.074 10.300 10.800 1.277 0.9 11.76 11.800 11.930 11.850 90.700 93.300 0.007 11.81 11.840 11.980 11.910 11.71 11.760 11.890 11.800 10.350 10.870 10.260 10.760 13.804 12.528 1.284 13.886 12.953 0.930
PRIMET_226 2015-09-29 20:25:00 226 156.7 -8.50 200 0.007 0.007 242.400 0.079 10.430 10.950 1.256 0.9 11.86 11.890 12.020 11.950 91.000 93.600 0.007 11.91 11.930 12.070 11.990 11.82 11.840 11.980 11.900 10.500 11.040 10.360 10.830 13.896 12.637 1.251 13.978 13.083 0.895
PRIMET_226 2015-09-29 20:20:00 226 156.7 -8.50 207 0.007 0.007 242.400 0.074 10.550 11.080 1.222 0.9 11.93 11.980 12.110 12.030 91.200 93.900 0.007 11.95 11.990 12.140 12.070 11.90 11.940 12.070 11.990 10.570 11.120 10.500 11.050 13.960 12.739 1.228 14.052 13.196 0.857
PRIMET_226 2015-09-29 20:15:00 226 156.7 -7.50 201 0.007 0.007 242.400 0.074 10.520 11.050 1.299 1.0 11.99 12.020 12.150 12.130 90.700 93.100 0.007 12.03 12.050 12.190 12.190 11.95 11.990 12.120 12.060 10.560 11.100 10.490 11.000 14.015 12.713 1.303 14.145 13.170 0.976
PRIMET_226 2015-09-29 20:10:00 226 156.7 -7.00 200 0.007 0.007 242.400 0.079 10.630 11.160 1.303 1.0 12.09 12.090 12.250 12.250 90.800 93.100 0.007 12.15 12.140 12.300 12.310 12.03 12.050 12.190 12.200 10.670 11.210 10.570 11.110 14.108 12.807 1.298 14.257 13.266 0.984
PRIMET_226 2015-09-29 20:05:00 226 156.7 -7.00 211 0.007 0.007 242.400 0.074 10.710 11.290 1.361 1.0 12.23 12.240 12.390 12.370 90.400 93.100 0.007 12.29 12.340 12.470 12.430 12.16 12.150 12.310 12.310 10.800 11.340 10.660 11.210 14.239 12.875 1.367 14.370 13.381 0.992
PRIMET_226 2015-09-29 20:00:00 226 156.7 -6.50 201 0.007 0.007 242.300 0.093 10.820 11.340 1.360 1.1 12.33 12.390 12.530 12.490 90.500 92.700 0.007 12.37 12.420 12.570 12.550 12.29 12.340 12.470 12.430 10.840 11.380 10.800 11.310 14.333 12.970 1.362 14.484 13.426 1.057
PRIMET_226 2015-09-29 19:55:00 226 156.7 -6.50 203 0.007 0.007 242.600 0.145 10.850 11.400 1.437 1.1 12.44 12.470 12.600 12.580 90.000 92.500 0.007 12.52 12.530 12.660 12.600 12.39 12.420 12.560 12.550 10.870 11.450 10.810 11.360 14.437 12.996 1.444 14.570 13.479 1.093
PRIMET_226 2015-09-29 19:50:00 226 156.7 -5.50 195 0.007 0.007 242.500 0.093 10.900 11.480 1.515 1.1 12.57 12.600 12.710 12.660 89.600 92.500 0.007 12.63 12.660 12.780 12.710 12.51 12.540 12.660 12.600 10.950 11.520 10.860 11.420 14.560 13.039 1.514 14.647 13.551 1.098
PRIMET_226 2015-09-29 19:45:00 226 156.7 -5.50 200 0.007 0.007 242.500 0.148 10.990 11.520 1.522 1.2 12.66 12.690 12.810 12.760 89.600 92.200 0.007 12.69 12.720 12.840 12.810 12.61 12.670 12.780 12.710 11.040 11.610 10.920 11.430 14.647 13.117 1.523 14.743 13.587 1.150
PRIMET_226 2015-09-29 19:40:00 226 156.7 -5.00 197 0.007 0.007 242.700 0.079 11.090 11.660 1.529 1.1 12.75 12.780 12.910 12.870 89.600 92.300 0.007 12.81 12.820 12.950 12.930 12.70 12.720 12.850 12.810 11.130 11.690 11.060 11.610 14.733 13.205 1.532 14.850 13.713 1.143
PRIMET_226 2015-09-29 19:35:00 226 156.7 -4.00 195 0.007 0.007 242.700 0.079 11.230 11.770 1.526 1.2 12.87 12.880 13.020 13.000 89.700 92.200 0.007 12.92 12.940 13.090 13.070 12.81 12.840 12.950 12.930 11.300 11.900 11.110 11.610 14.850 13.328 1.530 14.976 13.813 1.168
PRIMET_226 2015-09-29 19:30:00 226 156.7 -3.50 197 0.007 0.007 242.700 0.079 11.180 11.770 1.690 1.3 13.00 13.010 13.150 13.140 88.700 91.400 0.007 13.07 13.060 13.210 13.200 12.93 12.950 13.090 13.080 11.220 11.850 11.120 11.710 14.976 13.284 1.692 15.114 13.813 1.300
PRIMET_226 2015-09-29 19:25:00 226 156.7 -2.50 202 0.007 0.007 242.600 0.093 11.250 11.800 1.796 1.4 13.17 13.130 13.270 13.260 88.100 90.900 0.007 13.25 13.230 13.340 13.340 13.06 13.060 13.210 13.190 11.360 11.930 11.140 11.690 15.144 13.346 1.802 15.233 13.841 1.386
PRIMET_226 2015-09-29 19:20:00 226 156.7 -2.00 202 0.007 0.007 242.600 0.079 11.380 11.910 1.827 1.4 13.31 13.310 13.430 13.400 88.000 90.700 0.007 13.36 13.370 13.490 13.460 13.25 13.230 13.340 13.330 11.450 11.970 11.340 11.850 15.283 13.461 1.834 15.373 13.941 1.430
PRIMET_226 2015-09-29 19:15:00 226 156.7 -2.00 206 0.007 0.007 242.700 0.069 11.420 11.950 1.894 1.5 13.42 13.420 13.540 13.530 87.700 90.200 0.007 13.48 13.470 13.590 13.580 13.34 13.370 13.490 13.470 11.470 12.020 11.320 11.870 15.393 13.497 1.893 15.504 13.978 1.519
PRIMET_226 2015-09-29 19:10:00 226 156.7 -2.00 198 0.007 0.007 242.500 0.156 11.500 12.070 1.982 1.5 13.58 13.540 13.650 13.660 87.300 90.100 0.007 13.65 13.610 13.700 13.730 13.50 13.470 13.590 13.590 11.600 12.130 11.440 12.020 15.554 13.569 1.975 15.635 14.089 1.548
PRIMET_226 2015-09-29 19:05:00 226 156.7 -2.00 189 0.007 0.007 242.400 0.074 11.700 12.270 1.949 1.5 13.72 13.690 13.810 13.800 87.600 90.400 0.007 13.78 13.770 13.900 13.870 13.66 13.610 13.710 13.730 11.770 12.370 11.630 12.130 15.697 13.749 1.946 15.778 14.276 1.515
PRIMET_226 2015-09-29 19:00:00 226 156.7 -2.00 201 0.007 0.007 242.400 0.079 11.680 12.200 2.087 1.7 13.84 13.830 13.950 13.930 86.800 89.300 0.007 13.89 13.870 13.990 13.980 13.78 13.790 13.910 13.860 11.750 12.270 11.580 12.120 15.819 13.731 2.088 15.912 14.211 1.703
PRIMET_226 2015-09-29 18:55:00 226 156.7 -3.00 190 0.007 0.007 242.400 0.079 11.620 12.160 2.256 1.9 13.95 13.930 14.050 14.050 85.800 88.300 0.007 14.01 14.000 14.100 14.130 13.88 13.870 14.000 13.980 11.670 12.210 11.570 12.110 15.933 13.677 2.262 16.037 14.173 1.876
PRIMET_226 2015-09-29 18:50:00 226 156.7 -4.00 200 0.007 0.007 242.400 0.074 11.770 12.290 2.265 1.9 14.09 14.070 14.180 14.200 85.900 88.300 0.007 14.16 14.140 14.260 14.270 14.02 13.990 14.100 14.120 11.920 12.430 11.640 12.160 16.078 13.813 2.267 16.193 14.295 1.895
PRIMET_226 2015-09-29 18:45:00 226 156.7 -4.00 198 0.007 0.007 242.400 0.079 11.900 12.490 2.298 1.9 14.24 14.220 14.330 14.350 85.800 88.600 0.007 14.29 14.290 14.400 14.410 14.17 14.150 14.270 14.280 11.970 12.560 11.880 12.370 16.235 13.932 2.305 16.351 14.484 1.864
PRIMET_226 2015-09-29 18:40:00 226 156.7 -4.00 194 0.007 0.007 242.400 0.069 11.990 12.570 2.328 1.9 14.34 14.340 14.470 14.480 85.800 88.300 0.007 14.40 14.400 14.530 14.530 14.28 14.290 14.410 14.420 12.100 12.650 11.870 12.480 16.341 14.015 2.320 16.489 14.560 1.929
PRIMET_226 2015-09-29 18:35:00 226 156.7 -4.50 194 0.007 0.007 242.400 0.074 12.040 12.630 2.388 2.0 14.45 14.470 14.610 14.620 85.500 87.800 0.007 14.49 14.540 14.670 14.700 14.39 14.410 14.540 14.540 12.100 12.760 11.970 12.450 16.457 14.062 2.386 16.639 14.618 2.030
PRIMET_226 2015-09-29 18:30:00 226 156.7 -5.50 194 0.007 0.007 242.400 0.074 12.000 12.550 2.523 2.3 14.54 14.590 14.740 14.770 84.800 86.600 0.007 14.61 14.660 14.820 14.860 14.49 14.540 14.680 14.690 12.060 12.680 11.930 12.460 16.553 14.025 2.516 16.801 14.541 2.251
PRIMET_226 2015-09-29 18:25:00 226 156.7 -6.00 199 0.007 0.007 242.400 0.074 12.170 12.640 2.528 2.4 14.68 14.720 14.890 14.960 84.900 86.000 0.007 14.81 14.820 14.970 15.070 14.60 14.670 14.830 14.870 12.400 12.820 11.950 12.520 16.704 14.182 2.522 17.008 14.627 2.381
PRIMET_226 2015-09-29 18:20:00 226 156.7 -6.00 199 0.007 0.007 242.400 0.069 12.470 13.050 2.495 2.2 14.92 14.950 15.100 15.140 85.300 87.300 0.007 14.99 15.070 15.200 15.230 14.82 14.840 15.000 15.050 12.680 13.260 12.310 12.820 16.964 14.465 2.494 17.206 15.025 2.185
PRIMET_226 2015-09-29 18:15:00 226 156.7 -6.50 194 0.007 0.007 242.400 0.097 12.460 13.090 2.643 2.3 15.04 15.150 15.300 15.330 84.500 86.500 0.007 15.08 15.210 15.360 15.420 15.00 15.080 15.220 15.240 12.650 13.310 12.310 12.790 17.096 14.456 2.650 17.418 15.065 2.351
PRIMET_226 2015-09-29 18:10:00 226 156.7 -7.00 206 0.007 0.007 242.700 0.079 12.470 12.940 2.758 2.7 15.16 15.290 15.450 15.520 84.000 84.600 0.007 15.22 15.380 15.550 15.620 15.09 15.210 15.370 15.410 12.530 13.110 12.360 12.810 17.228 14.465 2.757 17.631 14.918 2.715
PRIMET_226 2015-09-29 18:05:00 226 156.7 -7.00 198 0.007 0.007 242.700 0.084 12.620 13.240 2.727 2.6 15.25 15.470 15.650 15.710 84.300 85.300 0.007 15.27 15.540 15.720 15.780 15.22 15.390 15.560 15.630 12.690 13.360 12.520 13.100 17.328 14.608 2.721 17.847 15.213 2.624
PRIMET_226 2015-09-29 18:00:00 226 156.7 -7.00 200 0.007 0.007 242.700 0.097 12.630 13.120 2.733 2.9 15.27 15.590 15.790 15.870 84.200 83.700 0.007 15.30 15.650 15.860 15.960 15.24 15.540 15.740 15.780 12.710 13.350 12.470 12.960 17.351 14.618 2.741 18.031 15.094 2.939
PRIMET_226 2015-09-29 17:55:00 226 156.7 -7.00 199 0.007 0.005 213.000 33.360 12.570 12.970 2.874 3.3 15.35 15.710 15.940 16.030 83.500 82.000 0.007 15.43 15.800 16.040 16.110 15.29 15.660 15.870 15.940 12.770 13.070 12.290 12.850 17.440 14.560 2.878 18.216 14.947 3.279
PRIMET_226 2015-09-29 17:50:00 226 156.7 -7.00 201 0.007 0.007 172.600 0.000 12.460 12.930 3.106 3.5 15.46 15.810 16.080 16.170 82.300 81.100 0.007 15.50 15.830 16.120 16.220 15.44 15.800 16.030 16.110 12.570 13.090 12.360 12.790 17.563 14.456 3.109 18.379 14.908 3.474
PRIMET_226 2015-09-29 17:45:00 226 156.7 -6.50 199 0.007 0.007 172.500 0.379 12.590 12.950 3.049 3.6 15.52 15.880 16.190 16.310 82.700 80.500 0.007 15.54 15.930 16.230 16.380 15.49 15.840 16.130 16.240 12.650 13.080 12.530 12.750 17.631 14.579 3.050 18.544 14.928 3.616
PRIMET_226 2015-09-29 17:40:00 226 156.7 -6.00 198 0.007 0.007 171.500 0.000 12.520 12.910 3.235 3.9 15.63 15.960 16.340 16.500 81.800 79.310 0.007 15.72 16.060 16.460 16.620 15.54 15.880 16.230 16.390 12.650 13.030 12.380 12.820 17.756 14.513 3.232 18.770 14.889 3.883
PRIMET_226 2015-09-29 17:35:00 226 156.7 -5.50 194 0.007 0.007 171.500 0.000 12.470 12.830 3.521 4.2 15.83 16.180 16.560 16.700 80.400 77.910 0.007 15.95 16.270 16.620 16.760 15.74 16.070 16.470 16.640 12.550 13.020 12.410 12.690 17.985 14.465 3.525 19.010 14.811 4.199
PRIMET_226 2015-09-29 17:30:00 226 156.7 -5.00 200 0.007 0.007 171.500 0.000 12.420 12.710 3.793 4.5 16.03 16.340 16.690 16.860 79.180 76.540 0.007 16.10 16.420 16.780 16.950 15.96 16.280 16.620 16.760 12.470 12.910 12.370 12.610 18.216 14.418 3.793 19.204 14.695 4.505
PRIMET_226 2015-09-29 17:25:00 226 156.7 -5.00 201 0.007 0.007 171.200 0.308 12.450 12.680 3.980 4.7 16.21 16.540 16.870 17.000 78.400 75.690 0.007 16.31 16.650 16.950 17.040 16.11 16.430 16.790 16.950 12.650 12.910 12.370 12.480 18.426 14.446 3.980 19.375 14.666 4.710
PRIMET_226 2015-09-29 17:20:00 226 156.7 -5.00 200 0.007 0.007 171.400 0.716 12.640 12.900 3.999 4.6 16.38 16.750 16.990 17.070 78.540 76.470 0.007 16.44 16.810 17.050 17.130 16.30 16.670 16.950 17.040 12.860 13.750 12.080 12.440 18.627 14.627 3.997 19.461 14.879 4.579
PRIMET_226 2015-09-29 17:15:00 226 156.7 -5.00 200 0.074 0.073 160.500 5.665 12.880 13.010 3.900 4.6 16.49 16.830 17.090 17.170 79.220 76.520 0.287 16.58 16.890 17.160 17.260 16.44 16.780 17.050 17.120 13.280 13.470 12.690 12.740 18.758 14.859 3.898 19.585 14.986 4.599
PRIMET_226 2015-09-29 17:10:00 226 156.7 -5.00 199 0.123 0.121 225.600 9.620 13.150 13.320 3.784 4.5 16.61 16.920 17.230 17.330 79.980 77.340 0.555 16.65 16.950 17.260 17.360 16.57 16.880 17.170 17.270 13.340 13.940 12.770 12.820 18.902 15.124 3.784 19.784 15.293 4.483
PRIMET_226 2015-09-29 17:05:00 226 156.7 -5.50 198 0.077 0.077 163.900 6.739 13.400 13.660 3.723 4.3 16.77 17.040 17.320 17.470 80.500 78.320 0.353 16.86 17.140 17.430 17.610 16.68 16.960 17.240 17.370 13.740 14.180 12.970 13.030 19.095 15.373 3.723 19.960 15.635 4.327
PRIMET_226 2015-09-29 17:00:00 226 156.7 -7.50 198 0.348 0.344 203.700 8.470 13.700 13.840 3.640 4.5 16.95 17.260 17.550 17.760 81.200 77.850 0.849 17.09 17.360 17.670 17.910 16.86 17.170 17.430 17.620 13.820 14.220 13.400 13.340 19.314 15.676 3.631 20.328 15.819 4.503
PRIMET_226 2015-09-29 16:55:00 226 156.7 -9.00 185 0.112 0.112 194.300 0.821 13.520 13.950 4.238 4.9 17.29 17.520 17.850 18.120 78.530 76.640 0.712 17.44 17.700 18.020 18.300 17.09 17.360 17.680 17.920 13.660 14.140 13.440 13.740 19.734 15.494 4.237 20.794 15.933 4.857
PRIMET_226 2015-09-29 16:50:00 226 156.7 -9.00 198 0.007 0.007 181.400 3.593 13.650 13.980 4.516 5.3 17.61 17.870 18.210 18.490 77.580 75.000 0.007 17.75 18.040 18.390 18.660 17.46 17.710 18.040 18.310 13.710 14.190 13.590 13.760 20.137 15.625 4.515 21.282 15.964 5.321
PRIMET_226 2015-09-29 16:45:00 226 156.7 -9.00 197 0.007 0.007 176.400 1.133 13.420 13.620 5.141 6.1 17.92 18.220 18.550 18.820 74.970 71.790 0.007 18.08 18.390 18.700 18.970 17.77 18.070 18.410 18.680 13.600 13.940 13.190 13.140 20.534 15.393 5.140 21.726 15.595 6.129
PRIMET_226 2015-09-29 16:40:00 226 156.7 -9.50 193 0.106 0.052 206.800 57.600 12.990 13.130 6.003 7.1 18.25 18.560 18.900 19.160 71.370 68.080 0.647 18.35 18.670 19.020 19.280 18.10 18.390 18.720 18.980 13.280 13.670 12.780 12.480 20.964 14.967 6.002 22.192 15.104 7.084
PRIMET_226 2015-09-29 16:35:00 226 156.7 -10.00 198 0.111 0.110 205.900 7.727 12.440 12.720 6.874 7.9 18.51 18.790 19.140 19.440 67.750 65.110 0.640 18.71 18.990 19.310 19.600 18.35 18.620 18.990 19.290 13.200 13.270 12.190 12.390 21.309 14.437 6.872 22.582 14.704 7.879
PRIMET_226 2015-09-29 16:30:00 226 156.7 -10.00 199 0.007 0.007 235.100 0.105 12.540 12.770 7.284 8.3 18.89 19.190 19.520 19.800 66.610 63.880 0.007 19.06 19.400 19.720 19.960 18.72 19.000 19.330 19.600 12.950 13.240 12.290 12.480 21.821 14.532 7.286 23.092 14.753 8.341
PRIMET_226 2015-09-29 16:25:00 226 156.7 -11.50 189 0.007 0.006 252.500 12.700 12.920 12.770 7.385 8.8 19.23 19.500 19.830 20.090 66.870 62.780 0.007 19.33 19.560 19.910 20.250 19.11 19.420 19.740 19.980 13.540 13.370 12.160 12.340 22.289 14.898 7.384 23.511 14.753 8.751
PRIMET_226 2015-09-29 16:20:00 226 156.7 -13.50 190 0.007 0.007 250.900 0.088 12.350 12.720 8.280 9.3 19.48 19.720 20.080 20.440 63.410 61.250 0.007 19.59 19.870 20.230 20.620 19.34 19.570 19.930 20.260 12.860 13.860 11.900 12.140 22.638 14.351 8.283 24.025 14.704 9.310
PRIMET_226 2015-09-29 16:15:00 226 156.7 -15.50 190 0.007 0.007 250.800 0.084 12.000 12.400 9.030 10.1 19.77 20.060 20.420 20.790 60.850 58.690 0.007 19.92 20.220 20.590 20.930 19.60 19.880 20.240 20.650 12.370 12.860 11.790 12.100 23.049 14.025 9.024 24.548 14.399 10.141
PRIMET_226 2015-09-29 16:10:00 226 156.7 -18.00 199 0.078 0.078 252.000 1.463 12.420 12.560 9.120 10.5 20.11 20.430 20.780 21.140 61.280 58.040 0.503 20.26 20.610 20.980 21.300 19.95 20.240 20.600 20.950 13.280 13.390 11.750 11.570 23.540 14.418 9.115 25.082 14.551 10.524
PRIMET_226 2015-09-29 16:05:00 226 156.7 -18.50 195 0.007 0.007 255.800 0.084 12.890 12.060 8.980 11.6 20.32 20.760 21.160 21.520 62.330 54.860 0.007 20.41 20.890 21.330 21.690 20.26 20.630 20.990 21.320 13.430 13.060 12.520 11.280 23.847 14.869 8.983 25.673 14.080 11.589
PRIMET_226 2015-09-29 16:00:00 226 156.7 -18.50 198 0.007 0.006 235.700 28.430 12.830 11.350 9.360 12.7 20.54 21.020 21.490 21.830 61.280 51.420 0.007 20.67 21.090 21.570 21.910 20.42 20.910 21.340 21.710 13.570 12.720 11.870 10.360 24.173 14.811 9.360 26.164 13.435 12.710
PRIMET_226 2015-09-29 15:55:00 226 156.7 -19.50 192 0.078 0.057 112.900 42.250 12.020 11.190 10.380 13.1 20.71 21.120 21.610 22.000 57.510 50.290 0.719 20.80 21.200 21.710 22.070 20.65 21.070 21.550 21.900 13.120 12.420 11.180 10.780 24.428 14.043 10.379 26.436 13.293 13.141
PRIMET_226 2015-09-29 15:50:00 226 156.7 -21.00 198 0.114 0.105 295.700 22.170 12.120 11.360 10.730 13.3 21.00 21.370 21.790 22.190 56.880 50.310 0.372 21.22 21.550 21.950 22.380 20.82 21.190 21.710 22.060 12.750 12.730 11.440 10.720 24.867 14.136 10.723 26.744 13.444 13.289
PRIMET_226 2015-09-29 15:45:00 226 156.7 -23.00 194 0.481 0.301 220.400 49.530 12.440 12.390 11.080 13.2 21.44 21.860 22.290 22.720 56.610 52.220 1.130 21.71 22.200 22.700 23.070 21.25 21.580 22.000 22.400 13.690 14.020 11.150 11.080 25.547 14.437 11.085 27.619 14.389 13.196
PRIMET_226 2015-09-29 15:40:00 226 156.7 -24.50 210 0.362 0.041 191.100 76.260 11.780 11.130 12.430 15.3 21.89 22.330 22.860 23.280 52.670 46.440 0.915 22.03 22.430 22.940 23.510 21.75 22.200 22.710 23.090 12.970 12.710 10.610 9.750 26.259 13.822 12.429 28.570 13.240 15.302
PRIMET_226 2015-09-29 15:35:00 226 156.7 -24.50 198 0.465 0.239 183.300 56.510 12.060 12.040 13.000 16.2 22.41 23.050 23.630 24.260 52.060 46.490 1.065 22.71 23.650 24.300 24.850 22.07 22.340 22.900 23.570 14.140 14.680 10.680 10.370 27.104 14.080 12.994 30.304 14.062 16.216
PRIMET_226 2015-09-29 15:30:00 226 156.7 -24.50 201 0.234 0.232 210.200 7.451 11.000 10.460 15.110 19.6 23.08 24.070 24.800 25.310 46.500 39.340 0.862 23.45 24.430 25.160 25.540 22.73 23.650 24.320 24.910 12.050 12.930 10.220 9.230 28.227 13.126 15.102 32.263 12.662 19.571
PRIMET_226 2015-09-29 15:25:00 226 156.7 -25.50 197 0.505 0.352 213.500 44.590 10.370 9.560 17.150 20.7 23.96 24.870 25.400 25.510 42.430 36.610 1.653 24.41 25.280 25.660 25.600 23.48 24.450 25.150 25.330 11.460 11.460 6.975 7.461 29.764 12.586 17.135 32.649 11.921 20.696
PRIMET_226 2015-09-29 15:20:00 226 156.7 -25.50 209 0.138 0.119 244.500 29.900 10.750 10.260 17.710 19.5 24.44 24.980 25.160 25.160 42.200 39.120 0.568 24.58 25.210 25.430 25.310 24.25 24.630 24.880 25.070 12.450 12.380 9.390 9.280 30.632 12.910 17.706 31.977 12.494 19.467
PRIMET_226 2015-09-29 15:15:00 226 156.7 -24.00 216 0.503 0.438 234.600 29.150 11.360 10.490 17.020 19.7 24.36 24.900 25.210 25.370 44.170 39.210 1.189 24.54 25.230 25.560 25.540 24.15 24.650 24.940 25.150 12.840 12.360 9.690 8.740 30.486 13.444 17.020 32.378 12.688 19.683
PRIMET_226 2015-09-29 15:10:00 226 156.7 -21.50 196 0.365 0.262 207.800 43.000 11.610 11.290 17.090 19.1 24.53 25.090 25.380 25.470 44.520 41.370 1.156 24.64 25.230 25.500 25.500 24.37 24.910 25.240 25.410 13.970 14.520 9.750 7.903 30.798 13.668 17.087 32.571 13.381 19.097
PRIMET_226 2015-09-29 15:05:00 226 156.7 -21.50 199 0.564 0.399 253.700 43.860 11.480 10.350 17.120 19.6 24.47 24.830 25.130 25.290 44.240 39.110 1.352 24.69 25.080 25.340 25.370 24.26 24.680 25.000 25.250 12.650 12.000 9.080 7.731 30.688 13.551 17.111 32.225 12.570 19.622
PRIMET_226 2015-09-29 15:00:00 226 156.7 -21.50 196 0.547 0.230 185.300 61.730 11.780 11.190 17.130 18.8 24.63 24.770 25.020 25.250 44.720 41.470 1.352 24.88 25.040 25.230 25.300 24.35 24.600 24.890 25.200 13.480 13.330 8.410 8.140 30.982 13.822 17.127 32.148 13.293 18.816
PRIMET_226 2015-09-29 14:55:00 226 156.7 -23.50 208 0.282 0.141 226.000 57.310 11.920 11.310 17.930 19.1 25.13 25.160 25.240 25.460 43.820 41.290 0.817 25.29 25.390 25.420 25.630 24.93 24.800 24.950 25.260 13.550 13.710 9.760 9.280 31.920 13.951 17.933 32.552 13.399 19.111
PRIMET_226 2015-09-29 14:50:00 226 156.7 -20.00 205 0.471 0.264 194.400 53.680 12.350 11.480 18.560 19.9 25.65 25.680 25.660 25.920 43.640 40.600 1.176 26.34 26.160 26.250 26.570 25.14 25.300 25.310 25.570 13.840 13.790 9.660 9.940 32.921 14.351 18.554 33.451 13.551 19.870
PRIMET_226 2015-09-29 14:45:00 226 156.7 -20.00 192 0.650 0.547 193.300 32.370 9.960 10.000 22.490 23.3 26.60 26.800 26.920 27.010 35.450 34.590 2.123 26.84 27.250 27.260 27.150 26.39 26.130 26.310 26.680 13.270 12.290 6.080 6.812 34.821 12.246 22.477 35.670 12.279 23.331
PRIMET_226 2015-09-29 14:40:00 226 156.7 -17.50 213 1.063 0.864 220.300 35.020 9.200 9.310 22.470 23.6 26.31 26.670 26.720 26.860 34.370 33.350 2.561 26.72 27.210 27.220 27.050 26.03 26.380 26.470 26.720 13.420 13.680 6.244 7.062 34.231 11.636 22.466 35.357 11.722 23.565
PRIMET_226 2015-09-29 14:35:00 226 156.7 -17.50 267 0.929 0.689 234.000 41.230 9.260 8.430 22.040 24.0 26.11 26.490 26.580 26.720 34.840 31.650 2.417 26.27 26.730 26.840 26.850 25.84 26.050 26.120 26.600 12.600 11.980 6.276 6.788 33.829 11.683 22.043 35.067 11.045 23.968
PRIMET_226 2015-09-29 14:30:00 226 156.7 -14.00 202 0.718 0.453 204.200 49.230 10.100 9.100 21.370 23.3 26.10 26.350 26.540 26.640 36.820 33.290 1.986 26.30 26.590 26.800 26.800 25.88 26.110 26.290 26.450 13.000 12.070 6.086 6.563 33.809 12.361 21.361 34.903 11.558 23.284
PRIMET_226 2015-09-29 14:25:00 226 156.7 -14.00 203 0.862 0.584 222.700 45.970 9.670 8.790 21.130 22.5 25.80 26.160 26.240 26.150 36.370 33.530 1.895 25.99 26.480 26.570 26.420 25.57 25.810 25.890 25.870 13.560 11.800 6.664 6.030 33.215 12.010 21.135 33.909 11.318 22.539
PRIMET_226 2015-09-29 14:20:00 226 156.7 -14.00 201 0.557 0.444 223.800 36.420 11.990 11.010 19.430 20.4 25.93 26.020 25.940 25.980 41.950 39.360 0.947 26.11 26.230 26.130 26.080 25.70 25.800 25.690 25.840 13.420 13.020 9.160 6.573 33.471 14.015 19.430 33.570 13.135 20.357
PRIMET_226 2015-09-29 14:15:00 226 156.7 -17.50 256 0.289 0.218 226.700 40.020 11.110 10.090 19.200 20.5 25.45 25.560 25.600 25.700 40.970 37.760 0.882 25.86 26.100 26.050 25.900 25.15 25.080 25.190 25.480 13.880 13.930 5.786 6.095 32.533 13.222 19.204 33.019 12.353 20.551
PRIMET_226 2015-09-29 14:10:00 226 156.7 -17.50 196 0.759 0.237 167.100 67.200 12.080 11.000 17.960 19.5 25.23 25.140 25.290 25.540 44.040 40.360 2.234 25.61 25.530 25.630 25.660 25.02 24.810 24.950 25.350 14.650 13.740 8.260 6.847 32.110 14.099 17.969 32.707 13.126 19.506
PRIMET_226 2015-09-29 14:05:00 226 156.7 -17.50 201 0.521 0.227 231.900 60.790 12.050 11.470 19.010 19.8 25.78 25.850 25.860 25.930 42.720 40.810 2.509 26.15 26.330 26.250 26.090 25.54 25.290 25.400 25.630 14.340 14.590 5.006 6.071 33.175 14.071 19.003 33.471 13.542 19.812
PRIMET_226 2015-09-29 14:00:00 226 156.7 -20.00 209 0.465 0.160 197.200 65.610 12.070 11.040 18.540 20.0 25.53 25.640 25.670 25.830 43.300 39.850 1.333 25.77 26.040 26.110 26.030 25.34 25.430 25.460 25.650 13.860 13.580 6.496 6.783 32.687 14.089 18.534 33.274 13.161 20.014
PRIMET_226 2015-09-29 13:55:00 226 156.7 -17.50 202 0.673 0.474 212.600 44.020 11.330 11.030 19.610 20.4 25.75 25.820 25.910 26.040 40.800 39.450 2.261 25.86 26.020 26.070 26.140 25.58 25.560 25.690 25.930 13.410 13.910 5.262 5.700 33.116 13.417 19.605 33.690 13.152 20.399
PRIMET_226 2015-09-29 13:50:00 226 156.7 -15.50 199 1.003 0.892 225.300 26.900 10.860 10.280 19.910 20.8 25.75 25.960 25.890 25.950 39.860 37.850 2.417 26.04 26.400 26.300 26.170 25.57 25.680 25.650 25.690 13.550 13.860 4.368 5.158 33.116 13.004 19.916 33.511 12.511 20.827
PRIMET_226 2015-09-29 13:45:00 226 156.7 -15.50 198 0.806 0.727 206.500 25.400 12.300 11.680 18.130 18.9 25.44 25.580 25.510 25.550 44.260 42.330 1.816 25.63 25.840 25.780 25.740 25.25 25.320 25.280 25.420 14.030 14.310 6.502 6.989 32.513 14.304 18.123 32.726 13.731 18.873
PRIMET_226 2015-09-29 13:40:00 226 156.7 -21.00 312 0.435 0.316 188.700 42.390 13.510 13.210 16.630 17.0 25.25 25.210 25.220 25.300 48.280 47.280 0.947 25.41 25.390 25.350 25.390 25.11 24.900 24.960 25.190 14.610 14.730 8.540 7.727 32.148 15.483 16.627 32.244 15.183 16.999
PRIMET_226 2015-09-29 13:35:00 226 156.7 -22.50 199 0.614 0.578 217.100 19.720 12.960 12.600 17.040 17.8 25.21 25.270 25.310 25.460 46.850 45.200 1.548 25.33 25.520 25.530 25.530 25.06 25.050 25.160 25.380 14.710 14.850 7.926 7.288 32.072 14.937 17.046 32.552 14.589 17.838
PRIMET_226 2015-09-29 13:30:00 226 156.7 -22.50 201 0.211 0.181 205.800 30.480 13.110 12.530 17.270 18.2 25.37 25.200 25.210 25.580 46.650 44.500 0.947 25.58 25.410 25.390 25.720 25.28 25.010 25.030 25.530 15.160 14.960 11.390 8.360 32.378 15.085 17.274 32.785 14.522 18.195
PRIMET_226 2015-09-29 13:25:00 226 156.7 -22.50 208 0.554 0.283 192.400 56.590 12.440 10.810 18.300 20.0 25.59 25.540 25.520 25.750 44.200 39.480 0.928 25.81 25.830 25.810 25.890 25.37 25.270 25.260 25.570 14.680 14.270 7.274 6.692 32.804 14.437 18.305 33.116 12.961 20.042
PRIMET_226 2015-09-29 13:20:00 226 156.7 -22.00 210 0.691 0.520 243.900 40.290 11.600 10.420 18.800 20.6 25.50 25.540 25.620 25.900 42.380 38.230 1.849 25.75 26.030 26.130 26.140 25.32 25.170 25.230 25.690 14.460 13.380 5.716 5.880 32.629 13.659 18.801 33.412 12.629 20.638
PRIMET_226 2015-09-29 13:15:00 226 156.7 -20.00 221 0.612 0.444 245.200 42.430 10.850 10.440 19.060 20.1 25.36 25.640 25.660 25.710 41.030 38.970 1.855 25.56 26.080 26.020 25.950 24.73 25.100 25.270 25.300 14.740 14.640 5.469 6.026 32.359 12.996 19.082 33.038 12.645 20.163
PRIMET_226 2015-09-29 13:10:00 226 156.7 -16.50 200 0.441 0.373 212.600 31.800 13.090 11.850 16.380 18.3 24.89 24.960 25.080 25.290 47.930 43.330 1.359 25.11 25.380 25.440 25.420 24.65 24.740 24.860 25.190 14.040 13.800 11.860 6.508 31.467 15.065 16.385 32.225 13.886 18.262
PRIMET_226 2015-09-29 13:05:00 226 156.7 -18.00 196 0.238 0.156 207.200 47.400 13.250 13.030 16.460 17.3 25.02 25.150 25.290 25.370 48.080 46.510 0.634 25.12 25.320 25.480 25.520 24.88 24.990 25.090 25.210 14.530 15.290 10.960 9.200 31.711 15.223 16.465 32.378 15.006 17.319
PRIMET_226 2015-09-29 13:00:00 226 156.7 -16.50 224 0.396 0.366 229.600 22.140 13.180 11.740 16.270 18.2 24.91 24.950 25.110 25.220 48.330 43.310 1.183 25.03 25.280 25.420 25.340 24.80 24.630 24.750 25.040 14.950 14.650 8.950 7.631 31.504 15.154 16.278 32.091 13.786 18.192
PRIMET_226 2015-09-29 12:55:00 226 156.7 -16.50 202 0.406 0.221 199.300 54.720 13.040 12.360 16.150 17.3 24.74 24.920 24.940 25.050 48.230 45.420 1.169 24.94 25.190 25.190 25.210 24.63 24.680 24.650 24.860 15.250 15.490 10.940 9.030 31.187 15.016 16.145 31.768 14.361 17.339
PRIMET_226 2015-09-29 12:50:00 226 156.7 -16.50 194 0.634 0.508 211.500 36.100 11.260 10.900 16.660 17.8 24.16 24.290 24.410 24.610 44.720 42.470 1.973 24.66 25.080 25.170 25.040 23.89 23.750 23.840 24.310 14.470 14.130 7.928 8.320 30.123 13.355 16.652 30.945 13.039 17.803
PRIMET_226 2015-09-29 12:45:00 226 156.7 -14.50 201 0.377 0.126 190.300 66.070 13.420 12.550 15.070 16.4 24.36 24.190 24.300 24.610 50.560 47.130 0.941 24.55 24.460 24.580 24.760 24.15 23.800 23.880 24.370 15.000 14.450 11.800 9.850 30.486 15.393 15.072 30.945 14.541 16.361
PRIMET_226 2015-09-29 12:40:00 226 156.7 -14.50 208 0.568 0.151 116.800 69.360 11.750 11.230 15.400 16.7 23.75 23.920 24.020 24.220 47.600 44.650 2.457 24.26 24.890 24.960 24.840 23.35 23.160 23.290 23.720 14.730 14.390 6.658 6.894 29.391 13.795 15.401 30.232 13.328 16.733
PRIMET_226 2015-09-29 12:35:00 226 156.7 -14.50 209 0.231 0.092 81.600 62.780 13.660 12.530 13.320 15.0 23.53 23.380 23.510 23.850 54.050 49.310 0.849 23.65 23.590 23.770 24.080 23.43 23.190 23.290 23.600 15.200 14.710 11.220 7.863 29.004 15.635 13.327 29.568 14.522 14.988
PRIMET_226 2015-09-29 12:30:00 226 156.7 -14.50 200 0.279 0.125 194.400 60.190 13.320 12.830 13.700 14.4 23.53 23.560 23.600 23.660 52.770 50.720 0.817 23.70 23.840 23.890 23.850 23.14 23.280 23.350 23.410 14.440 14.220 11.720 11.260 29.004 15.293 13.699 29.232 14.811 14.406
PRIMET_226 2015-09-29 12:25:00 226 156.7 -13.50 204 0.250 0.174 125.500 44.510 13.210 12.500 13.470 14.4 23.34 23.400 23.420 23.510 53.030 50.110 0.804 23.51 23.840 23.910 23.870 23.10 23.070 23.150 23.360 15.060 14.470 11.740 11.180 28.674 15.183 13.468 28.969 14.494 14.453
PRIMET_226 2015-09-29 12:20:00 226 156.7 -10.50 200 0.799 0.637 214.100 36.480 12.640 11.820 13.300 14.8 22.97 23.320 23.450 23.430 52.550 48.600 1.542 23.40 23.790 23.870 23.820 22.68 22.930 23.100 23.090 15.050 15.400 7.551 8.010 28.040 14.627 13.305 28.830 13.859 14.819
PRIMET_226 2015-09-29 12:15:00 226 156.7 -10.50 197 0.772 0.706 219.600 23.630 13.430 13.410 11.320 12.2 22.22 22.540 22.690 22.730 57.790 55.910 2.182 22.57 23.140 23.250 23.000 21.90 22.050 22.290 22.520 14.920 15.220 8.610 8.500 26.793 15.403 11.309 27.636 15.383 12.184
PRIMET_226 2015-09-29 12:10:00 226 156.7 -10.50 204 0.509 0.438 200.600 30.330 13.670 13.010 10.470 12.0 21.81 21.940 22.140 22.340 59.930 55.620 0.954 21.89 22.140 22.360 22.520 21.70 21.770 21.970 22.240 15.190 14.080 12.470 10.270 26.132 15.646 10.471 26.989 14.986 11.978
PRIMET_226 2015-09-29 12:05:00 226 156.7 -10.50 205 0.698 0.523 192.600 40.560 12.610 12.230 10.920 12.2 21.47 21.820 22.000 22.070 57.340 53.890 1.627 21.82 22.210 22.410 22.370 21.26 21.490 21.690 21.850 14.270 14.060 8.640 8.530 25.594 14.599 10.918 26.549 14.239 12.242
PRIMET_226 2015-09-29 12:00:00 226 156.7 -10.50 224 0.636 0.507 203.500 36.460 12.740 12.180 10.540 11.8 21.28 21.670 21.720 21.740 58.320 54.700 1.320 21.41 21.940 21.950 21.870 21.02 21.480 21.570 21.440 13.850 13.680 8.970 9.150 25.298 14.724 10.544 26.020 14.192 11.787
PRIMET_226 2015-09-29 11:55:00 226 156.7 -14.00 221 0.600 0.534 192.000 26.770 12.680 12.370 10.040 10.9 20.91 21.190 21.240 21.280 59.420 56.930 1.718 20.99 21.360 21.450 21.370 20.84 21.020 21.090 21.170 13.760 13.530 9.600 8.840 24.730 14.666 10.035 25.298 14.370 10.896
PRIMET_226 2015-09-29 11:50:00 226 156.7 -14.50 202 0.404 0.174 160.300 61.110 12.810 12.110 9.760 10.8 20.79 21.010 21.110 21.070 60.260 56.580 0.993 21.00 21.320 21.370 21.230 20.67 20.790 20.940 20.970 13.520 13.280 11.960 11.230 24.548 14.791 9.755 24.974 14.127 10.844
PRIMET_226 2015-09-29 11:45:00 226 156.7 -16.00 197 0.343 0.235 195.400 45.440 12.770 12.070 9.270 10.5 20.44 20.730 20.840 20.830 61.440 57.300 0.738 20.67 20.930 21.000 20.990 20.31 20.510 20.630 20.590 13.720 12.960 11.950 9.940 24.025 14.753 9.264 24.609 14.089 10.508
PRIMET_226 2015-09-29 11:40:00 226 156.7 -16.00 205 0.226 0.161 178.200 43.290 12.280 11.940 9.420 10.3 20.23 20.390 20.500 20.600 60.270 57.630 0.843 20.31 20.560 20.650 20.670 20.16 20.200 20.300 20.560 13.040 13.170 11.350 10.960 23.715 14.286 9.422 24.263 13.969 10.280
PRIMET_226 2015-09-29 11:35:00 226 156.7 -16.00 200 0.563 0.421 180.300 40.580 12.140 11.380 9.260 10.8 20.04 20.240 20.450 20.600 60.470 55.540 1.542 20.19 20.580 20.850 20.740 19.91 19.990 20.210 20.510 13.290 13.400 10.380 10.230 23.438 14.154 9.265 24.263 13.461 10.787
PRIMET_226 2015-09-29 11:30:00 226 156.7 -16.00 196 0.445 0.312 168.000 44.290 12.010 10.850 8.980 10.7 19.76 20.080 20.300 20.220 60.990 54.890 1.163 20.07 20.550 20.770 20.660 19.52 19.630 19.830 19.800 13.550 13.010 10.650 9.160 23.035 14.034 8.986 23.701 12.996 10.691
PRIMET_226 2015-09-29 11:25:00 226 156.7 -16.50 192 0.097 0.094 159.500 14.600 11.980 11.180 8.410 9.2 19.32 19.420 19.480 19.400 62.500 59.010 0.536 19.54 19.650 19.810 19.750 19.14 19.180 19.180 19.120 12.920 12.250 11.040 10.560 22.414 14.006 8.405 22.526 13.284 9.233
PRIMET_226 2015-09-29 11:20:00 226 156.7 -16.50 198 0.192 0.172 158.500 26.160 12.010 11.410 7.964 8.5 19.02 19.140 19.100 18.990 63.810 61.470 0.477 19.08 19.330 19.270 19.100 18.92 18.940 18.900 18.880 12.910 12.730 11.160 10.790 21.999 14.034 7.961 21.958 13.488 8.460
PRIMET_226 2015-09-29 11:15:00 226 156.7 -17.50 198 0.097 0.096 155.500 8.990 12.110 11.310 7.485 8.2 18.74 18.910 18.850 18.730 65.390 62.030 0.568 18.94 19.190 19.140 18.950 18.59 18.710 18.660 18.600 13.180 11.820 11.040 10.870 21.618 14.127 7.482 21.604 13.399 8.203
PRIMET_226 2015-09-29 11:10:00 226 156.7 -19.50 197 0.012 0.012 167.300 9.880 11.830 10.960 7.248 8.3 18.37 18.640 18.630 18.540 65.690 61.330 0.124 18.57 18.800 18.750 18.610 18.25 18.500 18.520 18.420 12.790 11.500 10.880 10.380 21.123 13.868 7.247 21.349 13.091 8.256
PRIMET_226 2015-09-29 11:05:00 226 156.7 -19.50 199 0.039 0.039 170.400 1.379 11.960 11.080 6.736 7.7 18.07 18.300 18.320 18.210 67.510 63.130 0.301 18.26 18.590 18.550 18.410 17.94 18.060 18.160 18.060 13.330 12.000 11.030 10.290 20.729 13.988 6.735 20.912 13.196 7.710
PRIMET_226 2015-09-29 11:00:00 226 156.7 -18.50 197 0.034 0.034 152.900 4.032 11.720 10.910 6.555 7.3 17.76 17.960 17.980 17.810 67.760 64.030 0.274 18.02 18.240 18.300 18.040 17.56 17.800 17.810 17.650 12.620 11.910 10.980 10.290 20.328 13.768 6.554 20.393 13.048 7.335
PRIMET_226 2015-09-29 10:55:00 226 156.7 -20.00 230 0.155 0.153 144.500 9.240 11.500 10.840 6.283 7.0 17.39 17.570 17.600 17.460 68.350 65.110 0.399 17.53 17.780 17.830 17.640 17.24 17.360 17.400 17.310 12.790 11.130 10.750 10.470 19.859 13.569 6.286 19.947 12.987 6.960
PRIMET_226 2015-09-29 10:50:00 226 156.7 -20.00 205 0.233 0.223 136.700 16.730 11.650 10.760 5.682 6.8 17.01 17.280 17.380 17.260 70.700 65.630 0.529 17.18 17.480 17.490 17.330 16.86 17.140 17.220 17.170 12.620 11.420 10.590 9.820 19.388 13.704 5.681 19.697 12.918 6.770
PRIMET_226 2015-09-29 10:45:00 226 156.7 -20.00 214 0.021 0.021 155.400 1.535 11.200 10.100 5.763 7.2 16.75 17.100 17.300 17.110 69.790 63.360 0.287 16.91 17.310 17.480 17.270 16.60 16.950 17.170 16.950 12.380 10.980 10.250 9.510 19.071 13.302 5.761 19.511 12.361 7.149
PRIMET_226 2015-09-29 10:40:00 226 156.7 -20.00 201 0.007 0.007 157.900 0.108 11.650 10.480 4.846 6.3 16.32 16.640 16.880 16.710 73.890 66.700 0.007 16.56 16.930 17.140 16.930 16.06 16.360 16.610 16.500 12.770 11.080 10.890 10.170 18.556 13.704 4.845 19.022 12.679 6.334
PRIMET_226 2015-09-29 10:35:00 226 156.7 -20.00 217 0.007 0.007 155.200 2.784 11.430 10.920 4.474 5.5 15.83 16.220 16.450 16.340 75.120 70.270 0.007 16.06 16.350 16.590 16.480 15.62 16.010 16.240 16.170 12.500 11.450 10.800 10.540 17.985 13.506 4.475 18.580 13.056 5.524
PRIMET_226 2015-09-29 10:30:00 226 156.7 -19.50 199 0.007 0.007 152.000 0.108 11.190 10.850 4.227 5.1 15.42 15.950 16.170 15.940 75.870 71.750 0.007 15.65 16.120 16.340 16.170 15.17 15.710 15.970 15.760 11.810 11.310 10.890 10.420 17.518 13.293 4.227 18.112 12.996 5.117
PRIMET_226 2015-09-29 10:25:00 226 156.7 -19.50 206 0.007 0.007 152.000 0.040 11.030 10.840 3.747 4.7 14.86 15.450 15.750 15.530 77.840 73.640 0.007 15.15 15.730 15.970 15.730 14.58 15.260 15.600 15.340 11.370 11.230 10.770 10.440 16.899 13.152 3.745 17.642 12.987 4.651
PRIMET_226 2015-09-29 10:20:00 226 156.7 -20.50 217 0.007 0.007 152.000 0.040 10.850 10.830 3.217 4.2 14.22 15.000 15.300 15.130 80.200 75.470 0.007 14.55 15.280 15.610 15.320 13.94 14.780 15.070 14.990 11.150 11.050 10.760 10.650 16.214 12.996 3.210 17.195 12.979 4.218
PRIMET_226 2015-09-29 10:15:00 226 156.7 -20.50 192 0.007 0.007 151.900 0.056 10.570 10.710 2.911 3.9 13.69 14.620 14.910 14.730 81.400 76.830 0.007 13.91 14.880 15.170 14.990 13.62 14.490 14.710 14.530 10.790 10.920 10.320 10.360 15.666 12.756 2.914 16.758 12.875 3.883
PRIMET_226 2015-09-29 10:10:00 226 156.7 -20.50 205 0.007 0.007 151.600 0.489 10.590 10.600 2.977 3.5 13.77 14.270 14.470 14.320 81.100 78.320 0.007 13.83 14.460 14.680 14.490 13.67 14.170 14.370 14.130 10.970 11.010 10.430 10.230 15.748 12.773 2.976 16.320 12.781 3.538
PRIMET_226 2015-09-29 10:05:00 226 156.7 -21.00 186 0.007 0.007 150.800 0.000 10.440 10.680 2.942 3.0 13.61 14.020 14.130 13.880 81.100 81.000 0.007 13.76 14.190 14.360 14.110 13.38 13.780 13.890 13.650 10.860 10.920 10.260 10.370 15.585 12.645 2.945 15.861 12.850 3.014
PRIMET_226 2015-09-29 10:00:00 226 156.7 -21.00 199 0.007 0.007 150.700 0.446 10.440 10.710 2.514 2.5 13.19 13.580 13.620 13.390 83.400 83.800 0.007 13.38 13.730 13.840 13.600 12.99 13.450 13.490 13.210 10.900 11.000 10.180 10.430 15.164 12.645 2.517 15.363 12.875 2.489
PRIMET_226 2015-09-29 09:55:00 226 156.7 -20.50 195 0.007 0.007 149.800 1.758 10.160 10.310 2.181 2.4 12.60 13.110 13.190 12.920 85.100 84.100 0.007 12.93 13.440 13.450 13.160 12.29 12.830 12.940 12.720 10.790 10.580 9.980 9.950 14.589 12.411 2.174 14.898 12.536 2.369
PRIMET_226 2015-09-29 09:50:00 226 156.7 -20.50 210 0.007 0.007 152.000 0.048 10.020 10.180 1.480 2.0 11.72 12.380 12.640 12.490 89.300 85.900 0.007 12.25 12.810 12.930 12.700 11.18 11.890 12.330 12.270 10.560 10.370 9.660 9.790 13.768 12.295 1.473 14.484 12.428 2.042
PRIMET_226 2015-09-29 09:45:00 226 156.7 -20.50 194 0.007 0.007 151.300 3.207 9.500 10.060 0.849 1.8 10.53 11.190 11.810 12.090 93.300 87.400 0.007 11.11 11.830 12.290 12.250 10.03 10.650 11.370 11.950 9.830 10.200 9.210 9.890 12.722 11.873 0.852 14.108 12.328 1.778
PRIMET_226 2015-09-29 09:40:00 226 156.7 -20.00 223 0.007 0.006 117.800 9.580 8.930 10.030 0.714 1.5 9.83 10.460 11.130 11.760 94.100 89.200 0.007 9.99 10.620 11.340 11.930 9.75 10.400 11.050 11.560 9.200 10.160 8.750 9.870 12.140 11.426 0.716 13.804 12.303 1.491
PRIMET_226 2015-09-29 09:35:00 226 156.7 -20.00 193 0.007 0.006 95.700 16.440 8.630 9.840 0.918 1.5 9.80 10.510 11.340 11.570 92.400 89.100 0.007 9.91 10.720 11.570 11.610 9.75 10.390 11.130 11.540 8.740 10.040 8.560 9.720 12.115 11.196 0.921 13.632 12.148 1.486
PRIMET_226 2015-09-29 09:30:00 226 156.7 -19.00 199 0.007 0.007 73.650 0.069 8.550 9.740 1.130 1.4 9.98 10.940 11.420 11.400 90.800 89.500 0.007 10.06 11.040 11.560 11.600 9.92 10.750 11.290 11.140 8.610 9.880 8.480 9.570 12.262 11.135 1.128 13.479 12.066 1.415
PRIMET_226 2015-09-29 09:25:00 226 156.7 -17.50 194 0.007 0.007 73.610 0.093 8.460 9.550 1.174 1.1 9.96 10.860 11.140 10.920 90.400 91.300 0.007 10.08 11.030 11.320 11.130 9.72 10.660 10.920 10.710 8.500 9.750 8.440 9.270 12.246 11.068 1.176 13.056 11.913 1.136
PRIMET_226 2015-09-29 09:20:00 226 156.7 -15.50 187 0.007 0.007 73.500 0.063 8.540 9.270 0.567 1.0 9.27 10.240 10.660 10.470 95.200 92.300 0.007 9.68 10.620 10.940 10.710 8.81 9.770 10.270 10.170 8.620 9.430 8.420 9.110 11.691 11.128 0.561 12.671 11.691 0.976
PRIMET_226 2015-09-29 09:15:00 226 156.7 -12.50 200 0.007 0.007 73.100 0.481 7.972 8.860 0.281 0.7 8.35 9.140 9.620 9.740 97.400 94.200 0.007 8.76 9.700 10.210 10.130 8.05 8.670 9.120 9.480 8.380 9.110 7.604 8.600 10.985 10.707 0.286 12.066 11.372 0.700
PRIMET_226 2015-09-29 09:10:00 226 156.7 -8.50 200 0.007 0.007 72.510 0.069 7.491 8.650 0.315 0.3 7.93 8.470 8.770 9.050 97.100 97.400 0.007 8.04 8.650 9.070 9.440 7.83 8.320 8.570 8.680 7.604 8.820 7.377 8.310 10.676 10.361 0.310 11.519 11.211 0.299
PRIMET_226 2015-09-29 09:05:00 226 156.7 -4.00 198 0.007 0.007 72.480 0.069 7.296 8.110 0.374 0.4 7.82 8.330 8.600 8.680 96.500 96.200 0.007 7.85 8.420 8.720 8.780 7.80 8.280 8.540 8.620 7.383 8.290 7.235 8.020 10.598 10.223 0.371 11.234 10.808 0.427
PRIMET_226 2015-09-29 09:00:00 226 156.7 -1.50 198 0.007 0.007 72.490 0.063 7.467 8.090 0.281 0.5 7.86 8.560 8.880 8.810 97.400 95.200 0.007 7.92 8.740 9.120 8.870 7.82 8.430 8.740 8.760 7.829 8.170 7.239 8.020 10.626 10.344 0.276 11.333 10.793 0.544
PRIMET_226 2015-09-29 08:55:00 226 156.7 -1.00 193 0.007 0.007 72.470 0.069 7.850 8.310 0.005 0.3 7.86 8.680 9.050 8.650 100.000 97.800 0.007 7.95 8.830 9.220 8.850 7.69 8.330 8.710 8.380 7.930 8.400 7.686 8.190 10.623 10.618 0.000 11.211 10.956 0.247
PRIMET_226 2015-09-29 08:50:00 226 156.7 -0.50 193 0.007 0.007 72.450 0.069 7.441 7.928 0.000 0.0 7.44 7.849 8.170 7.928 100.000 100.000 0.007 7.68 8.300 8.670 8.360 7.05 7.344 7.631 7.460 7.677 8.360 7.053 7.460 10.325 10.325 0.000 10.675 10.675 0.000
PRIMET_226 2015-09-29 08:45:00 226 156.7 -0.50 198 0.066 0.066 72.410 0.084 6.634 6.948 0.000 0.0 6.63 6.866 7.074 6.948 100.000 100.000 0.301 7.00 7.302 7.576 7.410 6.45 6.615 6.778 6.627 7.000 7.410 6.453 6.627 9.769 9.769 0.000 9.982 9.982 0.000
PRIMET_226 2015-09-29 08:40:00 226 156.7 0.50 198 0.007 0.007 72.430 0.074 6.320 6.482 0.000 0.0 6.32 6.478 6.651 6.482 100.000 100.000 0.007 6.44 6.607 6.763 6.607 6.21 6.365 6.550 6.376 6.440 6.607 6.206 6.376 9.560 9.560 0.000 9.667 9.667 0.000
PRIMET_226 2015-09-29 08:35:00 226 156.7 1.50 197 0.007 0.007 72.380 0.069 6.111 6.265 0.000 0.0 6.11 6.260 6.446 6.265 100.000 100.000 0.007 6.20 6.353 6.540 6.366 6.03 6.174 6.361 6.163 6.196 6.366 6.030 6.163 9.423 9.423 0.000 9.523 9.523 0.000
PRIMET_226 2015-09-29 08:30:00 226 156.7 2.50 198 0.007 0.007 72.380 0.069 5.942 6.069 0.000 0.0 5.94 6.088 6.255 6.069 100.000 100.000 0.007 6.02 6.166 6.337 6.156 5.87 6.018 6.179 6.013 6.020 6.156 5.870 6.013 9.313 9.313 0.000 9.395 9.395 0.000
PRIMET_226 2015-09-29 08:25:00 226 156.7 4.00 193 0.007 0.007 72.380 0.079 5.824 5.956 0.000 0.0 5.82 5.955 6.126 5.956 100.000 100.000 0.007 5.87 6.016 6.176 6.000 5.79 5.919 6.091 5.926 5.873 6.000 5.793 5.926 9.237 9.237 0.000 9.322 9.322 0.000
PRIMET_226 2015-09-29 08:20:00 226 156.7 8.00 205 0.007 0.007 72.380 0.069 5.762 5.890 0.000 0.0 5.76 5.894 6.062 5.890 100.000 100.000 0.007 5.79 5.917 6.093 5.916 5.72 5.884 6.042 5.870 5.790 5.916 5.719 5.870 9.198 9.198 0.000 9.280 9.280 0.000
PRIMET_226 2015-09-29 08:15:00 226 156.7 14.50 214 0.007 0.007 72.380 0.074 5.691 5.854 0.000 0.0 5.69 5.859 6.023 5.854 100.000 100.000 0.007 5.74 5.892 6.045 5.863 5.64 5.815 6.008 5.843 5.739 5.863 5.643 5.843 9.152 9.152 0.000 9.256 9.256 0.000
PRIMET_226 2015-09-29 08:10:00 226 156.7 18.00 204 0.007 0.007 72.380 0.063 5.639 5.835 0.000 0.0 5.64 5.799 6.002 5.835 100.000 100.000 0.007 5.66 5.823 6.017 5.850 5.61 5.782 5.979 5.823 5.659 5.850 5.613 5.823 9.119 9.119 0.000 9.244 9.244 0.000
PRIMET_226 2015-09-29 08:05:00 226 156.7 19.50 200 0.007 0.007 72.380 0.063 5.675 5.825 0.000 0.0 5.68 5.802 5.984 5.825 100.000 100.000 0.007 5.69 5.819 5.992 5.836 5.66 5.785 5.974 5.816 5.689 5.836 5.659 5.816 9.142 9.142 0.000 9.238 9.238 0.000
PRIMET_226 2015-09-29 08:00:00 226 156.7 20.00 199 0.007 0.007 72.380 0.063 5.642 5.802 0.000 0.0 5.64 5.778 5.966 5.802 100.000 100.000 0.007 5.67 5.809 5.993 5.833 5.62 5.739 5.921 5.773 5.666 5.833 5.619 5.773 9.121 9.121 0.000 9.223 9.223 0.000
PRIMET_226 2015-09-29 07:55:00 226 156.7 21.00 235 0.007 0.007 72.370 0.063 5.637 5.762 0.000 0.0 5.64 5.746 5.918 5.762 100.000 100.000 0.007 5.65 5.755 5.931 5.776 5.62 5.737 5.905 5.743 5.649 5.776 5.623 5.743 9.118 9.118 0.000 9.198 9.198 0.000
PRIMET_226 2015-09-29 07:50:00 226 156.7 22.00 189 0.007 0.007 72.360 0.063 5.623 5.744 0.000 0.0 5.62 5.732 5.892 5.744 100.000 100.000 0.007 5.64 5.747 5.908 5.760 5.60 5.717 5.876 5.733 5.636 5.759 5.603 5.733 9.109 9.109 0.000 9.186 9.186 0.000
PRIMET_226 2015-09-29 07:45:00 226 156.7 24.00 268 0.007 0.007 72.360 0.063 5.581 5.708 0.000 0.0 5.58 5.690 5.852 5.708 100.000 100.000 0.007 5.61 5.715 5.880 5.736 5.56 5.658 5.813 5.663 5.606 5.736 5.563 5.663 9.083 9.083 0.000 9.163 9.163 0.000
PRIMET_226 2015-09-29 07:40:00 226 156.7 24.50 302 0.007 0.007 72.360 0.074 5.530 5.630 0.000 0.0 5.53 5.634 5.781 5.630 100.000 100.000 0.007 5.57 5.668 5.813 5.656 5.50 5.605 5.758 5.606 5.569 5.656 5.499 5.606 9.051 9.051 0.000 9.114 9.114 0.000
PRIMET_226 2015-09-29 07:35:00 226 156.7 23.50 307 0.007 0.007 72.360 0.069 5.490 5.603 0.000 0.0 5.49 5.605 5.758 5.603 100.000 100.000 0.007 5.51 5.613 5.766 5.616 5.47 5.592 5.747 5.586 5.506 5.616 5.473 5.586 9.026 9.026 0.000 9.097 9.097 0.000
PRIMET_226 2015-09-29 07:30:00 226 156.7 23.00 259 0.007 0.007 72.360 0.074 5.461 5.569 0.000 0.0 5.46 5.584 5.739 5.569 100.000 100.000 0.007 5.49 5.608 5.766 5.603 5.44 5.545 5.697 5.529 5.486 5.603 5.439 5.529 9.007 9.007 0.000 9.075 9.075 0.000
PRIMET_226 2015-09-29 07:25:00 226 156.7 23.50 246 0.007 0.007 72.360 0.069 5.431 5.515 0.000 0.0 5.43 5.523 5.689 5.515 100.000 100.000 0.007 5.45 5.547 5.705 5.529 5.40 5.496 5.664 5.496 5.453 5.529 5.403 5.496 8.989 8.989 0.000 9.041 9.041 0.000
PRIMET_226 2015-09-29 07:20:00 226 156.7 24.50 252 0.007 0.007 72.360 0.069 5.402 5.489 0.000 0.0 5.40 5.492 5.654 5.489 100.000 100.000 0.007 5.43 5.501 5.664 5.503 5.37 5.480 5.643 5.476 5.426 5.503 5.369 5.476 8.970 8.970 0.000 9.025 9.025 0.000
PRIMET_226 2015-09-29 07:15:00 226 156.7 24.50 254 0.007 0.007 72.360 0.069 5.350 5.474 0.000 0.0 5.35 5.471 5.638 5.474 100.000 100.000 0.007 5.38 5.496 5.654 5.486 5.33 5.449 5.620 5.459 5.376 5.486 5.329 5.459 8.938 8.938 0.000 9.015 9.015 0.000
PRIMET_226 2015-09-29 07:10:00 226 156.7 25.00 269 0.007 0.007 72.360 0.063 5.349 5.478 0.000 0.0 5.35 5.475 5.641 5.478 100.000 100.000 0.007 5.36 5.499 5.664 5.496 5.33 5.452 5.615 5.459 5.362 5.496 5.326 5.459 8.937 8.937 0.000 9.018 9.018 0.000
PRIMET_226 2015-09-29 07:05:00 226 156.7 24.50 228 0.007 0.007 72.360 0.069 5.350 5.465 0.000 0.0 5.35 5.477 5.641 5.465 100.000 100.000 0.007 5.37 5.489 5.655 5.486 5.33 5.466 5.627 5.449 5.369 5.486 5.326 5.449 8.938 8.938 0.000 9.010 9.010 0.000
PRIMET_226 2015-09-29 07:00:00 226 156.7 24.50 266 0.007 0.007 72.360 0.069 5.343 5.425 0.000 0.0 5.34 5.444 5.602 5.425 100.000 100.000 0.007 5.36 5.467 5.632 5.449 5.31 5.418 5.573 5.406 5.363 5.449 5.313 5.406 8.934 8.934 0.000 8.985 8.985 0.000
PRIMET_226 2015-09-29 06:55:00 226 156.7 24.00 267 0.007 0.007 72.360 0.063 5.305 5.398 0.000 0.0 5.30 5.409 5.558 5.398 100.000 100.000 0.007 5.33 5.426 5.573 5.416 5.28 5.382 5.537 5.376 5.329 5.416 5.276 5.376 8.910 8.910 0.000 8.968 8.968 0.000
PRIMET_226 2015-09-29 06:50:00 226 156.7 24.00 246 0.007 0.007 72.350 0.074 5.274 5.385 0.000 0.0 5.27 5.365 5.525 5.385 100.000 100.000 0.007 5.30 5.383 5.543 5.396 5.25 5.333 5.501 5.373 5.296 5.396 5.253 5.373 8.891 8.891 0.000 8.960 8.960 0.000
PRIMET_226 2015-09-29 06:45:00 226 156.7 24.00 237 0.007 0.007 72.360 0.074 5.292 5.372 0.000 0.0 5.29 5.346 5.500 5.372 100.000 100.000 0.007 5.31 5.367 5.523 5.383 5.27 5.329 5.486 5.359 5.313 5.383 5.269 5.359 8.902 8.902 0.000 8.952 8.952 0.000
PRIMET_226 2015-09-29 06:40:00 226 156.7 24.00 240 0.007 0.007 72.350 0.074 5.318 5.380 0.000 0.0 5.32 5.386 5.533 5.380 100.000 100.000 0.007 5.33 5.397 5.547 5.389 5.30 5.370 5.518 5.369 5.329 5.389 5.302 5.369 8.918 8.918 0.000 8.957 8.957 0.000
PRIMET_226 2015-09-29 06:35:00 226 156.7 24.00 235 0.007 0.007 72.360 0.069 5.288 5.360 0.000 0.0 5.29 5.367 5.510 5.360 100.000 100.000 0.007 5.33 5.379 5.521 5.379 5.26 5.351 5.501 5.335 5.326 5.379 5.255 5.335 8.900 8.900 0.000 8.944 8.944 0.000
PRIMET_226 2015-09-29 06:30:00 226 156.7 24.00 245 0.007 0.007 72.350 0.074 5.253 5.359 0.000 0.0 5.25 5.346 5.509 5.359 100.000 100.000 0.007 5.27 5.361 5.519 5.375 5.24 5.335 5.498 5.342 5.268 5.375 5.241 5.342 8.878 8.878 0.000 8.944 8.944 0.000
PRIMET_226 2015-09-29 06:25:00 226 156.7 24.00 247 0.007 0.007 72.360 0.069 5.273 5.364 0.000 0.0 5.27 5.349 5.498 5.364 100.000 100.000 0.007 5.30 5.363 5.515 5.375 5.25 5.327 5.482 5.354 5.298 5.375 5.254 5.354 8.890 8.890 0.000 8.947 8.947 0.000
PRIMET_226 2015-09-29 06:20:00 226 156.7 23.50 231 0.007 0.007 72.350 0.069 5.276 5.381 0.000 0.0 5.28 5.347 5.514 5.381 100.000 100.000 0.007 5.30 5.360 5.528 5.406 5.25 5.335 5.503 5.361 5.299 5.406 5.254 5.361 8.892 8.892 0.000 8.957 8.957 0.000
PRIMET_226 2015-09-29 06:15:00 226 156.7 23.00 260 0.007 0.007 72.360 0.069 5.303 5.390 0.000 0.0 5.30 5.359 5.521 5.390 100.000 100.000 0.007 5.32 5.376 5.533 5.402 5.28 5.334 5.509 5.379 5.325 5.402 5.278 5.379 8.909 8.909 0.000 8.963 8.963 0.000
PRIMET_226 2015-09-29 06:10:00 226 156.7 21.50 233 0.007 0.007 72.360 0.056 5.282 5.385 0.000 0.0 5.28 5.321 5.497 5.385 100.000 100.000 0.007 5.30 5.339 5.513 5.394 5.26 5.303 5.487 5.377 5.297 5.394 5.264 5.377 8.896 8.896 0.000 8.960 8.960 0.000
PRIMET_226 2015-09-29 06:05:00 226 156.7 21.00 234 0.007 0.007 72.350 0.056 5.324 5.399 0.000 0.0 5.32 5.368 5.540 5.399 100.000 100.000 0.007 5.35 5.417 5.579 5.429 5.29 5.319 5.507 5.373 5.349 5.429 5.287 5.373 8.922 8.922 0.000 8.969 8.969 0.000
PRIMET_226 2015-09-29 06:00:00 226 156.7 20.00 231 0.007 0.007 72.360 0.056 5.321 5.414 0.001 0.0 5.32 5.404 5.574 5.414 100.000 100.000 0.007 5.34 5.419 5.590 5.429 5.30 5.383 5.556 5.396 5.343 5.429 5.297 5.396 8.921 8.920 0.000 8.978 8.978 0.000
PRIMET_226 2015-09-29 05:55:00 226 156.7 20.00 231 0.007 0.007 72.360 0.063 5.348 5.433 0.001 0.0 5.35 5.403 5.583 5.433 100.000 100.000 0.007 5.40 5.432 5.600 5.460 5.32 5.387 5.560 5.409 5.398 5.460 5.315 5.409 8.938 8.937 0.000 8.990 8.990 0.000
PRIMET_226 2015-09-29 05:50:00 226 156.7 18.00 245 0.007 0.007 72.360 0.063 5.422 5.473 0.001 0.0 5.42 5.460 5.615 5.473 100.000 100.000 0.007 5.44 5.483 5.640 5.496 5.39 5.429 5.584 5.453 5.442 5.496 5.386 5.453 8.984 8.983 0.000 9.015 9.015 0.000
PRIMET_226 2015-09-29 05:45:00 226 156.7 18.00 228 0.007 0.007 72.360 0.063 5.423 5.503 0.002 0.0 5.43 5.469 5.634 5.503 100.000 100.000 0.007 5.44 5.485 5.648 5.519 5.42 5.454 5.611 5.489 5.434 5.519 5.412 5.489 8.986 8.984 0.000 9.034 9.034 0.000
PRIMET_226 2015-09-29 05:40:00 226 156.7 17.00 232 0.007 0.007 72.370 0.069 5.453 5.540 0.003 0.0 5.46 5.496 5.648 5.540 100.000 100.000 0.007 5.48 5.517 5.667 5.562 5.44 5.474 5.626 5.509 5.472 5.562 5.440 5.509 9.006 9.002 0.000 9.057 9.057 0.000
PRIMET_226 2015-09-29 05:35:00 226 156.7 15.50 240 0.007 0.007 72.360 0.069 5.469 5.588 0.004 0.0 5.48 5.534 5.707 5.588 100.000 100.000 0.007 5.50 5.548 5.734 5.619 5.46 5.514 5.661 5.559 5.490 5.619 5.455 5.559 9.017 9.012 0.000 9.087 9.087 0.000
PRIMET_226 2015-09-29 05:30:00 226 156.7 13.00 220 0.007 0.007 72.370 0.063 5.514 5.634 0.005 0.0 5.52 5.573 5.746 5.634 99.900 100.000 0.007 5.56 5.592 5.768 5.672 5.49 5.542 5.723 5.612 5.555 5.672 5.483 5.612 9.045 9.041 0.009 9.116 9.116 0.000
PRIMET_226 2015-09-29 05:25:00 226 156.7 11.50 214 0.007 0.007 72.380 0.056 5.563 5.698 0.006 0.0 5.57 5.642 5.824 5.698 99.900 100.000 0.007 5.60 5.675 5.871 5.716 5.54 5.595 5.765 5.659 5.583 5.716 5.528 5.659 9.078 9.071 0.009 9.157 9.157 0.000
PRIMET_226 2015-09-29 05:20:00 226 156.7 10.50 211 0.007 0.007 72.370 0.069 5.543 5.649 0.009 0.0 5.56 5.620 5.779 5.649 99.900 100.000 0.007 5.58 5.667 5.856 5.696 5.54 5.607 5.754 5.629 5.563 5.696 5.527 5.629 9.068 9.059 0.009 9.126 9.126 0.000
PRIMET_226 2015-09-29 05:15:00 226 156.7 10.00 231 0.007 0.007 72.370 0.063 5.565 5.655 0.010 0.0 5.58 5.620 5.779 5.655 99.900 100.000 0.007 5.61 5.635 5.803 5.679 5.56 5.612 5.765 5.636 5.596 5.679 5.545 5.636 9.083 9.073 0.009 9.130 9.130 0.000
PRIMET_226 2015-09-29 05:10:00 226 156.7 8.50 228 0.007 0.007 72.370 0.063 5.610 5.698 0.011 0.0 5.63 5.678 5.833 5.698 99.900 100.000 0.007 5.66 5.700 5.856 5.735 5.59 5.643 5.808 5.679 5.640 5.735 5.575 5.679 9.112 9.101 0.009 9.157 9.157 0.000
PRIMET_226 2015-09-29 05:05:00 226 156.7 6.50 208 0.007 0.007 72.370 0.063 5.642 5.741 0.015 0.0 5.67 5.715 5.869 5.741 99.800 100.000 0.007 5.68 5.735 5.893 5.778 5.64 5.699 5.852 5.719 5.662 5.778 5.623 5.719 9.137 9.121 0.018 9.184 9.184 0.000
PRIMET_226 2015-09-29 05:00:00 226 156.7 5.50 232 0.007 0.007 72.370 0.063 5.639 5.767 0.020 0.0 5.67 5.733 5.886 5.767 99.800 100.000 0.007 5.68 5.753 5.904 5.778 5.66 5.706 5.864 5.752 5.656 5.778 5.624 5.752 9.140 9.119 0.018 9.201 9.201 0.000
PRIMET_226 2015-09-29 04:55:00 226 156.7 4.00 205 0.007 0.007 72.370 0.074 5.635 5.788 0.027 0.0 5.68 5.774 5.926 5.788 99.700 100.000 0.007 5.70 5.789 5.952 5.816 5.65 5.734 5.879 5.765 5.659 5.816 5.603 5.765 9.144 9.117 0.027 9.214 9.214 0.000
PRIMET_226 2015-09-29 04:50:00 226 156.7 2.00 231 0.007 0.007 72.370 0.063 5.581 5.832 0.034 0.0 5.63 5.798 5.973 5.832 99.600 100.000 0.007 5.66 5.818 6.001 5.865 5.61 5.786 5.952 5.799 5.612 5.865 5.552 5.799 9.116 9.083 0.036 9.242 9.242 0.000
PRIMET_226 2015-09-29 04:45:00 226 156.7 0.50 199 0.007 0.007 72.370 0.074 5.687 5.885 0.029 0.0 5.73 5.838 6.007 5.885 99.700 100.000 0.007 5.81 5.856 6.016 5.908 5.64 5.812 5.993 5.859 5.766 5.908 5.590 5.859 9.179 9.150 0.028 9.276 9.276 0.000
PRIMET_226 2015-09-29 04:40:00 226 156.7 -0.50 208 0.007 0.007 72.370 0.074 5.789 5.919 0.028 0.0 5.83 5.855 6.023 5.919 99.700 100.000 0.007 5.86 5.899 6.060 5.940 5.80 5.829 5.995 5.891 5.816 5.940 5.750 5.891 9.242 9.215 0.028 9.298 9.298 0.000
PRIMET_226 2015-09-29 04:35:00 226 156.7 -1.50 210 0.007 0.007 72.370 0.074 5.811 5.937 0.031 0.0 5.86 5.921 6.078 5.937 99.700 100.000 0.007 5.88 5.946 6.098 5.951 5.83 5.886 6.039 5.914 5.835 5.951 5.783 5.914 9.260 9.229 0.028 9.310 9.310 0.000
PRIMET_226 2015-09-29 04:30:00 226 156.7 -1.50 188 0.007 0.007 72.370 0.069 5.810 5.940 0.034 0.0 5.86 5.915 6.070 5.940 99.600 100.000 0.007 5.89 5.937 6.098 5.965 5.84 5.876 6.021 5.907 5.832 5.965 5.785 5.907 9.263 9.228 0.037 9.312 9.312 0.000
PRIMET_226 2015-09-29 04:25:00 226 156.7 -1.00 196 0.007 0.007 72.370 0.074 5.842 5.986 0.037 0.0 5.90 5.963 6.117 5.986 99.600 100.000 0.007 5.93 5.997 6.137 6.017 5.87 5.935 6.096 5.961 5.871 6.017 5.808 5.961 9.286 9.249 0.037 9.341 9.341 0.000
PRIMET_226 2015-09-29 04:20:00 226 156.7 -1.00 197 0.007 0.007 72.370 0.074 5.873 6.030 0.041 0.0 5.94 6.004 6.154 6.030 99.600 100.000 0.007 5.95 6.014 6.176 6.060 5.92 5.987 6.132 6.007 5.892 6.060 5.860 6.007 9.310 9.269 0.037 9.370 9.370 0.000
PRIMET_226 2015-09-29 04:15:00 226 156.7 -1.00 205 0.007 0.007 72.370 0.074 5.878 6.077 0.045 0.0 5.95 6.016 6.180 6.077 99.500 100.000 0.007 5.98 6.030 6.202 6.106 5.92 6.002 6.163 6.050 5.906 6.106 5.853 6.050 9.316 9.272 0.047 9.401 9.401 0.000
PRIMET_226 2015-09-29 04:10:00 226 156.7 -2.50 196 0.007 0.007 72.370 0.074 5.952 6.123 0.044 0.0 6.02 6.059 6.241 6.123 99.500 100.000 0.007 6.07 6.093 6.272 6.139 5.98 6.028 6.201 6.106 5.997 6.139 5.909 6.106 9.364 9.320 0.047 9.430 9.430 0.000
PRIMET_226 2015-09-29 04:05:00 226 156.7 -3.50 196 0.007 0.007 72.370 0.074 5.970 6.127 0.051 0.0 6.05 6.090 6.253 6.127 99.500 100.000 0.007 6.06 6.116 6.274 6.136 6.02 6.050 6.219 6.119 5.986 6.136 5.935 6.119 9.383 9.331 0.047 9.433 9.433 0.000
PRIMET_226 2015-09-29 04:00:00 226 156.7 -3.50 195 0.007 0.007 72.370 0.069 5.952 6.122 0.061 0.0 6.05 6.079 6.223 6.122 99.400 100.000 0.007 6.07 6.098 6.243 6.139 6.03 6.055 6.204 6.109 5.975 6.139 5.935 6.109 9.380 9.320 0.056 9.430 9.430 0.000
PRIMET_226 2015-09-29 03:55:00 226 156.7 -4.00 196 0.007 0.007 72.370 0.063 5.967 6.168 0.069 0.0 6.07 6.118 6.272 6.168 99.300 100.000 0.007 6.10 6.145 6.316 6.212 6.05 6.090 6.243 6.135 5.989 6.212 5.952 6.135 9.399 9.329 0.066 9.460 9.460 0.000
PRIMET_226 2015-09-29 03:50:00 226 156.7 -4.00 196 0.007 0.007 72.370 0.063 5.980 6.224 0.075 0.0 6.09 6.157 6.326 6.224 99.200 100.000 0.007 6.11 6.179 6.347 6.249 6.08 6.144 6.306 6.192 6.003 6.249 5.961 6.192 9.412 9.338 0.075 9.497 9.497 0.000
PRIMET_226 2015-09-29 03:45:00 226 156.7 -4.00 195 0.007 0.007 72.370 0.069 6.082 6.288 0.066 0.0 6.18 6.239 6.398 6.288 99.300 100.000 0.007 6.22 6.285 6.440 6.315 6.12 6.179 6.345 6.249 6.133 6.315 6.011 6.249 9.470 9.404 0.066 9.539 9.539 0.000
PRIMET_226 2015-09-29 03:40:00 226 156.7 -4.50 196 0.007 0.007 72.370 0.063 6.156 6.337 0.063 0.0 6.25 6.314 6.462 6.337 99.300 100.000 0.007 6.28 6.334 6.485 6.365 6.23 6.295 6.443 6.312 6.183 6.365 6.132 6.312 9.516 9.452 0.067 9.571 9.571 0.000
PRIMET_226 2015-09-29 03:35:00 226 156.7 -4.50 196 0.007 0.007 72.370 0.069 6.190 6.390 0.062 0.0 6.28 6.355 6.506 6.390 99.400 100.000 0.007 6.31 6.383 6.536 6.425 6.26 6.335 6.483 6.362 6.218 6.425 6.166 6.362 9.537 9.474 0.057 9.606 9.606 0.000
PRIMET_226 2015-09-29 03:30:00 226 156.7 -4.50 206 0.007 0.007 72.370 0.074 6.223 6.440 0.059 0.0 6.31 6.409 6.570 6.440 99.400 100.000 0.007 6.33 6.428 6.589 6.452 6.30 6.375 6.539 6.422 6.243 6.452 6.205 6.422 9.554 9.496 0.057 9.639 9.639 0.000
PRIMET_226 2015-09-29 03:25:00 226 156.7 -5.00 196 0.007 0.007 72.370 0.069 6.253 6.423 0.054 0.0 6.34 6.401 6.550 6.423 99.400 100.000 0.007 6.36 6.420 6.581 6.449 6.32 6.384 6.521 6.399 6.288 6.449 6.228 6.399 9.570 9.516 0.057 9.628 9.628 0.000
PRIMET_226 2015-09-29 03:20:00 226 156.7 -5.50 193 0.007 0.007 72.370 0.063 6.310 6.481 0.051 0.0 6.39 6.452 6.604 6.481 99.500 100.000 0.007 6.41 6.496 6.649 6.512 6.36 6.415 6.568 6.439 6.327 6.512 6.283 6.439 9.604 9.553 0.048 9.667 9.667 0.000
PRIMET_226 2015-09-29 03:15:00 226 156.7 -6.00 195 0.007 0.007 72.370 0.074 6.272 6.443 0.059 0.0 6.36 6.449 6.593 6.443 99.400 100.000 0.007 6.41 6.514 6.669 6.509 6.34 6.378 6.513 6.395 6.325 6.509 6.240 6.395 9.587 9.528 0.058 9.641 9.641 0.000
PRIMET_226 2015-09-29 03:10:00 226 156.7 -6.50 190 0.007 0.007 72.370 0.074 6.254 6.422 0.066 0.0 6.36 6.399 6.548 6.422 99.300 100.000 0.007 6.37 6.420 6.573 6.435 6.34 6.380 6.515 6.402 6.268 6.435 6.245 6.402 9.583 9.516 0.067 9.627 9.627 0.000
PRIMET_226 2015-09-29 03:05:00 226 156.7 -6.50 190 0.007 0.007 72.370 0.074 6.272 6.444 0.073 0.0 6.38 6.416 6.567 6.444 99.200 100.000 0.007 6.41 6.437 6.598 6.468 6.36 6.396 6.551 6.425 6.293 6.468 6.257 6.425 9.601 9.528 0.077 9.642 9.642 0.000
PRIMET_226 2015-09-29 03:00:00 226 156.7 -7.00 195 0.007 0.007 72.360 0.074 6.285 6.496 0.078 0.0 6.40 6.418 6.592 6.496 99.200 100.000 0.007 6.43 6.462 6.639 6.530 6.38 6.401 6.570 6.474 6.313 6.530 6.263 6.474 9.615 9.537 0.077 9.677 9.677 0.000
PRIMET_226 2015-09-29 02:55:00 226 156.7 -7.00 191 0.007 0.007 72.370 0.056 6.352 6.563 0.078 0.0 6.47 6.521 6.688 6.563 99.200 100.000 0.007 6.49 6.563 6.716 6.590 6.44 6.470 6.649 6.530 6.372 6.590 6.325 6.530 9.659 9.581 0.077 9.721 9.721 0.000
PRIMET_226 2015-09-29 02:50:00 226 156.7 -7.00 195 0.007 0.007 72.360 0.069 6.374 6.592 0.084 0.0 6.50 6.562 6.710 6.592 99.100 100.000 0.007 6.51 6.576 6.725 6.613 6.48 6.552 6.694 6.580 6.386 6.613 6.353 6.580 9.679 9.595 0.087 9.741 9.741 0.000
PRIMET_226 2015-09-29 02:45:00 226 156.7 -7.00 192 0.007 0.007 72.360 0.069 6.395 6.602 0.090 0.0 6.53 6.585 6.738 6.602 99.100 100.000 0.007 6.55 6.602 6.753 6.609 6.51 6.564 6.722 6.589 6.408 6.609 6.376 6.589 9.699 9.609 0.087 9.747 9.747 0.000
PRIMET_226 2015-09-29 02:40:00 226 156.7 -7.00 195 0.007 0.007 72.370 0.069 6.424 6.628 0.093 0.0 6.56 6.613 6.754 6.628 99.000 100.000 0.007 6.60 6.633 6.783 6.662 6.53 6.589 6.732 6.598 6.456 6.662 6.398 6.598 9.721 9.629 0.097 9.765 9.765 0.000
PRIMET_226 2015-09-29 02:35:00 226 156.7 -7.00 195 0.007 0.007 72.360 0.069 6.476 6.693 0.095 0.0 6.62 6.674 6.815 6.693 99.000 100.000 0.007 6.63 6.697 6.853 6.732 6.59 6.641 6.791 6.662 6.489 6.732 6.455 6.662 9.758 9.663 0.098 9.809 9.809 0.000
PRIMET_226 2015-09-29 02:30:00 226 156.7 -7.00 197 0.007 0.007 72.360 0.069 6.485 6.755 0.104 0.0 6.64 6.719 6.885 6.755 98.900 100.000 0.007 6.66 6.733 6.902 6.785 6.62 6.689 6.855 6.728 6.498 6.785 6.472 6.728 9.773 9.669 0.108 9.851 9.851 0.000
PRIMET_226 2015-09-29 02:25:00 226 156.7 -7.00 191 0.007 0.007 72.360 0.063 6.509 6.771 0.111 0.0 6.68 6.747 6.898 6.771 98.900 100.000 0.007 6.71 6.772 6.920 6.795 6.64 6.720 6.871 6.748 6.539 6.795 6.473 6.748 9.797 9.685 0.108 9.862 9.862 0.000
PRIMET_226 2015-09-29 02:20:00 226 156.7 -7.50 191 0.007 0.007 72.360 0.069 6.531 6.812 0.124 0.0 6.72 6.787 6.939 6.813 98.700 100.000 0.007 6.74 6.806 6.956 6.828 6.70 6.769 6.917 6.792 6.544 6.828 6.520 6.792 9.824 9.700 0.128 9.890 9.889 0.000
PRIMET_226 2015-09-29 02:15:00 226 156.7 -7.50 196 0.007 0.007 72.360 0.063 6.574 6.856 0.131 0.0 6.77 6.821 6.966 6.857 98.700 100.000 0.007 6.81 6.865 6.998 6.888 6.73 6.795 6.938 6.825 6.610 6.888 6.533 6.825 9.860 9.729 0.128 9.920 9.919 0.000
PRIMET_226 2015-09-29 02:10:00 226 156.7 -7.00 173 0.007 0.007 72.360 0.063 6.624 6.925 0.140 0.0 6.83 6.901 7.033 6.925 98.600 100.000 0.007 6.85 6.930 7.071 6.962 6.80 6.870 6.998 6.892 6.643 6.962 6.609 6.892 9.902 9.762 0.139 9.966 9.966 0.000
PRIMET_226 2015-09-29 02:05:00 226 156.7 -7.50 193 0.007 0.007 72.360 0.063 6.662 6.994 0.148 0.0 6.88 6.963 7.117 6.994 98.500 100.000 0.007 6.91 6.997 7.151 7.032 6.85 6.935 7.071 6.958 6.694 7.032 6.630 6.958 9.936 9.788 0.149 10.014 10.014 0.000
PRIMET_226 2015-09-29 02:00:00 226 156.7 -7.50 187 0.007 0.007 72.360 0.069 6.726 7.029 0.149 0.0 6.95 7.020 7.164 7.029 98.500 100.000 0.007 6.99 7.050 7.204 7.055 6.91 6.988 7.143 7.015 6.772 7.055 6.694 7.015 9.980 9.831 0.150 10.038 10.038 0.000
PRIMET_226 2015-09-29 01:55:00 226 156.7 -7.50 196 0.007 0.007 72.360 0.069 6.809 7.090 0.141 0.0 7.02 7.082 7.233 7.090 98.600 100.000 0.007 7.04 7.122 7.278 7.128 6.99 7.047 7.198 7.055 6.841 7.128 6.772 7.055 10.029 9.887 0.140 10.080 10.080 0.000
PRIMET_226 2015-09-29 01:50:00 226 156.7 -7.50 195 0.007 0.007 72.360 0.063 6.825 7.101 0.145 0.0 7.04 7.114 7.250 7.101 98.600 100.000 0.007 7.05 7.130 7.286 7.128 7.02 7.092 7.223 7.075 6.841 7.128 6.805 7.075 10.043 9.898 0.141 10.088 10.088 0.000
PRIMET_226 2015-09-29 01:45:00 226 156.7 -7.50 196 0.007 0.007 72.360 0.074 6.860 7.137 0.149 0.0 7.08 7.149 7.287 7.137 98.500 100.000 0.007 7.10 7.177 7.318 7.160 7.05 7.123 7.259 7.108 6.883 7.160 6.834 7.108 10.071 9.922 0.151 10.113 10.113 0.000
PRIMET_226 2015-09-29 01:40:00 226 156.7 -7.50 192 0.007 0.007 72.360 0.074 6.903 7.201 0.151 0.0 7.12 7.209 7.350 7.201 98.500 100.000 0.007 7.15 7.234 7.385 7.245 7.10 7.177 7.315 7.176 6.930 7.245 6.885 7.176 10.102 9.951 0.152 10.157 10.157 0.000
PRIMET_226 2015-09-29 01:35:00 226 156.7 -8.00 186 0.007 0.007 72.360 0.074 6.946 7.277 0.147 0.0 7.16 7.262 7.412 7.277 98.500 100.000 0.007 7.18 7.290 7.439 7.312 7.14 7.242 7.380 7.249 6.977 7.312 6.926 7.249 10.129 9.981 0.152 10.210 10.210 0.000
PRIMET_226 2015-09-29 01:30:00 226 156.7 -8.00 194 0.007 0.007 72.360 0.074 6.956 7.282 0.147 0.0 7.17 7.282 7.438 7.282 98.500 100.000 0.007 7.19 7.308 7.473 7.302 7.14 7.253 7.397 7.255 6.978 7.302 6.927 7.255 10.135 9.988 0.152 10.214 10.214 0.000
PRIMET_226 2015-09-29 01:25:00 226 156.7 -8.00 192 0.007 0.007 72.360 0.063 6.963 7.281 0.151 0.0 7.18 7.283 7.419 7.281 98.500 100.000 0.007 7.20 7.298 7.436 7.301 7.17 7.256 7.389 7.261 6.979 7.301 6.942 7.261 10.144 9.993 0.152 10.213 10.213 0.000
PRIMET_226 2015-09-29 01:20:00 226 156.7 -8.00 188 0.007 0.007 72.360 0.063 6.975 7.282 0.161 0.0 7.21 7.273 7.415 7.282 98.400 100.000 0.007 7.22 7.299 7.443 7.311 7.19 7.248 7.381 7.255 6.987 7.311 6.960 7.255 10.161 10.001 0.163 10.214 10.214 0.000
PRIMET_226 2015-09-29 01:15:00 226 156.7 -8.00 196 0.007 0.007 72.370 0.074 7.020 7.342 0.165 0.0 7.26 7.331 7.478 7.342 98.400 100.000 0.007 7.29 7.369 7.513 7.378 7.22 7.291 7.443 7.318 7.052 7.378 6.982 7.318 10.197 10.032 0.163 10.256 10.256 0.000
PRIMET_226 2015-09-29 01:10:00 226 156.7 -8.00 197 0.007 0.007 72.390 0.097 7.071 7.405 0.166 0.0 7.31 7.408 7.558 7.405 98.400 100.000 0.007 7.33 7.429 7.580 7.438 7.29 7.369 7.523 7.368 7.086 7.438 7.051 7.368 10.233 10.067 0.164 10.300 10.300 0.000
PRIMET_226 2015-09-29 01:05:00 226 156.7 -8.00 195 0.007 0.007 72.050 0.069 7.081 7.427 0.181 0.0 7.34 7.426 7.572 7.427 98.200 100.000 0.007 7.36 7.454 7.595 7.435 7.32 7.412 7.559 7.418 7.100 7.434 7.054 7.418 10.255 10.074 0.185 10.316 10.316 0.000
PRIMET_226 2015-09-29 01:00:00 226 156.7 -8.00 196 0.007 0.007 72.050 0.063 7.115 7.481 0.192 0.0 7.39 7.445 7.601 7.481 98.100 100.000 0.007 7.43 7.482 7.644 7.518 7.35 7.402 7.566 7.438 7.152 7.518 7.076 7.438 10.289 10.097 0.195 10.354 10.354 0.000
PRIMET_226 2015-09-29 00:55:00 226 156.7 -8.00 195 0.007 0.007 72.050 0.074 7.162 7.538 0.199 0.0 7.45 7.500 7.656 7.538 98.100 100.000 0.007 7.48 7.525 7.676 7.561 7.42 7.482 7.642 7.514 7.189 7.561 7.140 7.514 10.330 10.130 0.196 10.394 10.394 0.000
PRIMET_226 2015-09-29 00:50:00 226 156.7 -8.00 195 0.007 0.007 72.050 0.074 7.202 7.593 0.211 0.0 7.50 7.568 7.715 7.593 98.000 100.000 0.007 7.54 7.590 7.749 7.624 7.48 7.528 7.668 7.557 7.221 7.624 7.190 7.557 10.369 10.158 0.207 10.433 10.433 0.000
PRIMET_226 2015-09-29 00:45:00 226 156.7 -8.00 196 0.007 0.007 72.040 0.074 7.210 7.644 0.236 0.0 7.54 7.613 7.773 7.644 97.700 100.000 0.007 7.58 7.631 7.793 7.676 7.52 7.593 7.747 7.614 7.246 7.676 7.194 7.614 10.398 10.163 0.239 10.470 10.470 0.000
PRIMET_226 2015-09-29 00:40:00 226 156.7 -8.00 196 0.007 0.007 72.050 0.069 7.284 7.702 0.234 0.0 7.61 7.682 7.825 7.702 97.800 100.000 0.007 7.65 7.709 7.848 7.729 7.59 7.634 7.799 7.669 7.317 7.729 7.254 7.669 10.449 10.215 0.230 10.511 10.511 0.000
PRIMET_226 2015-09-29 00:35:00 226 156.7 -8.00 195 0.007 0.007 72.050 0.069 7.352 7.753 0.233 0.0 7.68 7.740 7.881 7.753 97.800 100.000 0.007 7.72 7.779 7.917 7.781 7.64 7.706 7.842 7.712 7.388 7.781 7.313 7.712 10.495 10.263 0.231 10.548 10.548 0.000
PRIMET_226 2015-09-29 00:30:00 226 156.7 -7.50 194 0.007 0.007 72.050 0.069 7.403 7.825 0.241 0.0 7.74 7.814 7.960 7.825 97.700 100.000 0.007 7.76 7.832 7.984 7.861 7.72 7.768 7.920 7.788 7.420 7.861 7.385 7.788 10.539 10.299 0.242 10.600 10.600 0.000
PRIMET_226 2015-09-29 00:25:00 226 156.7 -7.00 197 0.007 0.007 72.050 0.069 7.433 7.869 0.256 0.0 7.79 7.842 7.995 7.869 97.600 100.000 0.007 7.83 7.872 8.020 7.884 7.76 7.829 7.973 7.847 7.467 7.884 7.412 7.847 10.576 10.320 0.254 10.632 10.632 0.000
PRIMET_226 2015-09-29 00:20:00 226 156.7 -7.00 196 0.007 0.007 72.050 0.069 7.469 7.914 0.269 0.0 7.84 7.886 8.040 7.914 97.500 100.000 0.007 7.87 7.901 8.060 7.964 7.81 7.870 8.020 7.884 7.484 7.964 7.446 7.884 10.614 10.345 0.265 10.664 10.664 0.000
PRIMET_226 2015-09-29 00:15:00 226 156.7 -7.00 196 0.007 0.007 72.050 0.069 7.492 7.993 0.301 0.0 7.91 7.937 8.090 7.993 97.200 100.000 0.007 7.96 7.985 8.140 8.030 7.86 7.898 8.060 7.954 7.541 8.030 7.458 7.954 10.663 10.361 0.299 10.722 10.722 0.000
PRIMET_226 2015-09-29 00:10:00 226 156.7 -7.00 196 0.007 0.007 72.050 0.063 7.551 8.100 0.320 0.0 7.99 8.040 8.190 8.100 97.000 100.000 0.007 8.05 8.100 8.240 8.150 7.97 7.998 8.140 8.050 7.594 8.150 7.525 8.050 10.723 10.403 0.322 10.800 10.800 0.000
PRIMET_226 2015-09-29 00:05:00 226 156.7 -7.00 196 0.007 0.007 72.040 0.069 7.625 8.170 0.326 0.0 8.08 8.150 8.290 8.170 97.000 100.000 0.007 8.11 8.180 8.330 8.210 8.04 8.110 8.240 8.130 7.658 8.210 7.585 8.130 10.786 10.456 0.324 10.852 10.852 0.000
PRIMET_226 2015-09-29 00:00:00 226 156.7 -6.50 195 0.007 0.007 72.040 0.063 7.692 8.260 0.335 0.0 8.15 8.240 8.380 8.260 96.900 100.000 0.007 8.18 8.280 8.420 8.320 8.12 8.190 8.330 8.220 7.722 8.320 7.659 8.220 10.837 10.504 0.336 10.918 10.918 0.000
PRIMET_226 2015-09-28 23:55:00 226 156.7 -6.00 196 0.007 0.007 72.040 0.063 7.727 8.340 0.337 0.0 8.19 8.290 8.440 8.340 96.900 100.000 0.007 8.21 8.310 8.460 8.350 8.18 8.280 8.410 8.310 7.755 8.350 7.701 8.310 10.867 10.529 0.337 10.978 10.978 0.000
PRIMET_226 2015-09-28 23:50:00 226 156.7 -6.00 195 0.007 0.007 72.040 0.063 7.780 8.370 0.336 0.0 8.24 8.340 8.480 8.370 96.900 100.000 0.007 8.27 8.390 8.550 8.410 8.20 8.290 8.420 8.330 7.820 8.410 7.713 8.330 10.904 10.567 0.338 11.000 11.000 0.000
PRIMET_226 2015-09-28 23:45:00 226 156.7 -4.50 196 0.007 0.007 72.040 0.069 7.825 8.400 0.315 0.0 8.26 8.390 8.530 8.410 97.100 100.000 0.007 8.28 8.420 8.550 8.430 8.22 8.330 8.480 8.380 7.844 8.430 7.775 8.380 10.918 10.600 0.317 11.030 11.023 0.000
PRIMET_226 2015-09-28 23:40:00 226 156.7 -3.00 188 0.007 0.007 72.140 0.063 7.810 8.380 0.337 0.0 8.27 8.340 8.480 8.380 96.900 100.000 0.007 8.30 8.350 8.500 8.390 8.23 8.310 8.460 8.370 7.839 8.390 7.775 8.370 10.926 10.589 0.339 11.008 11.008 0.000
PRIMET_226 2015-09-28 23:35:00 226 156.7 -3.00 183 0.007 0.007 72.140 0.063 7.882 8.410 0.331 0.0 8.33 8.400 8.530 8.410 97.000 100.000 0.007 8.37 8.430 8.570 8.450 8.30 8.360 8.490 8.370 7.929 8.450 7.841 8.370 10.970 10.641 0.329 11.030 11.030 0.000
PRIMET_226 2015-09-28 23:30:00 226 156.7 -3.00 197 0.007 0.007 72.150 0.069 7.932 8.480 0.329 0.0 8.38 8.460 8.600 8.480 97.000 100.000 0.007 8.39 8.480 8.620 8.520 8.36 8.440 8.580 8.450 7.948 8.520 7.914 8.450 11.008 10.677 0.330 11.083 11.083 0.000
PRIMET_226 2015-09-28 23:25:00 226 156.7 -3.00 197 0.007 0.007 72.150 0.069 7.940 8.550 0.353 0.0 8.42 8.500 8.650 8.550 96.800 100.000 0.007 8.46 8.530 8.670 8.570 8.38 8.470 8.620 8.520 7.961 8.570 7.921 8.520 11.038 10.683 0.353 11.135 11.135 -0.000
PRIMET_226 2015-09-28 23:20:00 226 156.7 -2.50 193 0.007 0.007 72.160 0.069 7.983 8.590 0.375 0.0 8.49 8.560 8.700 8.590 96.600 100.000 0.007 8.54 8.580 8.720 8.600 8.44 8.530 8.670 8.580 8.030 8.600 7.944 8.580 11.090 10.715 0.377 11.166 11.166 0.000
PRIMET_226 2015-09-28 23:15:00 226 156.7 -2.50 187 0.007 0.007 72.160 0.069 8.070 8.650 0.378 0.0 8.57 8.640 8.780 8.650 96.600 100.000 0.007 8.61 8.680 8.830 8.700 8.53 8.600 8.730 8.600 8.090 8.700 8.030 8.600 11.151 10.778 0.379 11.211 11.211 0.000
PRIMET_226 2015-09-28 23:10:00 226 156.7 -2.50 202 0.042 0.042 72.170 0.056 8.120 8.720 0.395 0.0 8.65 8.720 8.860 8.720 96.500 100.000 0.216 8.69 8.760 8.890 8.760 8.61 8.680 8.830 8.690 8.160 8.760 8.090 8.690 11.211 10.815 0.392 11.264 11.264 0.000
PRIMET_226 2015-09-28 23:05:00 226 156.7 -2.50 202 0.007 0.007 72.110 0.069 8.200 8.780 0.378 0.0 8.70 8.770 8.900 8.780 96.600 100.000 0.007 8.72 8.790 8.920 8.790 8.68 8.740 8.880 8.760 8.220 8.790 8.170 8.760 11.249 10.874 0.382 11.310 11.310 0.000
PRIMET_226 2015-09-28 23:00:00 226 156.7 -2.50 197 0.007 0.007 72.110 0.079 8.220 8.820 0.387 0.0 8.74 8.810 8.940 8.820 96.600 100.000 0.007 8.76 8.840 8.980 8.860 8.71 8.780 8.910 8.790 8.250 8.860 8.190 8.790 11.280 10.889 0.384 11.341 11.341 0.000
PRIMET_226 2015-09-28 22:55:00 226 156.7 -2.50 199 0.007 0.007 72.110 0.063 8.270 8.900 0.401 0.0 8.80 8.870 9.000 8.900 96.500 100.000 0.007 8.82 8.920 9.050 8.920 8.76 8.830 8.980 8.860 8.290 8.920 8.240 8.860 11.326 10.926 0.396 11.402 11.402 -0.000
PRIMET_226 2015-09-28 22:50:00 226 156.7 -3.00 193 0.013 0.013 72.110 0.079 8.310 8.960 0.420 0.0 8.87 8.960 9.100 8.970 96.300 100.000 0.098 8.91 9.010 9.140 9.010 8.83 8.920 9.040 8.920 8.350 9.010 8.290 8.920 11.379 10.956 0.421 11.457 11.449 0.000
PRIMET_226 2015-09-28 22:45:00 226 156.7 -3.50 197 0.045 0.045 72.130 0.069 8.360 9.020 0.445 0.0 8.95 9.060 9.180 9.040 96.100 99.800 0.248 9.00 9.100 9.230 9.100 8.91 9.010 9.150 9.010 8.410 9.080 8.330 8.990 11.441 10.993 0.446 11.511 11.495 0.023
PRIMET_226 2015-09-28 22:40:00 226 156.7 -4.00 198 0.022 0.022 72.120 0.074 8.460 9.110 0.431 0.0 9.03 9.130 9.250 9.120 96.300 100.000 0.242 9.05 9.160 9.270 9.140 9.00 9.110 9.220 9.090 8.490 9.140 8.410 9.070 11.503 11.068 0.426 11.573 11.565 -0.000
PRIMET_226 2015-09-28 22:35:00 226 156.7 -4.00 195 0.007 0.007 72.080 0.063 8.510 9.170 0.430 0.0 9.07 9.160 9.290 9.180 96.300 100.000 0.007 9.10 9.180 9.310 9.190 9.05 9.140 9.260 9.150 8.530 9.190 8.480 9.140 11.534 11.105 0.427 11.620 11.612 0.000
PRIMET_226 2015-09-28 22:30:00 226 156.7 -4.00 196 0.007 0.007 72.080 0.063 8.560 9.200 0.440 0.0 9.13 9.200 9.320 9.210 96.200 100.000 0.007 9.16 9.240 9.360 9.240 9.10 9.170 9.290 9.180 8.590 9.220 8.530 9.180 11.581 11.143 0.440 11.644 11.636 -0.000
PRIMET_226 2015-09-28 22:25:00 226 156.7 -4.00 200 0.007 0.007 72.080 0.069 8.610 9.250 0.450 0.0 9.19 9.270 9.400 9.290 96.100 99.700 0.007 9.22 9.300 9.430 9.320 9.15 9.230 9.360 9.240 8.630 9.280 8.570 9.220 11.628 11.181 0.453 11.707 11.675 0.035
PRIMET_226 2015-09-28 22:20:00 226 156.7 -4.50 199 0.007 0.007 72.080 0.063 8.670 9.310 0.477 0.0 9.28 9.350 9.490 9.370 95.900 99.600 0.007 9.32 9.400 9.530 9.430 9.24 9.290 9.430 9.320 8.710 9.360 8.600 9.260 11.699 11.226 0.480 11.770 11.722 0.047
PRIMET_226 2015-09-28 22:15:00 226 156.7 -4.50 193 0.007 0.007 72.090 0.063 8.740 9.350 0.475 0.1 9.35 9.440 9.560 9.440 96.000 99.400 0.007 9.38 9.460 9.590 9.480 9.32 9.390 9.530 9.410 8.760 9.360 8.710 9.330 11.754 11.280 0.470 11.826 11.754 0.071
PRIMET_226 2015-09-28 22:10:00 226 156.7 -4.00 194 0.007 0.007 72.420 0.652 8.780 9.390 0.506 0.1 9.42 9.500 9.630 9.530 95.700 99.000 0.007 9.47 9.540 9.670 9.590 9.38 9.470 9.590 9.470 8.830 9.430 8.750 9.350 11.810 11.310 0.508 11.897 11.786 0.119
PRIMET_226 2015-09-28 22:05:00 226 156.7 -4.00 197 0.007 0.007 73.730 0.074 8.890 9.490 0.484 0.1 9.51 9.600 9.730 9.600 95.900 99.300 0.007 9.53 9.630 9.760 9.630 9.48 9.560 9.670 9.570 8.920 9.530 8.840 9.440 11.881 11.395 0.487 11.953 11.865 0.084
PRIMET_226 2015-09-28 22:00:00 226 156.7 -4.50 188 0.007 0.007 73.730 0.069 8.910 9.530 0.493 0.1 9.54 9.620 9.760 9.660 95.900 99.100 0.007 9.56 9.640 9.790 9.710 9.51 9.600 9.740 9.620 8.930 9.590 8.890 9.500 11.905 11.410 0.488 12.002 11.897 0.108
PRIMET_226 2015-09-28 21:55:00 226 156.7 -4.50 193 0.007 0.007 73.730 0.063 8.930 9.590 0.542 0.1 9.62 9.660 9.810 9.710 95.500 99.200 0.007 9.69 9.700 9.850 9.740 9.58 9.640 9.790 9.690 9.000 9.600 8.900 9.560 11.970 11.426 0.539 12.042 11.945 0.096
PRIMET_226 2015-09-28 21:50:00 226 156.7 -4.50 199 0.007 0.007 73.730 0.063 8.980 9.620 0.596 0.1 9.73 9.760 9.900 9.790 95.100 98.900 0.007 9.81 9.820 9.960 9.840 9.68 9.710 9.860 9.740 9.010 9.650 8.960 9.580 12.058 11.464 0.591 12.107 11.970 0.133
PRIMET_226 2015-09-28 21:45:00 226 156.7 -4.50 193 0.007 0.007 73.730 0.056 9.080 9.650 0.624 0.2 9.86 9.910 10.030 9.890 94.900 98.400 0.007 9.91 9.980 10.100 9.940 9.80 9.830 9.970 9.840 9.150 9.710 9.000 9.610 12.164 11.542 0.620 12.189 11.994 0.195
PRIMET_226 2015-09-28 21:40:00 226 156.7 -4.50 184 0.007 0.007 73.720 0.063 9.200 9.770 0.558 0.2 9.90 10.000 10.130 9.970 95.400 98.700 0.007 9.92 10.030 10.160 9.990 9.88 9.960 10.090 9.940 9.230 9.820 9.160 9.720 12.197 11.636 0.561 12.254 12.091 0.159
PRIMET_226 2015-09-28 21:35:00 226 156.7 -4.00 198 0.007 0.007 73.720 0.069 9.220 9.790 0.566 0.2 9.93 9.990 10.120 10.020 95.400 98.500 0.007 9.96 10.030 10.170 10.060 9.89 9.960 10.090 9.980 9.240 9.820 9.200 9.770 12.221 11.652 0.562 12.295 12.107 0.184
PRIMET_226 2015-09-28 21:30:00 226 156.7 -4.50 197 0.007 0.007 73.720 0.069 9.260 9.850 0.604 0.2 10.01 10.080 10.230 10.130 95.100 98.200 0.007 10.05 10.150 10.290 10.180 9.96 10.030 10.170 10.070 9.300 9.900 9.230 9.800 12.287 11.683 0.602 12.386 12.156 0.223
PRIMET_226 2015-09-28 21:25:00 226 156.7 -4.50 190 0.007 0.007 73.720 0.063 9.370 9.980 0.587 0.2 10.09 10.190 10.330 10.210 95.200 98.400 0.007 10.13 10.210 10.350 10.230 10.04 10.140 10.290 10.180 9.420 10.010 9.290 9.920 12.353 11.770 0.593 12.453 12.262 0.199
PRIMET_226 2015-09-28 21:20:00 226 156.7 -4.00 197 0.007 0.007 73.720 0.069 9.420 10.010 0.583 0.2 10.14 10.220 10.340 10.230 95.300 98.600 0.007 10.17 10.230 10.350 10.260 10.11 10.210 10.320 10.210 9.440 10.020 9.400 9.990 12.394 11.810 0.583 12.469 12.287 0.175
PRIMET_226 2015-09-28 21:15:00 226 156.7 -4.50 194 0.007 0.007 73.720 0.063 9.450 10.050 0.623 0.2 10.21 10.270 10.390 10.310 95.000 98.300 0.007 10.26 10.320 10.440 10.360 10.16 10.230 10.350 10.260 9.470 10.100 9.420 10.000 12.453 11.833 0.623 12.536 12.320 0.213
PRIMET_226 2015-09-28 21:10:00 226 156.7 -5.50 200 0.007 0.007 73.720 0.063 9.530 10.110 0.645 0.2 10.32 10.370 10.490 10.400 94.900 98.100 0.007 10.37 10.420 10.540 10.440 10.27 10.320 10.440 10.350 9.570 10.140 9.480 10.090 12.545 11.897 0.640 12.612 12.370 0.240
PRIMET_226 2015-09-28 21:05:00 226 156.7 -5.50 192 0.007 0.007 73.720 0.063 9.600 10.180 0.675 0.3 10.42 10.470 10.590 10.490 94.700 98.000 0.007 10.47 10.510 10.640 10.530 10.36 10.410 10.540 10.440 9.630 10.210 9.560 10.140 12.629 11.953 0.669 12.688 12.428 0.254
PRIMET_226 2015-09-28 21:00:00 226 156.7 -4.50 192 0.007 0.007 73.710 0.063 9.660 10.220 0.722 0.3 10.53 10.580 10.690 10.570 94.300 97.600 0.007 10.58 10.640 10.760 10.620 10.47 10.520 10.640 10.520 9.690 10.250 9.620 10.190 12.722 12.002 0.725 12.756 12.461 0.306
PRIMET_226 2015-09-28 20:55:00 226 156.7 -4.50 201 0.007 0.007 73.720 0.088 9.720 10.270 0.762 0.4 10.64 10.700 10.820 10.690 94.100 97.200 0.007 10.69 10.750 10.880 10.770 10.58 10.630 10.760 10.620 9.750 10.310 9.690 10.240 12.815 12.050 0.756 12.858 12.503 0.360
PRIMET_226 2015-09-28 20:50:00 226 156.7 -4.00 198 0.007 0.007 73.710 0.079 9.800 10.340 0.764 0.4 10.71 10.810 10.930 10.790 94.100 97.100 0.007 10.74 10.840 10.960 10.810 10.70 10.760 10.890 10.770 9.860 10.400 9.750 10.300 12.875 12.115 0.760 12.944 12.561 0.375
PRIMET_226 2015-09-28 20:45:00 226 156.7 -4.00 197 0.007 0.007 73.690 0.056 9.840 10.390 0.726 0.4 10.71 10.790 10.920 10.820 94.400 97.200 0.007 10.73 10.800 10.940 10.870 10.69 10.770 10.910 10.780 9.850 10.420 9.820 10.360 12.875 12.148 0.721 12.970 12.603 0.363
PRIMET_226 2015-09-28 20:40:00 226 156.7 -4.00 193 0.007 0.007 73.690 0.069 9.880 10.470 0.757 0.4 10.78 10.840 10.990 10.900 94.100 97.200 0.007 10.85 10.880 11.020 10.920 10.73 10.790 10.930 10.870 9.940 10.500 9.840 10.410 12.935 12.180 0.763 13.039 12.671 0.365
PRIMET_226 2015-09-28 20:35:00 226 156.7 -4.50 197 0.007 0.007 73.690 0.074 9.950 10.530 0.782 0.4 10.88 10.940 11.070 10.980 94.000 97.100 0.007 10.93 10.990 11.130 11.030 10.83 10.890 11.020 10.930 9.980 10.570 9.920 10.500 13.022 12.238 0.781 13.109 12.722 0.380
PRIMET_226 2015-09-28 20:30:00 226 156.7 -4.00 184 0.007 0.007 73.670 0.063 10.040 10.610 0.798 0.4 10.98 11.050 11.180 11.070 93.900 97.000 0.007 11.01 11.100 11.210 11.100 10.92 11.000 11.130 11.030 10.080 10.650 9.970 10.570 13.109 12.312 0.800 13.187 12.790 0.396
PRIMET_226 2015-09-28 20:25:00 226 156.7 -4.00 197 0.007 0.007 74.020 0.198 10.070 10.620 0.843 0.5 11.06 11.120 11.240 11.140 93.600 96.600 0.007 11.10 11.180 11.290 11.180 11.03 11.090 11.210 11.090 10.090 10.640 10.050 10.590 13.179 12.336 0.843 13.249 12.798 0.450
PRIMET_226 2015-09-28 20:20:00 226 156.7 -3.50 188 0.007 0.007 74.120 0.063 10.100 10.650 0.886 0.5 11.14 11.210 11.330 11.240 93.300 96.200 0.007 11.17 11.230 11.360 11.280 11.10 11.170 11.300 11.190 10.140 10.690 10.080 10.620 13.249 12.361 0.888 13.337 12.824 0.507
PRIMET_226 2015-09-28 20:15:00 226 156.7 -3.50 196 0.007 0.007 74.130 0.063 10.180 10.730 0.884 0.5 11.21 11.270 11.410 11.320 93.400 96.200 0.007 11.26 11.310 11.440 11.340 11.18 11.230 11.360 11.280 10.210 10.760 10.150 10.690 13.310 12.428 0.878 13.408 12.892 0.510
PRIMET_226 2015-09-28 20:10:00 226 156.7 -3.50 194 0.007 0.007 74.130 0.056 10.200 10.750 0.948 0.5 11.30 11.350 11.480 11.380 92.900 95.900 0.007 11.35 11.380 11.520 11.420 11.25 11.300 11.440 11.350 10.220 10.770 10.180 10.720 13.390 12.444 0.951 13.461 12.910 0.552
PRIMET_226 2015-09-28 20:05:00 226 156.7 -4.50 197 0.007 0.007 74.130 0.063 10.240 10.800 0.990 0.6 11.39 11.420 11.560 11.470 92.700 95.600 0.007 11.44 11.480 11.620 11.530 11.35 11.380 11.520 11.410 10.280 10.860 10.210 10.740 13.470 12.478 0.983 13.542 12.953 0.596
PRIMET_226 2015-09-28 20:00:00 226 156.7 -5.00 197 0.007 0.007 74.120 0.063 10.310 10.870 1.010 0.6 11.48 11.540 11.680 11.570 92.500 95.500 0.007 11.51 11.590 11.730 11.590 11.44 11.490 11.630 11.530 10.380 10.930 10.260 10.820 13.551 12.536 1.016 13.632 13.013 0.613
PRIMET_226 2015-09-28 19:55:00 226 156.7 -5.50 197 0.007 0.007 74.160 0.074 10.390 10.930 1.010 0.6 11.55 11.610 11.740 11.640 92.600 95.400 0.007 11.59 11.660 11.790 11.680 11.51 11.570 11.710 11.590 10.450 10.980 10.330 10.880 13.614 12.603 1.007 13.695 13.065 0.630
PRIMET_226 2015-09-28 19:50:00 226 156.7 -5.50 193 0.007 0.007 74.180 0.063 10.450 10.970 1.030 0.7 11.63 11.700 11.840 11.750 92.500 95.000 0.007 11.67 11.750 11.900 11.820 11.59 11.650 11.790 11.690 10.480 11.020 10.400 10.930 13.686 12.654 1.026 13.795 13.100 0.690
PRIMET_226 2015-09-28 19:45:00 226 156.7 -6.00 194 0.007 0.007 74.180 0.056 10.410 10.970 1.121 0.8 11.69 11.780 11.940 11.880 91.800 94.200 0.007 11.73 11.830 11.980 11.920 11.66 11.750 11.890 11.820 10.450 11.010 10.380 10.930 13.740 12.620 1.127 13.914 13.100 0.807
PRIMET_226 2015-09-28 19:40:00 226 156.7 -6.00 189 0.007 0.007 74.170 0.063 10.510 11.040 1.125 0.8 11.79 11.850 12.000 11.920 91.900 94.300 0.007 11.84 11.880 12.020 11.970 11.74 11.830 11.980 11.900 10.570 11.140 10.420 10.980 13.831 12.705 1.120 13.951 13.161 0.795
PRIMET_226 2015-09-28 19:35:00 226 156.7 -6.00 197 0.007 0.007 74.170 0.069 10.570 11.100 1.192 0.8 11.91 11.970 12.090 12.000 91.500 94.200 0.007 11.98 12.030 12.130 12.050 11.84 11.890 12.030 11.970 10.600 11.140 10.540 11.030 13.941 12.756 1.185 14.025 13.214 0.813
PRIMET_226 2015-09-28 19:30:00 226 156.7 -6.00 197 0.007 0.007 74.160 0.056 10.620 11.190 1.243 0.8 12.02 12.090 12.210 12.110 91.200 94.100 0.007 12.06 12.150 12.270 12.170 11.96 12.040 12.140 12.050 10.670 11.220 10.550 11.140 14.043 12.798 1.236 14.127 13.293 0.833
PRIMET_226 2015-09-28 19:25:00 226 156.7 -6.00 192 0.007 0.007 74.150 0.063 10.720 11.230 1.234 0.9 12.10 12.190 12.320 12.230 91.300 93.600 0.007 12.13 12.240 12.380 12.290 12.07 12.140 12.270 12.160 10.770 11.330 10.670 11.180 14.117 12.884 1.228 14.239 13.328 0.911
PRIMET_226 2015-09-28 19:20:00 226 156.7 -6.00 194 0.007 0.007 74.140 0.056 10.790 11.370 1.239 0.9 12.17 12.260 12.400 12.320 91.300 93.900 0.007 12.21 12.310 12.440 12.360 12.13 12.230 12.360 12.280 10.850 11.400 10.760 11.340 14.182 12.944 1.234 14.323 13.452 0.874
PRIMET_226 2015-09-28 19:15:00 226 156.7 -5.50 200 0.007 0.007 74.160 0.074 10.820 11.400 1.285 0.9 12.24 12.320 12.460 12.400 91.000 93.600 0.007 12.31 12.340 12.480 12.460 12.20 12.300 12.450 12.370 10.880 11.430 10.730 11.340 14.248 12.970 1.282 14.399 13.479 0.922
PRIMET_226 2015-09-28 19:10:00 226 156.7 -4.50 197 0.007 0.007 73.820 0.163 10.870 11.430 1.352 1.0 12.37 12.390 12.530 12.500 90.600 93.200 0.007 12.43 12.460 12.610 12.560 12.30 12.320 12.470 12.450 10.940 11.510 10.800 11.380 14.370 13.013 1.351 14.494 13.506 0.986
PRIMET_226 2015-09-28 19:05:00 226 156.7 -4.00 189 0.007 0.007 73.740 0.048 10.970 11.510 1.356 1.0 12.46 12.520 12.660 12.610 90.600 93.000 0.007 12.49 12.560 12.720 12.670 12.42 12.460 12.600 12.550 11.000 11.550 10.930 11.480 14.456 13.100 1.359 14.599 13.578 1.022
PRIMET_226 2015-09-28 19:00:00 226 156.7 -4.00 197 0.007 0.007 73.740 0.056 11.030 11.600 1.368 1.1 12.53 12.600 12.770 12.730 90.600 92.900 0.007 12.58 12.660 12.830 12.780 12.48 12.550 12.720 12.680 11.080 11.690 10.980 11.540 14.522 13.152 1.365 14.714 13.659 1.045
PRIMET_226 2015-09-28 18:55:00 226 156.7 -4.00 198 0.007 0.007 73.900 0.093 11.030 11.620 1.491 1.2 12.66 12.740 12.920 12.860 89.800 92.200 0.007 12.73 12.800 13.000 12.920 12.59 12.660 12.830 12.790 11.060 11.680 10.980 11.560 14.647 13.152 1.494 14.840 13.677 1.158
PRIMET_226 2015-09-28 18:50:00 226 156.7 -4.00 199 0.007 0.007 73.920 0.069 11.030 11.610 1.662 1.3 12.84 12.880 13.070 13.000 88.800 91.300 0.007 12.94 12.980 13.150 13.070 12.72 12.810 13.000 12.930 11.090 11.670 10.940 11.530 14.820 13.152 1.660 14.976 13.668 1.303
PRIMET_226 2015-09-28 18:45:00 226 156.7 -4.00 197 0.007 0.007 73.900 0.063 11.210 11.740 1.688 1.3 13.03 13.080 13.220 13.150 88.700 91.200 0.007 13.08 13.150 13.270 13.200 12.95 12.990 13.150 13.080 11.300 11.800 11.090 11.670 15.006 13.310 1.696 15.124 13.786 1.331
PRIMET_226 2015-09-28 18:40:00 226 156.7 -4.00 197 0.007 0.007 73.900 0.074 11.270 11.800 1.753 1.3 13.14 13.180 13.290 13.210 88.400 91.200 0.007 13.20 13.220 13.330 13.240 13.08 13.150 13.270 13.180 11.310 11.840 11.210 11.700 15.114 13.364 1.753 15.183 13.841 1.336
PRIMET_226 2015-09-28 18:35:00 226 156.7 -4.00 198 0.007 0.007 73.900 0.074 11.180 11.670 1.964 1.6 13.27 13.300 13.410 13.320 87.100 89.700 0.007 13.33 13.370 13.480 13.390 13.21 13.240 13.350 13.250 11.240 11.760 11.090 11.580 15.243 13.284 1.966 15.293 13.722 1.575
PRIMET_226 2015-09-28 18:30:00 226 156.7 -4.50 194 0.007 0.007 73.900 0.063 11.250 11.780 2.039 1.6 13.41 13.450 13.560 13.460 86.700 89.500 0.007 13.48 13.520 13.630 13.540 13.34 13.380 13.490 13.400 11.310 11.830 11.160 11.720 15.383 13.346 2.046 15.433 13.822 1.620
PRIMET_226 2015-09-28 18:25:00 226 156.7 -4.00 192 0.007 0.007 73.900 0.063 11.240 11.750 2.165 1.8 13.53 13.590 13.710 13.610 86.000 88.500 0.007 13.59 13.620 13.740 13.660 13.49 13.540 13.640 13.560 11.330 11.840 11.130 11.640 15.504 13.337 2.171 15.585 13.795 1.792
PRIMET_226 2015-09-28 18:20:00 226 156.7 -4.00 196 0.007 0.007 73.890 0.063 11.140 11.640 2.398 2.0 13.67 13.700 13.820 13.740 84.700 87.200 0.007 13.76 13.810 13.920 13.810 13.59 13.620 13.740 13.650 11.190 11.720 11.090 11.560 15.646 13.249 2.394 15.717 13.695 2.012
PRIMET_226 2015-09-28 18:15:00 226 156.7 -4.00 197 0.007 0.007 73.890 0.056 11.220 11.720 2.466 2.1 13.81 13.880 13.990 13.880 84.400 86.800 0.007 13.86 13.930 14.040 13.920 13.75 13.820 13.920 13.820 11.450 11.930 11.080 11.600 15.789 13.319 2.463 15.861 13.768 2.094
PRIMET_226 2015-09-28 18:10:00 226 156.7 -4.00 198 0.007 0.007 73.890 0.069 11.470 11.990 2.349 1.9 13.91 13.940 14.050 13.970 85.200 87.800 0.007 13.98 13.980 14.100 14.020 13.85 13.910 14.030 13.920 11.550 12.090 11.380 11.870 15.892 13.542 2.352 15.954 14.015 1.946
PRIMET_226 2015-09-28 18:05:00 226 156.7 -4.00 197 0.007 0.007 73.900 0.056 11.320 11.860 2.636 2.2 14.06 14.060 14.190 14.130 83.600 86.200 0.007 14.13 14.140 14.260 14.210 13.98 13.990 14.110 14.030 11.500 11.930 11.180 11.730 16.047 13.408 2.632 16.120 13.896 2.225
PRIMET_226 2015-09-28 18:00:00 226 156.7 -4.00 197 0.007 0.007 73.910 0.069 11.390 11.880 2.747 2.4 14.22 14.250 14.360 14.300 83.100 85.400 0.007 14.29 14.340 14.450 14.400 14.15 14.150 14.280 14.230 11.540 12.060 11.290 11.780 16.214 13.470 2.740 16.298 13.914 2.380
PRIMET_226 2015-09-28 17:55:00 226 156.7 -4.00 198 0.007 0.007 73.890 0.069 11.280 11.810 3.011 2.6 14.38 14.430 14.540 14.480 81.600 84.000 0.007 14.44 14.510 14.630 14.560 14.31 14.350 14.450 14.410 11.360 11.980 11.150 11.680 16.383 13.372 3.014 16.489 13.850 2.638
PRIMET_226 2015-09-28 17:50:00 226 156.7 -4.00 198 0.007 0.007 74.010 0.128 11.600 12.040 2.865 2.6 14.51 14.550 14.670 14.640 82.700 84.400 0.007 14.60 14.620 14.740 14.720 14.43 14.500 14.620 14.570 11.760 12.320 11.390 11.850 16.521 13.659 2.858 16.661 14.062 2.599
PRIMET_226 2015-09-28 17:45:00 226 156.7 -4.00 197 0.007 0.007 74.120 0.063 11.670 12.260 2.982 2.6 14.68 14.700 14.830 14.810 82.100 84.700 0.007 14.76 14.770 14.920 14.900 14.59 14.620 14.740 14.720 11.820 12.430 11.450 12.050 16.704 13.722 2.990 16.844 14.267 2.577
PRIMET_226 2015-09-28 17:40:00 226 156.7 -3.50 201 0.007 0.007 74.120 0.063 11.770 12.300 3.098 2.8 14.87 14.890 15.040 15.000 81.700 83.900 0.007 14.94 14.990 15.130 15.080 14.78 14.780 14.920 14.910 11.900 12.470 11.560 12.150 16.910 13.813 3.094 17.052 14.304 2.745
PRIMET_226 2015-09-28 17:35:00 226 156.7 -3.00 194 0.007 0.007 74.110 0.063 11.920 12.420 3.115 2.8 15.01 15.080 15.220 15.180 81.700 83.600 0.007 15.06 15.140 15.290 15.280 14.93 15.000 15.140 15.090 12.000 12.530 11.830 12.270 17.063 13.951 3.123 17.250 14.418 2.829
PRIMET_226 2015-09-28 17:30:00 226 156.7 -3.00 198 0.007 0.007 74.110 0.056 11.990 12.570 3.199 2.9 15.15 15.230 15.400 15.390 81.400 83.300 0.007 15.25 15.320 15.490 15.490 15.06 15.160 15.300 15.290 12.230 12.680 11.740 12.270 17.217 14.015 3.202 17.485 14.560 2.920
PRIMET_226 2015-09-28 17:25:00 226 156.7 -3.50 180 0.007 0.007 74.110 0.056 12.380 12.630 3.085 3.1 15.37 15.450 15.610 15.610 82.300 82.400 0.007 15.48 15.590 15.740 15.700 15.26 15.320 15.490 15.500 12.480 12.850 12.190 12.510 17.462 14.380 3.091 17.733 14.618 3.121
PRIMET_226 2015-09-28 17:20:00 226 156.7 -3.50 197 0.095 0.095 74.140 0.093 12.450 12.920 3.229 3.1 15.56 15.690 15.850 15.820 81.700 82.900 0.627 15.63 15.790 15.940 15.910 15.49 15.600 15.740 15.720 12.600 13.060 12.310 12.790 17.676 14.446 3.235 17.973 14.898 3.073
PRIMET_226 2015-09-28 17:15:00 226 156.7 -3.50 198 0.007 0.006 290.700 23.450 12.390 12.840 3.404 3.4 15.66 15.830 16.010 16.020 80.900 81.400 0.007 15.71 15.890 16.100 16.130 15.63 15.790 15.950 15.930 12.600 13.190 12.130 12.540 17.790 14.389 3.398 18.204 14.820 3.386
PRIMET_226 2015-09-28 17:10:00 226 156.7 -3.50 194 0.007 0.007 289.100 0.772 12.530 12.950 3.415 3.5 15.79 16.000 16.210 16.220 81.000 81.000 0.007 15.85 16.070 16.290 16.290 15.71 15.910 16.110 16.150 12.850 13.170 12.360 12.470 17.939 14.522 3.408 18.438 14.928 3.503
PRIMET_226 2015-09-28 17:05:00 226 156.7 -3.50 194 0.007 0.007 287.600 0.134 12.470 13.040 3.734 3.6 16.02 16.200 16.410 16.410 79.490 80.500 0.007 16.12 16.300 16.500 16.500 15.86 16.070 16.290 16.310 12.910 13.630 11.910 12.280 18.204 14.465 3.734 18.663 15.016 3.639
PRIMET_226 2015-09-28 17:00:00 226 156.7 -4.00 197 0.007 0.007 288.600 0.636 12.360 12.670 4.061 4.3 16.20 16.390 16.600 16.610 77.950 77.510 0.007 16.28 16.470 16.700 16.720 16.13 16.300 16.520 16.530 12.480 13.100 12.170 12.310 18.415 14.361 4.060 18.902 14.656 4.251
PRIMET_226 2015-09-28 16:55:00 226 156.7 -4.50 199 0.007 0.007 288.300 0.074 12.230 12.540 4.344 4.6 16.34 16.570 16.800 16.830 76.630 75.820 0.007 16.40 16.630 16.890 16.960 16.29 16.480 16.710 16.720 12.570 12.840 11.840 12.170 18.580 14.239 4.342 19.168 14.532 4.635
PRIMET_226 2015-09-28 16:50:00 226 156.7 -4.50 193 0.007 0.007 288.600 0.245 11.950 12.420 4.855 5.1 16.55 16.810 17.050 17.090 74.230 73.980 0.007 16.66 16.950 17.180 17.190 16.41 16.640 16.900 16.970 12.460 12.910 11.710 11.960 18.830 13.978 4.852 19.486 14.418 5.070
PRIMET_226 2015-09-28 16:45:00 226 156.7 -4.50 188 0.007 0.007 288.500 2.111 12.090 12.430 4.924 5.3 16.72 17.010 17.260 17.280 74.130 73.150 0.007 16.82 17.120 17.380 17.400 16.67 16.950 17.180 17.190 12.380 12.940 11.790 11.960 19.034 14.108 4.924 19.722 14.427 5.295
PRIMET_226 2015-09-28 16:40:00 226 156.7 -5.00 197 0.007 0.007 284.900 0.048 11.950 12.140 5.355 5.9 16.96 17.240 17.500 17.510 72.300 70.740 0.007 17.09 17.330 17.600 17.630 16.84 17.120 17.390 17.400 12.200 12.590 11.780 11.690 19.326 13.978 5.353 20.010 14.154 5.855
PRIMET_226 2015-09-28 16:35:00 226 156.7 -5.00 198 0.007 0.007 284.900 0.063 11.950 12.020 5.694 6.2 17.24 17.450 17.690 17.730 71.060 69.230 0.007 17.35 17.590 17.800 17.850 17.11 17.350 17.610 17.640 12.080 12.500 11.770 11.630 19.672 13.978 5.693 20.290 14.043 6.243
PRIMET_226 2015-09-28 16:30:00 226 156.7 -5.50 193 0.007 0.007 284.900 0.074 11.710 11.880 6.247 6.7 17.51 17.740 17.940 17.970 68.780 67.570 0.007 17.61 17.810 18.030 18.080 17.37 17.610 17.830 17.870 11.930 12.200 11.450 11.600 20.010 13.759 6.247 20.599 13.914 6.680
PRIMET_226 2015-09-28 16:25:00 226 156.7 -6.00 189 0.032 0.032 284.900 0.403 11.730 11.750 6.522 7.2 17.74 17.970 18.200 18.270 67.880 65.710 0.274 17.88 18.130 18.330 18.390 17.64 17.820 18.050 18.100 12.100 12.120 11.450 11.380 20.303 13.777 6.521 20.991 13.795 7.198
PRIMET_226 2015-09-28 16:20:00 226 156.7 -6.00 197 0.007 0.007 286.700 0.079 11.580 11.470 6.967 7.8 17.98 18.190 18.420 18.520 66.200 63.510 0.007 18.10 18.250 18.490 18.650 17.88 18.140 18.330 18.410 12.330 11.810 10.880 11.190 20.612 13.641 6.967 21.322 13.542 7.780
PRIMET_226 2015-09-28 16:15:00 226 156.7 -7.00 193 0.007 0.007 286.600 0.063 11.960 11.780 6.946 7.9 18.23 18.470 18.700 18.840 66.820 63.560 0.007 18.33 18.620 18.870 19.020 18.12 18.270 18.500 18.660 12.300 12.140 11.650 11.540 20.938 13.988 6.947 21.753 13.822 7.927
PRIMET_226 2015-09-28 16:10:00 226 156.7 -8.50 190 0.007 0.007 287.600 0.380 11.730 11.730 7.509 8.3 18.49 18.760 19.010 19.100 64.720 62.320 0.007 18.57 18.870 19.120 19.200 18.34 18.620 18.880 19.010 12.150 12.270 11.350 11.400 21.282 13.777 7.508 22.109 13.777 8.331
PRIMET_226 2015-09-28 16:05:00 226 156.7 -9.00 197 0.007 0.007 287.800 0.079 11.970 11.570 7.497 8.7 18.65 18.950 19.200 19.290 65.120 60.960 0.007 18.76 19.070 19.270 19.350 18.58 18.880 19.140 19.220 12.470 12.460 11.230 11.190 21.496 13.997 7.498 22.372 13.632 8.734
PRIMET_226 2015-09-28 16:00:00 226 156.7 -10.00 193 0.007 0.006 273.600 26.050 12.260 12.210 7.311 8.3 18.72 19.040 19.290 19.420 66.130 63.080 0.007 18.78 19.110 19.420 19.560 18.68 18.970 19.260 19.340 13.380 13.420 11.530 11.570 21.591 14.267 7.313 22.554 14.220 8.327
PRIMET_226 2015-09-28 15:55:00 226 156.7 -11.00 197 0.094 0.093 216.300 7.442 12.900 12.980 6.911 8.0 18.87 19.250 19.550 19.680 68.280 65.270 0.686 19.02 19.410 19.700 19.780 18.79 19.140 19.440 19.570 13.350 13.420 12.450 12.390 21.794 14.879 6.913 22.921 14.957 7.961
PRIMET_226 2015-09-28 15:50:00 226 156.7 -11.00 194 0.007 0.006 263.200 14.290 12.720 12.960 7.311 8.1 19.03 19.420 19.670 19.800 66.790 64.720 0.007 19.10 19.470 19.710 19.860 18.97 19.360 19.610 19.760 13.000 13.500 12.350 12.370 22.013 14.704 7.310 23.092 14.937 8.147
PRIMET_226 2015-09-28 15:45:00 226 156.7 -11.00 205 0.020 0.020 247.000 8.730 12.750 13.090 7.414 8.3 19.13 19.470 19.770 19.960 66.530 64.590 0.203 19.19 19.530 19.850 20.050 19.09 19.410 19.690 19.860 13.330 13.500 12.240 12.470 22.150 14.733 7.414 23.322 15.065 8.258
PRIMET_226 2015-09-28 15:40:00 226 156.7 -11.00 197 0.161 0.157 12.300 13.560 12.970 13.090 7.349 8.6 19.24 19.520 19.920 20.180 67.040 63.730 0.497 19.39 19.680 20.090 20.340 19.15 19.420 19.850 20.040 13.620 14.380 12.400 12.590 22.303 14.947 7.351 23.642 15.065 8.575
PRIMET_226 2015-09-28 15:35:00 226 156.7 -11.00 197 0.007 0.006 248.200 30.000 13.310 13.420 7.501 8.8 19.59 19.840 20.280 20.530 67.090 63.750 0.007 19.74 20.080 20.520 20.770 19.41 19.660 20.080 20.340 13.940 14.290 12.790 12.600 22.793 15.283 7.501 24.158 15.393 8.757
PRIMET_226 2015-09-28 15:30:00 226 156.7 -11.00 213 0.218 0.140 326.700 48.550 12.960 13.240 8.670 9.8 20.16 20.370 20.880 21.090 63.330 60.890 0.823 20.43 20.710 21.260 21.320 19.77 20.070 20.530 20.800 14.130 14.710 12.180 12.350 23.613 14.937 8.659 25.005 15.213 9.779
PRIMET_226 2015-09-28 15:25:00 226 156.7 -11.00 197 0.269 0.038 209.300 75.040 12.860 13.070 9.640 10.5 20.75 21.030 21.500 21.440 60.640 58.910 0.653 20.89 21.410 21.830 21.620 20.47 20.710 21.220 21.290 13.780 13.800 11.880 11.670 24.488 14.840 9.638 25.547 15.045 10.497
PRIMET_226 2015-09-28 15:20:00 226 156.7 -10.50 185 0.346 0.203 313.400 52.060 12.990 13.230 10.130 10.7 21.16 21.240 21.630 21.660 59.660 58.820 1.045 21.33 21.520 21.850 21.800 20.92 20.980 21.440 21.560 13.910 14.360 11.570 11.360 25.113 14.967 10.130 25.893 15.203 10.663
PRIMET_226 2015-09-28 15:15:00 226 156.7 -10.50 199 0.512 0.247 1.000 58.270 13.040 13.530 10.910 11.0 21.69 21.660 22.050 22.070 57.990 58.420 0.856 22.26 22.460 22.680 22.420 21.15 21.310 21.780 21.810 14.150 14.340 12.240 12.470 25.941 15.016 10.898 26.549 15.504 11.039
PRIMET_226 2015-09-28 15:10:00 226 156.7 -10.50 205 0.257 0.146 37.230 53.310 13.090 13.680 11.700 11.4 22.21 22.530 22.790 22.400 56.280 57.800 0.581 22.41 22.830 23.210 22.580 22.01 22.390 22.620 22.280 13.840 14.310 12.270 12.080 26.776 15.065 11.707 27.088 15.656 11.431
PRIMET_226 2015-09-28 15:05:00 226 156.7 -11.50 197 0.093 0.081 19.950 28.520 13.020 13.590 12.830 12.1 22.85 22.840 23.180 22.740 53.900 56.350 0.470 23.00 23.110 23.390 22.900 22.44 22.520 22.960 22.580 13.910 14.720 12.170 12.320 27.837 14.996 12.833 27.652 15.564 12.070
PRIMET_226 2015-09-28 15:00:00 226 156.7 -11.00 184 0.211 0.126 330.400 51.440 13.570 13.940 11.910 11.1 22.63 22.560 22.750 22.380 56.640 58.840 0.608 22.96 23.120 23.240 22.670 22.33 22.160 22.380 22.140 14.760 14.530 12.590 13.280 27.468 15.544 11.910 27.055 15.923 11.136
PRIMET_226 2015-09-28 14:55:00 226 156.7 -11.00 217 0.197 0.190 357.100 15.790 14.380 14.600 10.560 9.9 22.31 22.090 22.240 22.050 60.810 62.650 0.627 22.47 22.290 22.390 22.110 22.09 21.890 22.050 22.010 15.000 15.010 14.200 14.280 26.940 16.383 10.558 26.517 16.618 9.904
PRIMET_226 2015-09-28 14:50:00 226 156.7 -11.00 202 0.259 0.134 336.700 56.290 14.380 14.590 9.520 9.2 21.67 21.540 21.660 21.610 63.260 64.360 0.673 22.00 22.160 22.210 21.950 21.43 21.120 21.320 21.430 15.460 15.300 13.430 14.010 25.909 16.383 9.519 25.814 16.607 9.200
PRIMET_226 2015-09-28 14:45:00 226 156.7 -12.50 198 0.103 0.087 58.980 31.900 14.050 14.270 9.530 9.0 21.45 21.400 21.380 21.280 62.750 64.330 0.477 21.79 21.800 21.790 21.600 21.23 20.950 21.000 21.040 14.810 15.060 13.150 13.250 25.563 16.037 9.522 25.298 16.267 9.024
PRIMET_226 2015-09-28 14:40:00 226 156.7 -12.50 197 0.044 0.044 29.840 0.705 14.110 14.460 9.230 8.8 21.30 21.230 21.260 21.280 63.580 65.120 0.510 21.43 21.410 21.430 21.420 21.26 20.950 21.020 21.140 14.550 15.170 13.360 14.150 25.329 16.099 9.225 25.298 16.468 8.824
PRIMET_226 2015-09-28 14:35:00 226 156.7 -12.50 200 0.109 0.109 8.490 2.641 13.870 14.180 9.930 9.6 21.60 21.530 21.570 21.590 61.480 62.720 0.412 21.64 21.650 21.720 21.790 21.49 21.370 21.430 21.430 14.560 14.630 12.720 13.660 25.799 15.850 9.938 25.783 16.172 9.612
PRIMET_226 2015-09-28 14:30:00 226 156.7 -12.50 196 0.072 0.070 33.430 10.080 14.060 14.240 10.180 10.2 21.87 21.740 21.820 21.980 61.190 61.510 0.483 22.06 21.950 22.070 22.300 21.64 21.580 21.670 21.800 14.780 14.860 13.360 13.360 26.227 16.047 10.179 26.404 16.235 10.163
PRIMET_226 2015-09-28 14:25:00 226 156.7 -13.50 188 0.096 0.082 18.220 30.390 14.260 14.570 10.670 10.7 22.31 22.130 22.260 22.510 60.380 60.840 0.614 22.53 22.460 22.580 22.820 22.08 21.910 22.040 22.300 14.800 15.040 13.880 14.050 26.940 16.256 10.674 27.269 16.586 10.679
PRIMET_226 2015-09-28 14:20:00 226 156.7 -13.50 198 0.110 0.071 237.400 48.380 14.400 14.440 12.040 12.4 23.20 23.130 23.190 23.470 57.720 56.960 0.510 24.01 24.120 24.200 24.320 22.58 22.480 22.590 22.850 14.880 15.210 13.450 12.920 28.433 16.404 12.021 28.899 16.447 12.438
PRIMET_226 2015-09-28 14:15:00 226 156.7 -15.00 193 0.073 0.008 284.800 76.420 14.050 14.070 15.510 15.6 24.93 25.120 25.080 25.000 50.940 50.800 0.307 25.42 25.690 25.620 25.380 24.08 24.260 24.330 24.400 15.090 15.570 12.430 12.050 31.542 16.037 15.474 31.674 16.057 15.583
PRIMET_226 2015-09-28 14:10:00 226 156.7 -15.00 248 0.211 0.173 224.200 34.410 13.350 13.890 16.440 16.0 25.06 25.260 25.210 25.100 48.290 49.880 0.797 25.36 25.590 25.510 25.310 24.85 24.960 24.960 24.970 15.010 15.240 11.170 11.630 31.787 15.323 16.437 31.863 15.871 15.970
PRIMET_226 2015-09-28 14:05:00 226 156.7 -13.50 200 0.270 0.030 54.770 76.430 13.350 13.250 17.260 16.8 25.49 25.280 25.260 25.180 47.080 47.620 0.732 25.70 25.470 25.490 25.330 25.25 25.070 25.030 25.020 15.410 14.570 10.770 11.530 32.610 15.323 17.257 32.015 15.223 16.769
PRIMET_226 2015-09-28 14:00:00 226 156.7 -14.50 197 0.074 0.042 210.500 53.290 13.620 14.010 17.450 16.1 25.73 25.570 25.530 25.210 47.230 49.920 0.366 25.84 25.710 25.610 25.330 25.64 25.390 25.410 25.080 15.360 15.200 11.760 12.720 33.077 15.595 17.455 32.072 15.995 16.062
PRIMET_226 2015-09-28 13:55:00 226 156.7 -15.50 193 0.141 0.058 205.400 62.100 14.170 14.250 16.600 15.5 25.58 25.240 25.230 25.040 49.360 51.280 0.640 25.80 25.610 25.480 25.210 25.42 24.910 24.980 24.890 15.670 15.760 12.400 11.060 32.785 16.162 16.602 31.749 16.246 15.468
PRIMET_226 2015-09-28 13:50:00 226 156.7 -14.00 207 0.016 0.010 356.900 49.830 13.590 13.230 17.530 16.1 25.75 25.370 25.100 24.850 47.060 48.630 0.157 25.85 25.550 25.220 24.930 25.60 25.120 24.910 24.760 14.880 15.400 12.500 10.820 33.116 15.564 17.532 31.392 15.203 16.126
PRIMET_226 2015-09-28 13:45:00 226 156.7 -14.00 196 0.167 0.114 207.200 45.570 14.000 14.300 16.700 15.3 25.54 25.440 25.180 24.950 48.920 51.640 0.706 25.67 25.570 25.300 25.030 25.43 25.340 25.090 24.870 15.040 14.770 12.550 13.770 32.707 15.985 16.707 31.580 16.298 15.272
PRIMET_226 2015-09-28 13:40:00 226 156.7 -16.00 210 0.162 0.065 186.500 62.820 13.650 13.930 17.010 15.6 25.51 25.350 25.010 24.940 47.900 50.470 0.510 25.64 25.450 25.080 24.980 25.41 25.240 24.910 24.890 14.870 15.890 12.250 12.350 32.649 15.625 17.010 31.561 15.912 15.632
PRIMET_226 2015-09-28 13:35:00 226 156.7 -16.00 197 0.025 0.016 180.500 47.930 13.640 14.140 17.010 15.3 25.50 25.190 24.920 24.870 47.880 51.360 0.255 25.63 25.400 25.110 24.960 25.33 24.950 24.740 24.770 14.600 15.080 12.050 13.000 32.629 15.615 17.006 31.429 16.130 15.287
PRIMET_226 2015-09-28 13:30:00 226 156.7 -16.00 213 0.155 0.061 268.900 63.010 13.890 14.260 16.460 15.0 25.35 25.150 24.900 24.780 49.110 52.050 0.444 25.49 25.240 25.020 24.820 25.23 25.050 24.810 24.690 15.300 15.220 12.580 12.760 32.340 15.871 16.458 31.261 16.256 14.990
PRIMET_226 2015-09-28 13:25:00 226 156.7 -15.50 203 0.067 0.021 28.180 67.340 13.270 13.670 17.000 15.4 25.31 25.120 24.940 24.690 47.300 50.370 0.405 25.37 25.200 25.030 24.790 25.24 25.040 24.880 24.560 14.340 14.790 11.540 12.450 32.263 15.243 17.003 31.094 15.646 15.432
PRIMET_226 2015-09-28 13:20:00 226 156.7 -16.50 203 0.033 0.029 164.600 26.410 13.500 13.560 16.780 15.3 25.31 25.340 25.090 24.560 47.990 50.380 0.346 25.37 25.490 25.200 24.620 25.25 25.160 24.880 24.490 14.810 14.410 12.250 12.370 32.263 15.473 16.780 30.853 15.534 15.309
PRIMET_226 2015-09-28 13:15:00 226 156.7 -15.50 200 0.010 0.010 204.900 9.120 13.110 13.560 16.860 15.3 25.15 25.180 24.980 24.560 47.240 50.390 0.072 25.33 25.370 25.160 24.630 24.97 25.030 24.860 24.510 13.890 14.500 11.200 12.250 31.958 15.085 16.861 30.853 15.534 15.306
PRIMET_226 2015-09-28 13:10:00 226 156.7 -15.50 198 0.017 0.016 209.400 22.860 12.970 12.930 16.710 15.8 25.00 24.990 24.820 24.510 47.240 48.510 0.176 25.10 25.170 24.920 24.560 24.84 24.820 24.720 24.460 14.070 14.390 11.540 11.830 31.674 14.947 16.711 30.761 14.908 15.839
PRIMET_226 2015-09-28 13:05:00 226 156.7 -15.50 250 0.007 0.006 183.900 6.188 12.780 12.630 16.290 15.4 24.67 25.030 24.620 24.110 47.580 48.730 0.007 25.09 25.340 24.960 24.450 24.26 24.670 24.320 23.820 13.900 13.960 10.930 11.510 31.056 14.762 16.280 30.033 14.618 15.398
PRIMET_226 2015-09-28 13:00:00 226 156.7 -16.50 208 0.007 0.007 176.600 0.000 12.010 11.430 15.980 15.7 24.11 24.360 24.020 23.670 46.800 46.250 0.007 24.20 24.580 24.220 23.760 24.05 24.180 23.870 23.610 13.940 13.300 10.260 10.550 30.033 14.034 15.978 29.250 13.506 15.722
PRIMET_226 2015-09-28 12:55:00 226 156.7 -14.00 206 0.007 0.006 183.700 21.400 11.930 11.210 15.910 15.6 24.02 24.030 23.690 23.510 46.760 45.970 0.007 24.11 24.130 23.850 23.580 23.82 23.920 23.570 23.430 12.970 12.430 10.660 10.720 29.871 13.960 15.903 28.969 13.310 15.652
PRIMET_226 2015-09-28 12:50:00 226 156.7 -16.00 208 0.007 0.007 166.200 4.964 12.740 11.440 14.380 14.9 23.59 23.690 23.450 23.200 50.620 47.660 0.007 23.77 23.910 23.710 23.400 23.44 23.520 23.240 23.090 14.120 14.230 11.140 10.020 29.109 14.724 14.374 28.433 13.515 14.882
PRIMET_226 2015-09-28 12:45:00 226 156.7 -14.00 212 0.007 0.007 178.400 3.657 12.240 11.000 14.570 14.8 23.43 23.510 23.200 22.910 49.460 47.050 0.007 23.51 23.590 23.330 23.140 23.24 23.330 22.910 22.580 12.940 12.620 11.030 9.850 28.830 14.248 14.571 27.938 13.126 14.793
PRIMET_226 2015-09-28 12:40:00 226 156.7 -14.00 263 0.007 0.006 142.900 14.400 11.430 10.020 14.730 14.8 23.09 23.030 22.550 22.430 47.840 45.330 0.007 23.25 23.300 22.850 22.560 22.97 22.730 22.180 22.330 12.770 11.410 10.650 9.600 28.244 13.506 14.732 27.137 12.295 14.836
PRIMET_226 2015-09-28 12:35:00 226 156.7 -16.00 206 0.007 0.006 163.500 17.960 11.310 9.850 14.320 14.8 22.79 22.520 22.020 22.300 48.360 45.140 0.007 22.96 22.750 22.190 22.350 22.62 22.330 21.880 22.270 12.090 10.730 10.480 9.700 27.736 13.399 14.323 26.923 12.156 14.770
PRIMET_226 2015-09-28 12:30:00 226 156.7 -16.00 218 0.007 0.006 153.200 7.897 11.110 9.690 13.970 14.9 22.46 22.150 21.830 22.300 48.630 44.680 0.007 22.60 22.300 21.880 22.330 22.36 22.020 21.750 22.260 11.950 9.810 10.290 9.550 27.187 13.222 13.966 26.923 12.026 14.894
PRIMET_226 2015-09-28 12:25:00 226 156.7 -16.00 194 0.007 0.006 152.500 7.261 10.980 9.560 13.590 14.8 22.17 21.980 21.680 22.160 49.110 44.640 0.007 22.35 22.060 21.780 22.260 21.99 21.860 21.570 22.100 11.730 10.050 9.890 9.290 26.711 13.109 13.593 26.695 11.921 14.778
PRIMET_226 2015-09-28 12:20:00 226 156.7 -16.00 199 0.007 0.007 161.300 0.093 10.670 9.440 13.460 14.7 21.92 21.900 21.800 22.040 48.830 44.630 0.007 21.99 21.960 21.870 22.090 21.84 21.840 21.690 21.920 11.350 9.830 9.990 9.110 26.308 12.841 13.462 26.501 11.826 14.673
PRIMET_226 2015-09-28 12:15:00 226 156.7 -16.00 189 0.007 0.007 161.400 0.097 11.040 9.900 12.690 13.5 21.64 21.590 21.560 21.560 50.930 47.390 0.007 21.83 21.870 21.880 21.900 21.42 21.300 21.290 21.350 11.770 10.220 10.140 9.450 25.862 13.161 12.690 25.736 12.197 13.539
PRIMET_226 2015-09-28 12:10:00 226 156.7 -14.50 199 0.007 0.006 163.500 7.548 10.950 9.870 12.320 13.2 21.35 21.120 21.180 21.320 51.520 48.000 0.007 21.43 21.300 21.290 21.360 21.20 20.850 20.870 21.260 11.670 10.460 10.200 9.460 25.407 13.083 12.317 25.360 12.172 13.187
PRIMET_226 2015-09-28 12:05:00 226 156.7 -16.00 203 0.007 0.007 137.900 5.184 11.400 10.960 11.370 12.1 20.99 20.560 20.740 21.210 54.250 52.020 0.007 21.18 20.790 20.830 21.280 20.88 20.460 20.630 21.010 12.050 11.550 10.770 10.480 24.852 13.479 11.370 25.190 13.091 12.086
PRIMET_226 2015-09-28 12:00:00 226 156.7 -15.00 194 0.007 0.007 142.900 4.372 10.800 10.290 11.590 11.8 20.79 20.400 20.400 20.660 52.790 51.400 0.007 20.89 20.500 20.600 20.970 20.61 20.200 20.250 20.450 11.440 11.140 10.050 9.760 24.548 12.953 11.589 24.353 12.519 11.835
PRIMET_226 2015-09-28 11:55:00 226 156.7 -16.00 204 0.007 0.007 143.000 1.778 10.820 10.370 11.440 11.7 20.70 20.250 20.320 20.610 53.130 51.850 0.007 20.79 20.400 20.470 20.750 20.57 20.120 20.150 20.440 11.400 10.800 10.290 9.800 24.413 12.970 11.442 24.278 12.586 11.690
PRIMET_226 2015-09-28 11:50:00 226 156.7 -15.00 193 0.007 0.007 140.000 0.093 10.750 9.470 11.310 11.8 20.57 20.470 20.310 20.190 53.330 50.110 0.007 20.75 20.570 20.420 20.490 20.31 20.300 20.170 20.020 11.190 9.900 10.060 9.260 24.218 12.910 11.303 23.657 11.849 11.802
PRIMET_226 2015-09-28 11:45:00 226 156.7 -16.00 214 0.007 0.007 139.800 0.521 10.720 9.390 10.710 11.5 20.15 20.180 20.100 19.950 54.630 50.570 0.007 20.29 20.270 20.180 20.020 19.99 20.010 19.970 19.830 11.520 9.490 9.850 9.250 23.598 12.884 10.707 23.308 11.786 11.521
PRIMET_226 2015-09-28 11:40:00 226 156.7 -15.50 195 0.007 0.007 139.800 0.610 10.800 9.280 10.220 11.1 19.86 19.810 19.650 19.610 55.890 51.270 0.007 19.97 19.990 19.950 19.810 19.77 19.690 19.480 19.520 11.650 9.510 9.690 9.070 23.178 12.953 10.224 22.822 11.699 11.121
PRIMET_226 2015-09-28 11:35:00 226 156.7 -15.50 225 0.007 0.007 132.100 3.130 10.220 9.440 10.570 10.7 19.76 19.360 19.220 19.370 54.120 52.600 0.007 19.86 19.640 19.470 19.490 19.72 19.190 19.080 19.280 11.270 9.510 9.560 9.320 23.035 12.461 10.569 22.484 11.826 10.657
PRIMET_226 2015-09-28 11:30:00 226 156.7 -16.00 190 0.007 0.006 137.300 15.070 11.110 9.360 9.670 10.2 19.66 19.320 19.130 18.970 57.800 53.640 0.007 19.92 19.460 19.260 19.290 19.34 19.190 18.890 18.690 11.790 9.710 9.780 9.060 22.893 13.222 9.661 21.930 11.762 10.167
PRIMET_226 2015-09-28 11:25:00 226 156.7 -16.00 205 0.007 0.007 142.400 2.298 10.950 9.110 9.030 9.9 19.11 19.000 18.650 18.620 59.190 53.930 0.007 19.32 19.180 18.860 18.690 18.80 18.860 18.490 18.470 12.390 9.440 9.840 8.910 22.123 13.083 9.028 21.456 11.565 9.885
PRIMET_226 2015-09-28 11:20:00 226 156.7 -16.00 200 0.007 0.007 132.300 0.000 10.740 9.270 8.290 9.2 18.43 18.520 18.210 18.220 60.900 55.850 0.007 18.73 18.830 18.470 18.420 18.28 18.300 17.950 18.140 11.620 9.570 9.940 9.050 21.202 12.901 8.290 20.925 11.691 9.238
PRIMET_226 2015-09-28 11:15:00 226 156.7 -16.50 208 0.007 0.007 131.000 1.208 10.200 9.640 8.440 8.7 18.20 18.230 17.910 18.050 59.580 57.910 0.007 18.28 18.310 17.940 18.170 18.12 18.140 17.890 17.870 10.710 10.210 9.500 9.140 20.899 12.444 8.447 20.703 11.986 8.714
PRIMET_226 2015-09-28 11:10:00 226 156.7 -17.50 197 0.007 0.007 124.600 2.871 11.260 9.820 7.456 8.1 18.14 17.930 17.710 17.690 64.180 59.940 0.007 18.22 18.150 17.900 17.840 18.09 17.740 17.510 17.630 12.010 10.630 10.280 9.460 20.820 13.355 7.458 20.239 12.131 8.108
PRIMET_226 2015-09-28 11:05:00 226 156.7 -18.50 209 0.007 0.007 122.000 0.028 12.320 10.540 6.478 7.6 18.13 17.470 17.480 17.750 68.860 62.680 0.007 18.24 17.710 17.540 17.840 17.98 17.370 17.360 17.600 12.810 11.390 11.570 9.650 20.807 14.323 6.479 20.316 12.730 7.582
PRIMET_226 2015-09-28 11:00:00 226 156.7 -18.50 193 0.007 0.007 121.900 0.000 11.350 10.580 6.849 7.0 17.73 17.360 17.080 17.290 66.250 64.670 0.007 17.95 17.390 17.320 17.550 17.49 17.310 16.890 17.030 12.720 11.030 10.130 10.240 20.290 13.435 6.848 19.734 12.764 6.972
PRIMET_226 2015-09-28 10:55:00 226 156.7 -18.50 213 0.007 0.007 121.900 0.000 10.990 10.390 6.315 6.8 17.05 16.790 16.650 16.980 67.490 65.110 0.007 17.42 17.260 16.870 17.020 16.78 16.570 16.510 16.930 11.820 10.620 9.990 10.250 19.437 13.117 6.319 19.351 12.603 6.752
PRIMET_226 2015-09-28 10:50:00 226 156.7 -18.50 202 0.007 0.007 121.800 0.000 11.330 10.560 5.063 6.6 16.26 16.120 16.500 16.990 72.600 65.810 0.007 16.72 16.570 16.620 17.110 15.98 15.940 16.430 16.890 12.040 10.820 10.550 10.320 18.485 13.417 5.065 19.363 12.747 6.620
PRIMET_226 2015-09-28 10:45:00 226 156.7 -18.00 210 0.007 0.007 121.800 0.211 10.710 10.190 5.080 7.0 15.81 15.890 16.590 17.050 71.710 63.990 0.007 15.96 15.980 16.640 17.130 15.63 15.840 16.540 16.950 11.220 10.590 10.180 9.710 17.962 12.875 5.081 19.437 12.436 6.999
PRIMET_226 2015-09-28 10:40:00 226 156.7 -19.00 190 0.007 0.007 115.100 2.901 10.040 9.630 5.128 7.0 15.36 15.670 16.250 16.670 70.600 63.160 0.007 15.63 15.850 16.530 16.920 15.04 15.480 15.970 16.450 10.860 9.940 9.280 9.460 17.451 12.312 5.131 18.974 11.978 6.990
PRIMET_226 2015-09-28 10:35:00 226 156.7 -19.00 209 0.007 0.007 113.000 0.056 9.770 9.860 4.798 6.5 14.85 15.440 15.970 16.410 71.580 65.200 0.007 15.01 15.470 16.000 16.490 14.74 15.410 15.940 16.220 10.380 10.200 9.470 9.440 16.888 12.091 4.800 18.663 12.164 6.495
PRIMET_226 2015-09-28 10:30:00 226 156.7 -17.50 190 0.007 0.006 105.800 6.844 9.820 9.300 4.375 6.3 14.49 15.140 15.690 15.840 73.510 65.110 0.007 14.71 15.420 15.930 16.190 14.22 14.730 15.290 15.520 10.080 9.450 9.470 9.190 16.500 12.131 4.371 17.996 11.715 6.279
PRIMET_226 2015-09-28 10:25:00 226 156.7 -14.00 202 0.007 0.006 102.000 18.170 9.590 9.520 3.951 5.4 13.92 14.400 14.950 15.260 75.150 68.570 0.007 14.19 14.690 15.260 15.490 13.73 14.210 14.770 15.120 9.940 9.820 9.250 9.330 15.902 11.945 3.952 17.339 11.889 5.450
PRIMET_226 2015-09-28 10:20:00 226 156.7 -10.00 232 0.007 0.007 122.900 0.063 9.080 9.830 4.095 4.9 13.66 14.160 14.640 15.030 73.810 71.050 0.007 13.75 14.270 14.770 15.130 13.51 13.990 14.430 14.860 9.470 10.110 8.730 9.450 15.635 11.542 4.095 17.085 12.140 4.946
PRIMET_226 2015-09-28 10:15:00 226 156.7 -8.00 204 0.007 0.007 111.100 5.287 9.550 9.010 3.487 5.3 13.43 13.910 14.330 14.760 77.360 68.440 0.007 13.51 14.000 14.430 14.860 13.35 13.770 14.170 14.670 9.950 9.240 8.790 8.820 15.403 11.913 3.487 16.790 11.488 5.299
PRIMET_226 2015-09-28 10:10:00 226 156.7 -8.00 205 0.007 0.007 107.400 0.063 9.680 9.020 3.254 5.0 13.30 13.740 14.140 14.470 78.710 69.760 0.007 13.38 13.780 14.160 14.640 13.14 13.670 14.080 14.260 10.280 9.410 9.080 8.720 15.273 12.018 3.252 16.479 11.495 4.983
PRIMET_226 2015-09-28 10:05:00 226 156.7 -8.00 204 0.067 0.066 52.270 8.080 9.590 9.070 2.977 4.4 12.95 13.510 13.920 13.960 80.100 72.380 0.307 13.13 13.660 14.060 14.230 12.65 13.270 13.690 13.660 10.170 9.540 9.050 8.780 14.928 11.945 2.971 15.943 11.534 4.404
PRIMET_226 2015-09-28 10:00:00 226 156.7 -8.00 189 0.008 0.008 86.600 7.570 9.420 9.390 2.404 3.5 12.21 12.920 13.300 13.340 83.100 76.960 0.039 12.61 13.230 13.650 13.630 11.95 12.750 13.080 13.160 10.120 9.510 8.720 9.250 14.220 11.810 2.403 15.313 11.786 3.528
PRIMET_226 2015-09-28 09:55:00 226 156.7 -8.00 204 0.007 0.007 87.400 3.154 8.900 9.090 2.450 3.4 11.81 12.600 12.900 13.000 82.300 77.120 0.007 11.96 12.740 13.060 13.170 11.54 12.330 12.640 12.720 9.110 9.570 8.590 8.630 13.850 11.402 2.451 14.976 11.550 3.427
PRIMET_226 2015-09-28 09:50:00 226 156.7 -10.00 204 0.007 0.007 85.700 0.000 8.910 9.050 1.887 2.9 11.20 12.000 12.350 12.460 85.800 79.710 0.007 11.51 12.290 12.600 12.680 10.87 11.660 12.170 12.320 9.040 9.320 8.850 8.760 13.302 11.410 1.889 14.456 11.519 2.933
PRIMET_226 2015-09-28 09:45:00 226 156.7 -12.00 191 0.007 0.007 84.100 2.508 8.770 9.240 1.314 2.5 10.41 11.190 11.870 12.170 89.600 82.300 0.007 10.83 11.640 12.150 12.300 10.01 10.780 11.540 12.020 8.870 9.450 8.690 8.860 12.620 11.303 1.312 14.182 11.667 2.510
PRIMET_226 2015-09-28 09:40:00 226 156.7 -10.00 210 0.007 0.006 81.400 8.430 8.540 9.250 0.975 2.1 9.78 10.490 11.230 11.730 91.900 84.700 0.007 9.99 10.740 11.510 12.010 9.66 10.380 11.110 11.490 8.770 9.420 8.310 9.040 12.099 11.128 0.980 13.777 11.675 2.108
PRIMET_226 2015-09-28 09:35:00 226 156.7 -8.00 202 0.007 0.007 101.400 0.000 8.230 9.160 1.204 1.8 9.78 10.500 11.230 11.340 90.000 86.400 0.007 9.92 10.610 11.300 11.480 9.66 10.370 11.160 11.210 8.350 9.320 8.120 8.950 12.099 10.896 1.210 13.426 11.604 1.826
PRIMET_226 2015-09-28 09:30:00 226 156.7 -7.50 223 0.187 0.187 101.400 0.972 8.280 9.080 1.433 1.7 10.10 10.790 11.150 11.110 88.400 87.300 0.418 10.31 11.040 11.210 11.190 9.93 10.620 11.100 11.040 8.370 9.280 8.200 8.950 12.361 10.933 1.434 13.222 11.542 1.679
PRIMET_226 2015-09-28 09:25:00 226 156.7 -7.50 219 0.007 0.007 76.770 0.833 8.510 8.850 1.140 1.6 9.96 10.860 11.010 10.780 90.700 87.800 0.007 10.31 11.080 11.180 11.030 9.55 10.510 10.740 10.470 8.780 9.060 8.340 8.640 12.246 11.105 1.139 12.935 11.364 1.578
PRIMET_226 2015-09-28 09:20:00 226 156.7 -7.00 203 0.007 0.006 79.740 10.580 8.220 8.710 0.652 1.1 9.08 10.070 10.380 10.150 94.400 90.700 0.007 9.50 10.480 10.720 10.430 8.65 9.570 9.980 9.850 8.430 8.830 8.100 8.640 11.542 10.889 0.646 12.403 11.257 1.153
PRIMET_226 2015-09-28 09:15:00 226 156.7 -3.50 224 0.007 0.007 112.000 0.069 7.615 8.470 0.478 0.9 8.27 9.040 9.560 9.570 95.600 92.800 0.007 8.60 9.510 9.940 9.800 8.14 8.790 9.340 9.420 8.060 8.700 7.426 8.250 10.926 10.449 0.481 11.929 11.075 0.859
PRIMET_226 2015-09-28 09:10:00 226 156.7 0.50 198 0.007 0.007 111.900 0.063 7.409 8.390 0.407 0.5 7.98 8.530 8.880 9.010 96.200 95.900 0.007 8.14 8.780 9.290 9.360 7.84 8.300 8.560 8.750 7.645 8.590 7.050 8.080 10.710 10.303 0.407 11.488 11.015 0.471
PRIMET_226 2015-09-28 09:05:00 226 156.7 0.50 211 0.007 0.007 111.600 0.353 7.218 7.998 0.529 0.6 7.96 8.510 8.670 8.800 95.100 94.700 0.007 8.05 8.830 8.860 8.870 7.85 8.290 8.520 8.730 7.482 8.090 7.019 7.930 10.699 10.169 0.524 11.326 10.726 0.600
PRIMET_226 2015-09-28 09:00:00 226 156.7 1.00 199 0.007 0.006 140.100 6.602 7.073 7.824 0.607 0.7 7.93 8.730 8.800 8.720 94.300 94.100 0.007 7.98 8.840 8.880 8.820 7.88 8.640 8.720 8.590 7.402 7.982 6.917 7.694 10.675 10.068 0.608 11.264 10.599 0.665
PRIMET_226 2015-09-28 08:55:00 226 156.7 1.00 204 0.007 0.007 141.600 0.000 7.198 7.695 0.486 0.5 7.88 8.530 8.690 8.360 95.400 95.600 0.007 7.93 8.730 8.880 8.560 7.81 8.400 8.580 8.200 7.606 7.914 6.946 7.454 10.642 10.155 0.490 10.993 10.506 0.484
PRIMET_226 2015-09-28 08:50:00 226 156.7 1.00 215 0.007 0.007 141.500 0.000 7.157 7.593 0.086 0.1 7.28 7.743 7.998 7.668 99.200 99.500 0.007 7.77 8.340 8.560 8.140 6.73 7.104 7.409 7.170 7.598 7.818 6.600 7.170 10.212 10.126 0.082 10.487 10.433 0.052
PRIMET_226 2015-09-28 08:45:00 226 156.7 1.00 322 0.007 0.007 146.900 2.217 6.229 6.712 0.102 0.0 6.38 6.646 6.896 6.712 98.900 100.000 0.007 6.69 7.047 7.344 7.120 6.21 6.428 6.605 6.440 6.561 7.120 6.040 6.440 9.602 9.500 0.106 9.822 9.822 0.000
PRIMET_226 2015-09-28 08:40:00 226 156.7 1.00 215 0.007 0.007 147.900 0.000 5.877 6.262 0.128 0.0 6.07 6.276 6.436 6.262 98.600 100.000 0.007 6.19 6.405 6.582 6.417 6.01 6.204 6.368 6.183 6.016 6.417 5.802 6.183 9.399 9.271 0.132 9.522 9.522 0.000
PRIMET_226 2015-09-28 08:35:00 226 156.7 1.00 248 0.007 0.007 147.900 0.000 5.756 6.088 0.148 0.0 5.99 6.151 6.304 6.088 98.400 100.000 0.007 6.02 6.210 6.368 6.177 5.93 6.082 6.219 5.987 5.805 6.177 5.690 5.987 9.341 9.194 0.149 9.408 9.408 0.000
PRIMET_226 2015-09-28 08:30:00 226 156.7 1.00 219 0.007 0.007 147.900 0.000 5.648 5.955 0.168 0.0 5.91 6.060 6.193 5.955 98.200 100.000 0.007 5.94 6.077 6.214 5.984 5.88 6.042 6.184 5.931 5.692 5.984 5.598 5.931 9.293 9.125 0.167 9.321 9.321 0.000
PRIMET_226 2015-09-28 08:25:00 226 156.7 2.00 269 0.007 0.007 147.900 0.000 5.583 5.918 0.189 0.0 5.88 6.037 6.172 5.918 98.000 100.000 0.007 5.90 6.050 6.190 5.945 5.86 6.017 6.149 5.889 5.622 5.945 5.556 5.889 9.273 9.084 0.185 9.298 9.298 0.000
PRIMET_226 2015-09-28 08:20:00 226 156.7 2.00 210 0.007 0.007 148.000 0.000 5.551 5.879 0.197 0.0 5.86 6.029 6.154 5.879 97.900 100.000 0.007 5.88 6.050 6.164 5.905 5.85 6.017 6.148 5.863 5.569 5.905 5.533 5.863 9.262 9.064 0.194 9.273 9.273 0.000
PRIMET_226 2015-09-28 08:15:00 226 156.7 4.50 240 0.007 0.007 148.000 0.000 5.535 5.841 0.192 0.0 5.84 6.012 6.132 5.841 97.900 100.000 0.007 5.87 6.040 6.159 5.876 5.81 5.983 6.105 5.810 5.563 5.876 5.512 5.810 9.246 9.054 0.194 9.248 9.248 0.000
PRIMET_226 2015-09-28 08:10:00 226 156.7 4.50 206 0.007 0.007 159.300 3.785 5.516 5.795 0.175 0.0 5.79 5.968 6.090 5.795 98.100 100.000 0.007 5.82 5.986 6.111 5.830 5.76 5.930 6.044 5.740 5.540 5.830 5.487 5.740 9.217 9.042 0.175 9.219 9.219 0.000
PRIMET_226 2015-09-28 08:05:00 226 156.7 6.50 202 0.007 0.007 160.600 0.063 5.451 5.700 0.156 0.0 5.70 5.880 6.007 5.701 98.300 100.000 0.007 5.73 5.925 6.041 5.733 5.66 5.852 5.977 5.670 5.469 5.733 5.432 5.670 9.157 9.001 0.156 9.159 9.158 0.000
PRIMET_226 2015-09-28 08:00:00 226 156.7 7.50 265 0.007 0.007 160.600 0.069 5.379 5.606 0.134 0.0 5.59 5.771 5.902 5.606 98.500 100.000 0.007 5.67 5.839 5.969 5.653 5.52 5.691 5.838 5.550 5.451 5.653 5.307 5.550 9.090 8.956 0.136 9.099 9.099 0.000
PRIMET_226 2015-09-28 07:55:00 226 156.7 7.50 201 0.007 0.007 160.600 0.063 5.273 5.492 0.127 0.0 5.48 5.633 5.769 5.492 98.600 100.000 0.007 5.54 5.686 5.831 5.553 5.41 5.567 5.704 5.440 5.328 5.553 5.202 5.440 9.017 8.890 0.126 9.027 9.027 0.000
PRIMET_226 2015-09-28 07:50:00 226 156.7 9.50 208 0.007 0.007 160.300 0.481 5.176 5.389 0.113 0.0 5.36 5.519 5.656 5.389 98.700 100.000 0.007 5.41 5.564 5.709 5.447 5.31 5.469 5.599 5.343 5.217 5.447 5.140 5.343 8.944 8.830 0.116 8.962 8.962 0.000
PRIMET_226 2015-09-28 07:45:00 226 156.7 11.50 204 0.007 0.007 159.600 0.056 5.116 5.271 0.081 0.0 5.25 5.401 5.535 5.271 99.100 100.000 0.007 5.31 5.463 5.600 5.337 5.18 5.316 5.448 5.197 5.161 5.337 5.059 5.197 8.874 8.794 0.080 8.889 8.889 0.000
PRIMET_226 2015-09-28 07:40:00 226 156.7 13.50 243 0.007 0.007 154.100 4.432 5.008 5.147 0.061 0.0 5.11 5.250 5.384 5.147 99.300 100.000 0.007 5.17 5.303 5.435 5.187 5.07 5.206 5.340 5.107 5.054 5.187 4.982 5.107 8.789 8.728 0.062 8.813 8.813 0.000
PRIMET_226 2015-09-28 07:35:00 226 156.7 17.50 212 0.007 0.007 150.400 0.028 4.928 5.046 0.041 0.0 4.99 5.143 5.276 5.046 99.500 100.000 0.007 5.07 5.203 5.340 5.107 4.92 5.068 5.210 4.987 4.994 5.107 4.862 4.987 8.720 8.679 0.044 8.751 8.751 0.000
PRIMET_226 2015-09-28 07:30:00 226 156.7 19.50 240 0.007 0.007 153.800 3.125 4.817 4.950 0.031 0.0 4.87 5.017 5.165 4.950 99.600 100.000 0.007 4.93 5.076 5.210 4.990 4.81 4.972 5.132 4.911 4.873 4.990 4.770 4.911 8.643 8.612 0.035 8.692 8.692 0.000
PRIMET_226 2015-09-28 07:25:00 226 156.7 21.50 214 0.007 0.007 156.600 0.040 4.760 4.885 0.021 0.0 4.79 4.944 5.092 4.885 99.800 100.000 0.007 4.82 4.972 5.125 4.911 4.76 4.913 5.061 4.854 4.778 4.911 4.730 4.854 8.598 8.578 0.017 8.653 8.653 0.000
PRIMET_226 2015-09-28 07:20:00 226 156.7 21.50 271 0.007 0.007 152.600 1.796 4.685 4.800 0.015 0.0 4.71 4.855 5.006 4.800 99.800 100.000 0.007 4.75 4.906 5.048 4.844 4.68 4.826 4.973 4.765 4.719 4.844 4.660 4.765 8.547 8.533 0.017 8.602 8.602 0.000
PRIMET_226 2015-09-28 07:15:00 226 156.7 26.00 222 0.007 0.007 151.700 0.028 4.637 4.741 0.009 0.0 4.65 4.791 4.946 4.741 99.900 100.000 0.007 4.68 4.821 4.975 4.778 4.61 4.751 4.911 4.698 4.669 4.778 4.592 4.698 8.513 8.504 0.009 8.566 8.566 0.000
PRIMET_226 2015-09-28 07:10:00 226 156.7 31.50 218 0.007 0.007 151.700 0.028 4.574 4.667 0.004 0.0 4.58 4.710 4.870 4.667 100.000 100.000 0.007 4.61 4.741 4.911 4.708 4.55 4.671 4.823 4.631 4.595 4.708 4.548 4.631 8.471 8.467 0.000 8.522 8.522 0.000
PRIMET_226 2015-09-28 07:05:00 226 156.7 34.50 328 0.007 0.007 151.700 0.028 4.532 4.593 0.000 0.0 4.53 4.637 4.785 4.593 100.000 100.000 0.007 4.56 4.666 4.823 4.631 4.50 4.604 4.749 4.551 4.558 4.631 4.495 4.551 8.442 8.442 0.000 8.478 8.478 0.000
PRIMET_226 2015-09-28 07:00:00 226 156.7 35.50 244 0.007 0.007 151.700 0.028 4.413 4.480 0.002 0.0 4.42 4.528 4.674 4.480 100.000 100.000 0.007 4.50 4.602 4.749 4.554 4.36 4.478 4.615 4.431 4.497 4.554 4.357 4.431 8.373 8.372 0.000 8.411 8.411 0.000
PRIMET_226 2015-09-28 06:55:00 226 156.7 35.50 364 0.007 0.007 151.700 0.000 4.280 4.367 0.004 0.0 4.29 4.392 4.545 4.367 99.900 100.000 0.007 4.36 4.470 4.620 4.428 4.21 4.285 4.455 4.304 4.360 4.428 4.198 4.304 8.299 8.294 0.008 8.345 8.345 0.000
PRIMET_226 2015-09-28 06:50:00 226 156.7 35.50 339 0.007 0.007 151.700 0.028 4.189 4.305 0.004 0.0 4.20 4.267 4.438 4.305 99.900 100.000 0.007 4.21 4.281 4.451 4.314 4.18 4.258 4.426 4.298 4.202 4.314 4.173 4.298 8.245 8.241 0.008 8.308 8.308 0.000
PRIMET_226 2015-09-28 06:45:00 226 156.7 35.50 318 0.007 0.007 151.700 0.000 4.195 4.289 0.004 0.0 4.20 4.300 4.459 4.289 100.000 100.000 0.007 4.22 4.319 4.475 4.321 4.18 4.280 4.424 4.241 4.209 4.321 4.169 4.241 8.249 8.244 0.000 8.299 8.299 0.000
PRIMET_226 2015-09-28 06:40:00 226 156.7 36.00 269 0.007 0.007 151.700 0.000 4.161 4.240 0.005 0.0 4.17 4.257 4.411 4.240 99.900 100.000 0.007 4.18 4.274 4.418 4.255 4.16 4.241 4.403 4.231 4.176 4.255 4.148 4.231 8.231 8.225 0.008 8.271 8.271 0.000
PRIMET_226 2015-09-28 06:35:00 226 156.7 36.00 264 0.007 0.007 151.700 0.028 4.119 4.231 0.007 0.0 4.13 4.234 4.397 4.231 99.900 100.000 0.007 4.17 4.267 4.411 4.241 4.10 4.213 4.382 4.217 4.160 4.241 4.086 4.217 8.207 8.201 0.008 8.265 8.265 0.000
PRIMET_226 2015-09-28 06:30:00 226 156.7 36.00 322 0.007 0.007 151.700 0.028 4.081 4.214 0.007 0.0 4.09 4.177 4.346 4.214 99.900 100.000 0.007 4.11 4.215 4.375 4.227 4.08 4.153 4.317 4.200 4.096 4.227 4.063 4.200 8.186 8.179 0.008 8.256 8.256 0.000
PRIMET_226 2015-09-28 06:25:00 226 156.7 36.00 258 0.007 0.007 151.700 0.000 4.087 4.178 0.007 0.0 4.10 4.145 4.310 4.178 99.900 100.000 0.007 4.11 4.159 4.317 4.196 4.09 4.131 4.304 4.160 4.100 4.196 4.078 4.160 8.189 8.182 0.008 8.235 8.235 0.000
PRIMET_226 2015-09-28 06:20:00 226 156.7 37.00 332 0.007 0.007 151.700 0.028 4.084 4.159 0.007 0.0 4.10 4.151 4.306 4.159 99.900 100.000 0.007 4.11 4.164 4.318 4.173 4.09 4.143 4.292 4.147 4.100 4.173 4.075 4.147 8.188 8.180 0.008 8.224 8.224 0.000
PRIMET_226 2015-09-28 06:15:00 226 156.7 37.50 316 0.007 0.007 151.700 0.000 4.075 4.162 0.009 0.0 4.09 4.168 4.317 4.162 99.900 100.000 0.007 4.11 4.176 4.325 4.176 4.08 4.158 4.310 4.143 4.095 4.176 4.061 4.143 8.184 8.175 0.008 8.225 8.225 0.000
PRIMET_226 2015-09-28 06:10:00 226 156.7 37.50 305 0.007 0.007 151.700 0.000 4.034 4.122 0.010 0.0 4.05 4.119 4.275 4.122 99.900 100.000 0.007 4.08 4.167 4.318 4.160 4.03 4.080 4.243 4.089 4.060 4.159 4.012 4.089 8.162 8.152 0.008 8.202 8.202 0.000
PRIMET_226 2015-09-28 06:05:00 226 156.7 38.00 348 0.007 0.007 151.700 0.000 4.044 4.129 0.009 0.0 4.06 4.116 4.273 4.129 99.900 100.000 0.007 4.08 4.143 4.290 4.147 4.04 4.096 4.250 4.113 4.067 4.147 4.027 4.113 8.167 8.157 0.008 8.206 8.206 0.000
PRIMET_226 2015-09-28 06:00:00 226 156.7 37.50 305 0.007 0.007 151.700 0.000 4.085 4.169 0.007 0.0 4.10 4.160 4.316 4.169 99.900 100.000 0.007 4.12 4.188 4.336 4.199 4.08 4.140 4.295 4.147 4.109 4.199 4.063 4.147 8.188 8.181 0.008 8.229 8.229 0.000
PRIMET_226 2015-09-28 05:55:00 226 156.7 38.00 347 0.007 0.007 151.700 0.000 4.122 4.210 0.005 0.0 4.13 4.215 4.359 4.210 99.900 100.000 0.007 4.16 4.259 4.404 4.236 4.10 4.183 4.335 4.180 4.155 4.236 4.089 4.180 8.207 8.202 0.008 8.253 8.253 0.000
PRIMET_226 2015-09-28 05:50:00 226 156.7 38.00 350 0.007 0.007 151.700 0.028 4.160 4.220 0.004 0.0 4.17 4.246 4.390 4.220 99.900 100.000 0.007 4.19 4.270 4.414 4.249 4.12 4.195 4.331 4.176 4.189 4.249 4.108 4.176 8.228 8.224 0.008 8.259 8.259 0.000
PRIMET_226 2015-09-28 05:45:00 226 156.7 38.00 331 0.007 0.007 151.700 0.000 4.147 4.192 0.005 0.0 4.16 4.209 4.350 4.192 99.900 100.000 0.007 4.17 4.229 4.378 4.206 4.14 4.188 4.321 4.166 4.161 4.206 4.134 4.166 8.222 8.217 0.008 8.243 8.243 0.000
PRIMET_226 2015-09-28 05:40:00 226 156.7 38.00 321 0.007 0.007 151.000 0.514 4.129 4.190 0.008 0.0 4.14 4.212 4.358 4.190 99.900 100.000 0.007 4.17 4.234 4.378 4.212 4.12 4.180 4.335 4.169 4.155 4.212 4.101 4.169 8.214 8.206 0.008 8.242 8.242 0.000
PRIMET_226 2015-09-28 05:35:00 226 156.7 38.50 321 0.007 0.007 150.600 0.028 4.096 4.182 0.011 0.0 4.11 4.183 4.345 4.182 99.900 100.000 0.007 4.13 4.200 4.363 4.199 4.10 4.167 4.321 4.162 4.110 4.199 4.075 4.162 8.198 8.187 0.008 8.237 8.237 0.000
PRIMET_226 2015-09-28 05:30:00 226 156.7 40.50 326 0.007 0.007 150.700 0.093 4.072 4.175 0.013 0.0 4.09 4.154 4.319 4.175 99.800 100.000 0.007 4.11 4.177 4.340 4.196 4.08 4.137 4.306 4.159 4.086 4.196 4.052 4.159 8.187 8.174 0.016 8.233 8.233 0.000
PRIMET_226 2015-09-28 05:25:00 226 156.7 42.50 305 0.007 0.007 150.700 0.000 4.096 4.213 0.013 0.0 4.12 4.199 4.362 4.213 99.800 100.000 0.007 4.15 4.230 4.382 4.226 4.10 4.175 4.346 4.202 4.126 4.226 4.072 4.202 8.200 8.187 0.016 8.255 8.255 0.000
PRIMET_226 2015-09-28 05:20:00 226 156.7 42.50 328 0.007 0.007 150.400 0.000 4.130 4.252 0.011 0.0 4.15 4.239 4.398 4.252 99.900 100.000 0.007 4.16 4.253 4.408 4.269 4.13 4.228 4.385 4.229 4.145 4.269 4.112 4.229 8.218 8.207 0.008 8.278 8.278 0.000
PRIMET_226 2015-09-28 05:15:00 226 156.7 43.00 267 0.007 0.007 150.400 0.028 4.169 4.276 0.009 0.0 4.18 4.253 4.411 4.276 99.900 100.000 0.007 4.22 4.297 4.454 4.309 4.16 4.225 4.387 4.252 4.210 4.309 4.136 4.252 8.238 8.229 0.008 8.292 8.292 0.000
PRIMET_226 2015-09-28 05:10:00 226 156.7 43.00 344 0.007 0.007 150.400 0.000 4.221 4.312 0.007 0.0 4.23 4.322 4.470 4.312 99.900 100.000 0.007 4.25 4.343 4.485 4.329 4.21 4.287 4.436 4.282 4.238 4.329 4.197 4.282 8.267 8.260 0.008 8.313 8.313 0.000
PRIMET_226 2015-09-28 05:05:00 226 156.7 43.00 306 0.007 0.007 150.400 0.000 4.205 4.306 0.005 0.0 4.22 4.288 4.443 4.306 99.900 100.000 0.007 4.25 4.324 4.481 4.336 4.18 4.263 4.417 4.272 4.247 4.336 4.167 4.272 8.256 8.250 0.008 8.309 8.309 0.000
PRIMET_226 2015-09-28 05:00:00 226 156.7 44.00 379 0.007 0.007 150.400 0.000 4.281 4.367 0.003 0.0 4.29 4.356 4.514 4.367 100.000 100.000 0.007 4.32 4.393 4.537 4.393 4.25 4.329 4.481 4.346 4.318 4.393 4.236 4.346 8.297 8.294 0.000 8.345 8.345 0.000
PRIMET_226 2015-09-28 04:55:00 226 156.7 43.00 347 0.007 0.007 150.400 0.028 4.272 4.358 0.004 0.0 4.28 4.365 4.524 4.358 100.000 100.000 0.007 4.33 4.422 4.569 4.399 4.24 4.306 4.471 4.306 4.321 4.399 4.227 4.306 8.293 8.289 0.000 8.339 8.339 0.000
PRIMET_226 2015-09-28 04:50:00 226 156.7 44.00 353 0.007 0.007 150.400 0.000 4.242 4.321 0.006 0.0 4.25 4.319 4.473 4.321 99.900 100.000 0.007 4.26 4.335 4.494 4.342 4.24 4.299 4.451 4.306 4.253 4.342 4.224 4.306 8.278 8.272 0.008 8.318 8.318 0.000
PRIMET_226 2015-09-28 04:45:00 226 156.7 44.50 366 0.007 0.007 150.400 0.000 4.218 4.292 0.007 0.0 4.23 4.280 4.430 4.292 99.900 100.000 0.007 4.26 4.322 4.479 4.312 4.21 4.259 4.406 4.279 4.242 4.312 4.198 4.279 8.265 8.258 0.008 8.301 8.301 0.000
PRIMET_226 2015-09-28 04:40:00 226 156.7 43.00 368 0.007 0.007 150.400 0.000 4.257 4.326 0.007 0.0 4.27 4.333 4.473 4.326 99.900 100.000 0.007 4.28 4.362 4.503 4.345 4.24 4.289 4.447 4.302 4.274 4.345 4.231 4.302 8.288 8.280 0.008 8.321 8.321 0.000
PRIMET_226 2015-09-28 04:35:00 226 156.7 43.00 333 0.007 0.007 150.400 0.056 4.274 4.341 0.009 0.0 4.29 4.382 4.509 4.341 99.900 100.000 0.007 4.32 4.409 4.519 4.358 4.27 4.367 4.495 4.315 4.297 4.358 4.255 4.315 8.300 8.290 0.008 8.329 8.329 0.000
PRIMET_226 2015-09-28 04:30:00 226 156.7 43.00 328 0.007 0.007 150.500 0.040 4.257 4.335 0.011 0.0 4.28 4.312 4.463 4.335 99.900 100.000 0.007 4.29 4.346 4.488 4.365 4.26 4.292 4.436 4.312 4.274 4.365 4.244 4.312 8.291 8.280 0.008 8.326 8.326 0.000
PRIMET_226 2015-09-28 04:25:00 226 156.7 42.50 325 0.007 0.007 150.400 0.000 4.286 4.396 0.010 0.0 4.30 4.343 4.521 4.396 99.900 100.000 0.007 4.33 4.361 4.551 4.424 4.28 4.323 4.490 4.348 4.315 4.424 4.255 4.348 8.307 8.297 0.008 8.362 8.362 0.000
PRIMET_226 2015-09-28 04:20:00 226 156.7 43.00 343 0.007 0.007 150.000 0.694 4.353 4.440 0.008 0.0 4.37 4.406 4.575 4.440 99.900 100.000 0.007 4.41 4.458 4.608 4.464 4.33 4.361 4.552 4.414 4.396 4.464 4.313 4.414 8.345 8.336 0.008 8.388 8.388 0.000
PRIMET_226 2015-09-28 04:15:00 226 156.7 42.50 337 0.007 0.007 149.100 0.028 4.413 4.496 0.006 0.0 4.42 4.481 4.644 4.496 99.900 100.000 0.007 4.49 4.528 4.680 4.530 4.39 4.461 4.616 4.464 4.480 4.530 4.377 4.464 8.378 8.372 0.008 8.421 8.421 0.000
PRIMET_226 2015-09-28 04:10:00 226 156.7 43.00 362 0.007 0.007 149.100 0.000 4.419 4.478 0.008 0.0 4.43 4.493 4.648 4.478 99.900 100.000 0.007 4.49 4.544 4.703 4.530 4.39 4.430 4.576 4.426 4.477 4.530 4.378 4.426 8.383 8.375 0.008 8.410 8.410 0.000
PRIMET_226 2015-09-28 04:05:00 226 156.7 42.50 364 0.007 0.007 149.100 0.000 4.418 4.478 0.009 0.0 4.43 4.470 4.622 4.478 99.900 100.000 0.007 4.46 4.509 4.663 4.519 4.40 4.429 4.582 4.439 4.445 4.519 4.383 4.439 8.383 8.375 0.008 8.410 8.410 0.000
PRIMET_226 2015-09-28 04:00:00 226 156.7 42.50 344 0.007 0.007 150.100 0.906 4.426 4.483 0.011 0.0 4.44 4.496 4.641 4.483 99.900 100.000 0.007 4.47 4.535 4.682 4.516 4.42 4.455 4.600 4.459 4.452 4.516 4.398 4.459 8.390 8.379 0.008 8.413 8.413 0.000
PRIMET_226 2015-09-28 03:55:00 226 156.7 43.50 361 0.007 0.007 152.000 0.028 4.440 4.501 0.011 0.0 4.46 4.488 4.642 4.501 99.900 100.000 0.007 4.48 4.512 4.675 4.526 4.45 4.459 4.604 4.466 4.456 4.526 4.424 4.466 8.399 8.388 0.008 8.423 8.423 0.000
PRIMET_226 2015-09-28 03:50:00 226 156.7 40.50 348 0.007 0.007 152.000 0.028 4.486 4.536 0.012 0.0 4.51 4.537 4.685 4.536 99.900 100.000 0.007 4.54 4.556 4.703 4.552 4.47 4.513 4.674 4.516 4.516 4.552 4.445 4.516 8.426 8.415 0.008 8.444 8.444 0.000
PRIMET_226 2015-09-28 03:45:00 226 156.7 37.00 278 0.007 0.007 152.000 0.040 4.527 4.563 0.012 0.0 4.55 4.565 4.695 4.563 99.900 100.000 0.007 4.57 4.599 4.720 4.592 4.53 4.545 4.678 4.529 4.549 4.592 4.506 4.529 8.451 8.439 0.008 8.460 8.460 0.000
PRIMET_226 2015-09-28 03:40:00 226 156.7 37.00 326 0.007 0.007 152.000 0.028 4.540 4.591 0.015 0.0 4.57 4.592 4.723 4.591 99.800 100.000 0.007 4.58 4.609 4.738 4.602 4.55 4.575 4.704 4.579 4.555 4.602 4.522 4.579 8.462 8.447 0.017 8.477 8.477 0.000
PRIMET_226 2015-09-28 03:35:00 226 156.7 37.00 272 0.007 0.007 152.000 0.040 4.568 4.624 0.016 0.0 4.59 4.600 4.739 4.624 99.800 100.000 0.007 4.63 4.629 4.766 4.662 4.57 4.585 4.717 4.596 4.604 4.662 4.546 4.596 8.479 8.463 0.017 8.496 8.496 0.000
PRIMET_226 2015-09-28 03:30:00 226 156.7 40.50 278 0.007 0.007 152.000 0.028 4.622 4.687 0.017 0.0 4.65 4.689 4.834 4.687 99.800 100.000 0.007 4.67 4.728 4.875 4.719 4.62 4.634 4.773 4.656 4.639 4.719 4.592 4.656 8.512 8.495 0.017 8.534 8.534 0.000
PRIMET_226 2015-09-28 03:25:00 226 156.7 43.00 345 0.007 0.007 152.000 0.028 4.630 4.698 0.019 0.0 4.66 4.700 4.849 4.698 99.800 100.000 0.007 4.68 4.735 4.889 4.719 4.64 4.680 4.828 4.686 4.652 4.719 4.605 4.686 8.520 8.500 0.017 8.540 8.540 0.000
PRIMET_226 2015-09-28 03:20:00 226 156.7 40.50 323 0.007 0.007 152.000 0.000 4.675 4.713 0.020 0.0 4.71 4.699 4.839 4.713 99.800 100.000 0.007 4.73 4.728 4.872 4.735 4.68 4.669 4.813 4.682 4.701 4.735 4.649 4.682 8.546 8.527 0.017 8.549 8.549 0.000
PRIMET_226 2015-09-28 03:15:00 226 156.7 40.50 348 0.007 0.007 152.000 0.040 4.715 4.763 0.021 0.0 4.75 4.761 4.896 4.763 99.800 100.000 0.007 4.78 4.788 4.917 4.785 4.72 4.728 4.862 4.745 4.739 4.785 4.692 4.745 8.572 8.551 0.017 8.579 8.579 0.000
PRIMET_226 2015-09-28 03:10:00 226 156.7 32.50 324 0.007 0.007 151.900 0.040 4.755 4.807 0.021 0.0 4.79 4.797 4.921 4.807 99.800 100.000 0.007 4.82 4.823 4.950 4.828 4.76 4.784 4.909 4.778 4.790 4.828 4.727 4.778 8.596 8.575 0.017 8.606 8.606 0.000
PRIMET_226 2015-09-28 03:05:00 226 156.7 26.00 369 0.007 0.007 151.900 0.040 4.806 4.873 0.023 0.0 4.84 4.879 5.007 4.873 99.700 100.000 0.007 4.88 4.925 5.047 4.911 4.81 4.826 4.965 4.835 4.837 4.911 4.772 4.835 8.628 8.605 0.026 8.646 8.646 0.000
PRIMET_226 2015-09-28 03:00:00 226 156.7 23.50 367 0.007 0.007 151.900 0.040 4.811 4.916 0.026 0.0 4.85 4.906 5.048 4.916 99.700 100.000 0.007 4.87 4.930 5.063 4.931 4.83 4.885 5.034 4.904 4.835 4.930 4.793 4.904 8.634 8.608 0.026 8.672 8.672 0.000
PRIMET_226 2015-09-28 02:55:00 226 156.7 21.00 256 0.007 0.007 151.900 0.190 4.843 4.956 0.028 0.0 4.89 4.931 5.081 4.956 99.700 100.000 0.007 4.91 4.966 5.118 4.986 4.86 4.900 5.053 4.919 4.863 4.986 4.818 4.919 8.655 8.628 0.026 8.696 8.696 0.000
PRIMET_226 2015-09-28 02:50:00 226 156.7 19.00 270 0.007 0.007 151.200 0.655 4.890 5.008 0.028 0.0 4.94 4.985 5.138 5.008 99.700 100.000 0.007 4.96 5.015 5.167 5.039 4.91 4.966 5.113 4.976 4.913 5.039 4.863 4.976 8.684 8.656 0.026 8.728 8.728 0.000
PRIMET_226 2015-09-28 02:45:00 226 156.7 20.50 210 0.007 0.007 150.200 0.000 4.939 5.072 0.030 0.0 4.99 5.044 5.199 5.072 99.700 100.000 0.007 5.01 5.080 5.248 5.122 4.96 5.000 5.157 5.029 4.967 5.122 4.908 5.029 8.715 8.686 0.026 8.767 8.767 0.000
PRIMET_226 2015-09-28 02:40:00 226 156.7 20.50 362 0.007 0.007 150.200 0.000 4.955 5.149 0.036 0.0 5.01 5.110 5.275 5.149 99.600 100.000 0.007 5.03 5.127 5.305 5.172 4.99 5.083 5.236 5.112 4.980 5.172 4.929 5.112 8.732 8.695 0.035 8.814 8.814 0.000
PRIMET_226 2015-09-28 02:35:00 226 156.7 20.50 348 0.007 0.006 181.200 17.190 4.958 5.198 0.039 0.0 5.02 5.138 5.311 5.198 99.600 100.000 0.007 5.10 5.193 5.353 5.235 4.99 5.097 5.282 5.169 5.042 5.235 4.916 5.169 8.736 8.697 0.035 8.844 8.844 0.000
PRIMET_226 2015-09-28 02:30:00 226 156.7 13.00 361 0.007 0.007 190.900 0.079 5.078 5.248 0.036 0.0 5.14 5.211 5.369 5.248 99.600 100.000 0.007 5.16 5.221 5.390 5.269 5.09 5.194 5.353 5.225 5.111 5.269 5.036 5.225 8.806 8.770 0.035 8.875 8.875 0.000
PRIMET_226 2015-09-28 02:25:00 226 156.7 7.50 291 0.007 0.007 191.000 0.000 5.157 5.280 0.033 0.0 5.21 5.273 5.415 5.280 99.600 100.000 0.007 5.25 5.312 5.454 5.312 5.16 5.228 5.371 5.249 5.194 5.312 5.100 5.249 8.852 8.819 0.035 8.895 8.895 0.000
PRIMET_226 2015-09-28 02:20:00 226 156.7 5.00 209 0.007 0.007 189.700 0.982 5.193 5.309 0.034 0.0 5.25 5.306 5.452 5.309 99.600 100.000 0.007 5.28 5.325 5.474 5.335 5.23 5.283 5.431 5.282 5.229 5.335 5.175 5.282 8.875 8.841 0.036 8.913 8.913 0.000
PRIMET_226 2015-09-28 02:15:00 226 156.7 5.00 278 0.007 0.007 189.000 0.000 5.252 5.359 0.030 0.0 5.30 5.353 5.491 5.359 99.700 100.000 0.007 5.35 5.398 5.535 5.412 5.27 5.318 5.460 5.319 5.304 5.412 5.219 5.319 8.907 8.877 0.027 8.944 8.944 0.000
PRIMET_226 2015-09-28 02:10:00 226 156.7 5.00 196 0.007 0.007 189.000 0.000 5.353 5.433 0.025 0.0 5.39 5.449 5.581 5.433 99.700 100.000 0.007 5.43 5.504 5.631 5.465 5.35 5.406 5.543 5.402 5.395 5.465 5.306 5.402 8.965 8.940 0.027 8.990 8.990 0.000
PRIMET_226 2015-09-28 02:05:00 226 156.7 4.50 195 0.007 0.007 189.000 0.000 5.360 5.452 0.026 0.0 5.40 5.485 5.618 5.452 99.700 100.000 0.007 5.43 5.530 5.664 5.475 5.38 5.440 5.577 5.428 5.391 5.475 5.336 5.428 8.970 8.944 0.027 9.002 9.002 0.000
PRIMET_226 2015-09-28 02:00:00 226 156.7 4.00 201 0.021 0.021 189.000 0.000 5.403 5.485 0.027 0.0 5.45 5.514 5.644 5.485 99.700 100.000 0.176 5.47 5.538 5.669 5.504 5.42 5.473 5.607 5.445 5.425 5.504 5.378 5.445 8.998 8.971 0.027 9.022 9.022 0.000
PRIMET_226 2015-09-28 01:55:00 226 156.7 2.00 242 0.088 0.088 188.800 0.532 5.373 5.489 0.032 0.0 5.43 5.504 5.641 5.489 99.600 100.000 0.229 5.45 5.534 5.661 5.504 5.41 5.481 5.628 5.474 5.402 5.504 5.358 5.474 8.985 8.952 0.036 9.025 9.025 0.000
PRIMET_226 2015-09-28 01:50:00 226 156.7 0.50 364 0.007 0.007 188.800 1.064 5.401 5.520 0.033 0.0 5.45 5.493 5.643 5.520 99.600 100.000 0.007 5.48 5.505 5.658 5.540 5.44 5.482 5.625 5.500 5.429 5.540 5.382 5.500 9.004 8.970 0.036 9.044 9.044 0.000
PRIMET_226 2015-09-28 01:45:00 226 156.7 0.50 200 0.007 0.007 188.200 0.000 5.489 5.572 0.029 0.0 5.54 5.547 5.685 5.572 99.700 100.000 0.007 5.59 5.590 5.722 5.613 5.48 5.490 5.632 5.526 5.544 5.613 5.429 5.526 9.054 9.025 0.027 9.077 9.077 0.000
PRIMET_226 2015-09-28 01:40:00 226 156.7 0.00 305 0.007 0.007 188.200 0.000 5.563 5.642 0.029 0.0 5.61 5.637 5.774 5.642 99.700 100.000 0.007 5.64 5.682 5.827 5.686 5.58 5.584 5.716 5.596 5.588 5.686 5.532 5.596 9.100 9.071 0.027 9.121 9.121 0.000
PRIMET_226 2015-09-28 01:35:00 226 156.7 -0.50 189 0.039 0.039 187.900 0.318 5.575 5.682 0.034 0.0 5.63 5.691 5.838 5.682 99.600 100.000 0.216 5.65 5.714 5.866 5.699 5.61 5.654 5.809 5.672 5.597 5.699 5.555 5.672 9.113 9.079 0.036 9.147 9.147 0.000
PRIMET_226 2015-09-28 01:30:00 226 156.7 -1.00 196 0.009 0.009 187.900 0.345 5.598 5.693 0.036 0.0 5.66 5.664 5.813 5.693 99.600 100.000 0.065 5.69 5.717 5.854 5.729 5.62 5.623 5.781 5.659 5.635 5.729 5.565 5.658 9.130 9.094 0.037 9.154 9.154 0.000
PRIMET_226 2015-09-28 01:25:00 226 156.7 -2.50 184 0.007 0.007 191.800 1.632 5.650 5.766 0.038 0.0 5.71 5.728 5.876 5.766 99.600 100.000 0.007 5.74 5.782 5.922 5.809 5.68 5.709 5.847 5.719 5.684 5.809 5.618 5.719 9.164 9.126 0.037 9.200 9.200 0.000
PRIMET_226 2015-09-28 01:20:00 226 156.7 -4.00 202 0.007 0.007 192.500 0.063 5.702 5.845 0.039 0.0 5.76 5.823 5.969 5.845 99.600 100.000 0.007 5.80 5.869 6.006 5.885 5.73 5.777 5.927 5.795 5.736 5.885 5.671 5.795 9.199 9.159 0.037 9.251 9.251 0.000
PRIMET_226 2015-09-28 01:15:00 226 156.7 -4.00 178 0.007 0.007 192.500 0.040 5.748 5.921 0.043 0.0 5.82 5.886 6.044 5.921 99.500 100.000 0.007 5.83 5.907 6.075 5.955 5.79 5.856 6.006 5.875 5.760 5.955 5.728 5.875 9.232 9.189 0.046 9.300 9.300 0.000
PRIMET_226 2015-09-28 01:10:00 226 156.7 -4.00 205 0.032 0.032 192.500 0.122 5.790 5.990 0.047 0.0 5.86 5.912 6.094 5.990 99.500 100.000 0.287 5.91 5.928 6.103 6.012 5.84 5.896 6.073 5.965 5.830 6.012 5.770 5.965 9.262 9.215 0.046 9.344 9.344 0.000
PRIMET_226 2015-09-28 01:05:00 226 156.7 -4.00 187 0.007 0.007 192.600 0.056 5.862 5.972 0.047 0.0 5.93 5.925 6.078 5.972 99.500 100.000 0.007 5.97 5.972 6.107 6.002 5.89 5.896 6.047 5.941 5.900 6.002 5.819 5.941 9.309 9.262 0.047 9.332 9.332 0.000
PRIMET_226 2015-09-28 01:00:00 226 156.7 -4.00 196 0.007 0.007 192.600 0.040 5.921 6.028 0.049 0.0 6.00 5.991 6.141 6.028 99.500 100.000 0.007 6.03 6.023 6.178 6.066 5.97 5.975 6.115 5.998 5.954 6.066 5.889 5.998 9.349 9.300 0.047 9.369 9.369 0.000
PRIMET_226 2015-09-28 00:55:00 226 156.7 -4.00 192 0.007 0.007 192.600 0.069 5.979 6.095 0.051 0.0 6.06 6.085 6.220 6.095 99.500 100.000 0.007 6.08 6.104 6.236 6.126 6.03 6.030 6.189 6.066 6.004 6.126 5.957 6.066 9.388 9.337 0.047 9.412 9.412 0.000
PRIMET_226 2015-09-28 00:50:00 226 156.7 -4.00 392 0.007 0.007 192.700 0.056 6.022 6.171 0.051 0.0 6.10 6.135 6.267 6.171 99.500 100.000 0.007 6.14 6.181 6.324 6.216 6.08 6.106 6.233 6.130 6.066 6.216 5.997 6.130 9.416 9.365 0.047 9.462 9.462 0.000
PRIMET_226 2015-09-28 00:45:00 226 156.7 -4.00 187 0.007 0.007 192.700 0.063 6.119 6.253 0.048 0.0 6.19 6.243 6.381 6.253 99.500 100.000 0.007 6.22 6.277 6.412 6.292 6.15 6.191 6.333 6.216 6.152 6.292 6.075 6.216 9.476 9.428 0.047 9.516 9.516 0.000
PRIMET_226 2015-09-28 00:40:00 226 156.7 -3.50 196 0.033 0.033 192.700 0.048 6.157 6.286 0.052 0.0 6.24 6.283 6.417 6.286 99.500 100.000 0.170 6.26 6.294 6.429 6.298 6.21 6.270 6.400 6.275 6.174 6.298 6.135 6.275 9.504 9.453 0.048 9.537 9.537 0.000
PRIMET_226 2015-09-28 00:35:00 226 156.7 -3.00 195 0.007 0.007 192.500 0.048 6.197 6.325 0.055 0.0 6.28 6.298 6.428 6.325 99.400 100.000 0.007 6.31 6.348 6.488 6.358 6.24 6.273 6.393 6.285 6.226 6.358 6.164 6.285 9.533 9.479 0.057 9.563 9.563 0.000
PRIMET_226 2015-09-28 00:30:00 226 156.7 -2.50 194 0.009 0.009 192.600 0.153 6.246 6.397 0.058 0.0 6.33 6.378 6.533 6.397 99.400 100.000 0.046 6.36 6.426 6.577 6.425 6.31 6.353 6.491 6.365 6.276 6.425 6.223 6.365 9.569 9.511 0.057 9.611 9.611 0.000
PRIMET_226 2015-09-28 00:25:00 226 156.7 -2.00 195 0.026 0.026 192.600 0.168 6.300 6.453 0.062 0.0 6.39 6.443 6.603 6.453 99.400 100.000 0.150 6.43 6.465 6.629 6.495 6.36 6.421 6.577 6.418 6.337 6.495 6.274 6.418 9.609 9.547 0.058 9.648 9.648 0.000
PRIMET_226 2015-09-28 00:20:00 226 156.7 -2.00 196 0.007 0.007 192.600 0.056 6.356 6.533 0.065 0.0 6.45 6.500 6.660 6.533 99.300 100.000 0.007 6.49 6.533 6.694 6.575 6.42 6.470 6.626 6.485 6.392 6.575 6.325 6.485 9.649 9.584 0.068 9.701 9.701 0.000
PRIMET_226 2015-09-28 00:15:00 226 156.7 -1.00 178 0.030 0.030 192.600 0.048 6.431 6.603 0.065 0.0 6.53 6.586 6.729 6.603 99.300 100.000 0.163 6.58 6.623 6.761 6.631 6.49 6.541 6.697 6.575 6.485 6.631 6.391 6.575 9.699 9.633 0.068 9.748 9.748 0.000
PRIMET_226 2015-09-28 00:10:00 226 156.7 0.50 196 0.007 0.007 171.500 0.000 6.490 6.674 0.068 0.0 6.59 6.653 6.800 6.674 99.300 100.000 0.007 6.61 6.689 6.843 6.714 6.57 6.618 6.766 6.635 6.511 6.714 6.471 6.635 9.741 9.673 0.068 9.796 9.796 0.000
PRIMET_226 2015-09-28 00:05:00 226 156.7 1.00 196 0.030 0.030 171.600 0.028 6.547 6.732 0.068 0.0 6.65 6.731 6.878 6.732 99.300 100.000 0.183 6.69 6.767 6.900 6.760 6.61 6.687 6.850 6.701 6.595 6.760 6.510 6.701 9.779 9.711 0.068 9.835 9.835 0.000
PRIMET_226 2015-09-28 00:00:00 226 156.7 1.50 198 0.007 0.007 168.000 1.611 6.630 6.792 0.069 0.0 6.73 6.808 6.941 6.792 99.300 100.000 0.007 6.76 6.826 6.964 6.819 6.70 6.764 6.905 6.757 6.657 6.819 6.595 6.757 9.835 9.766 0.069 9.876 9.876 0.000
PRIMET_226 2015-09-27 23:55:00 226 156.7 1.50 191 0.030 0.030 170.700 0.000 6.660 6.832 0.075 0.0 6.77 6.833 6.965 6.832 99.200 100.000 0.163 6.80 6.853 6.996 6.875 6.75 6.818 6.948 6.799 6.685 6.875 6.641 6.799 9.862 9.786 0.079 9.903 9.903 0.000
PRIMET_226 2015-09-27 23:50:00 226 156.7 2.00 192 0.014 0.014 170.700 0.028 6.699 6.916 0.080 0.0 6.82 6.892 7.045 6.916 99.200 100.000 0.091 6.86 6.932 7.099 6.958 6.79 6.844 6.990 6.872 6.738 6.958 6.671 6.872 9.893 9.813 0.079 9.960 9.960 0.000
PRIMET_226 2015-09-27 23:45:00 226 156.7 2.00 193 0.007 0.007 170.700 0.000 6.789 6.994 0.082 0.0 6.91 6.977 7.129 6.994 99.200 100.000 0.007 6.96 7.014 7.155 7.018 6.84 6.930 7.101 6.961 6.841 7.018 6.722 6.961 9.956 9.874 0.080 10.014 10.014 0.000
PRIMET_226 2015-09-27 23:40:00 226 156.7 2.00 192 0.007 0.007 170.700 0.000 6.854 7.040 0.087 0.0 6.98 7.017 7.164 7.040 99.100 100.000 0.007 7.01 7.046 7.190 7.068 6.94 6.995 7.144 7.008 6.884 7.068 6.824 7.008 10.005 9.918 0.090 10.046 10.046 0.000
PRIMET_226 2015-09-27 23:35:00 226 156.7 2.00 193 0.007 0.007 170.800 0.000 6.910 7.105 0.090 0.0 7.04 7.073 7.216 7.105 99.100 100.000 0.007 7.09 7.129 7.278 7.148 7.00 7.048 7.190 7.061 6.963 7.148 6.871 7.061 10.047 9.956 0.090 10.090 10.090 0.000
PRIMET_226 2015-09-27 23:30:00 226 156.7 2.00 184 0.007 0.007 170.100 0.143 6.987 7.184 0.090 0.0 7.12 7.174 7.317 7.184 99.100 100.000 0.007 7.15 7.195 7.339 7.221 7.08 7.134 7.283 7.154 7.025 7.221 6.955 7.154 10.099 10.009 0.091 10.145 10.145 0.000
PRIMET_226 2015-09-27 23:25:00 226 156.7 3.00 192 0.036 0.036 170.100 0.000 7.029 7.220 0.097 0.0 7.17 7.198 7.346 7.220 99.000 100.000 0.203 7.19 7.211 7.367 7.244 7.14 7.188 7.313 7.198 7.050 7.244 7.011 7.198 10.135 10.038 0.101 10.170 10.170 0.000
PRIMET_226 2015-09-27 23:20:00 226 156.7 4.00 197 0.007 0.007 170.100 0.000 7.073 7.244 0.104 0.0 7.22 7.233 7.345 7.244 99.000 100.000 0.007 7.26 7.279 7.399 7.284 7.18 7.191 7.308 7.204 7.110 7.284 7.037 7.204 10.172 10.068 0.102 10.187 10.187 0.000
PRIMET_226 2015-09-27 23:15:00 226 156.7 4.00 189 0.007 0.007 170.100 0.000 7.120 7.322 0.113 0.0 7.28 7.301 7.424 7.322 98.900 100.000 0.007 7.31 7.330 7.450 7.372 7.25 7.277 7.399 7.277 7.142 7.372 7.100 7.277 10.214 10.101 0.112 10.242 10.242 0.000
PRIMET_226 2015-09-27 23:10:00 226 156.7 4.00 199 0.007 0.007 170.100 0.000 7.185 7.410 0.117 0.0 7.35 7.384 7.509 7.410 98.900 100.000 0.007 7.39 7.429 7.549 7.451 7.32 7.340 7.463 7.362 7.215 7.451 7.152 7.362 10.263 10.146 0.113 10.304 10.304 0.000
PRIMET_226 2015-09-27 23:05:00 226 156.7 4.00 194 0.029 0.029 170.000 0.063 7.252 7.496 0.122 0.0 7.43 7.481 7.602 7.496 98.800 100.000 0.170 7.47 7.521 7.646 7.538 7.39 7.434 7.554 7.448 7.295 7.538 7.211 7.448 10.315 10.193 0.124 10.364 10.364 0.000
PRIMET_226 2015-09-27 23:00:00 226 156.7 4.00 192 0.007 0.007 170.600 0.000 7.370 7.588 0.113 0.0 7.53 7.566 7.685 7.588 98.900 100.000 0.007 7.59 7.626 7.746 7.641 7.47 7.521 7.647 7.531 7.440 7.641 7.299 7.531 10.388 10.275 0.114 10.430 10.430 0.000
PRIMET_226 2015-09-27 22:55:00 226 156.7 4.50 189 0.007 0.007 168.700 0.927 7.478 7.693 0.100 0.0 7.62 7.699 7.825 7.693 99.000 100.000 0.007 7.66 7.752 7.883 7.727 7.56 7.644 7.759 7.647 7.517 7.727 7.415 7.647 10.453 10.352 0.105 10.505 10.505 0.000
PRIMET_226 2015-09-27 22:50:00 226 156.7 5.50 185 0.051 0.051 168.100 0.000 7.516 7.721 0.104 0.0 7.66 7.737 7.859 7.721 99.000 100.000 0.196 7.69 7.757 7.890 7.737 7.63 7.712 7.837 7.707 7.543 7.737 7.483 7.707 10.483 10.378 0.105 10.525 10.525 0.000
PRIMET_226 2015-09-27 22:45:00 226 156.7 6.50 195 0.007 0.007 168.000 0.000 7.559 7.795 0.108 0.0 7.71 7.795 7.915 7.795 99.000 100.000 0.007 7.74 7.834 7.957 7.847 7.69 7.748 7.863 7.741 7.593 7.847 7.537 7.741 10.518 10.409 0.105 10.578 10.578 0.000
PRIMET_226 2015-09-27 22:40:00 226 156.7 7.00 198 0.007 0.007 168.000 0.000 7.634 7.856 0.109 0.0 7.79 7.864 7.988 7.856 99.000 100.000 0.007 7.82 7.876 8.010 7.874 7.75 7.837 7.957 7.831 7.660 7.874 7.603 7.830 10.572 10.463 0.106 10.622 10.622 0.000
PRIMET_226 2015-09-27 22:35:00 226 156.7 7.00 196 0.019 0.019 168.000 0.000 7.661 7.903 0.118 0.0 7.82 7.897 8.040 7.903 98.900 100.000 0.150 7.85 7.910 8.060 7.926 7.80 7.874 8.010 7.870 7.679 7.926 7.646 7.870 10.600 10.482 0.117 10.656 10.656 0.000
PRIMET_226 2015-09-27 22:30:00 226 156.7 7.50 196 0.007 0.007 168.000 0.000 7.695 7.942 0.127 0.0 7.87 7.913 8.070 7.942 98.800 100.000 0.007 7.91 7.931 8.080 7.962 7.83 7.899 8.050 7.923 7.736 7.962 7.657 7.923 10.633 10.506 0.128 10.685 10.685 0.000
PRIMET_226 2015-09-27 22:25:00 226 156.7 8.00 186 0.007 0.007 168.000 0.028 7.775 8.010 0.129 0.0 7.95 8.000 8.140 8.010 98.800 100.000 0.007 7.99 8.060 8.190 8.050 7.91 7.944 8.080 7.969 7.814 8.050 7.733 7.969 10.693 10.564 0.128 10.734 10.734 0.000
PRIMET_226 2015-09-27 22:20:00 226 156.7 8.00 200 0.007 0.007 168.000 0.028 7.833 8.110 0.139 0.0 8.02 8.100 8.260 8.110 98.700 100.000 0.007 8.06 8.140 8.300 8.140 7.99 8.060 8.200 8.050 7.863 8.140 7.808 8.050 10.742 10.606 0.140 10.808 10.808 0.000
PRIMET_226 2015-09-27 22:15:00 226 156.7 8.00 201 0.010 0.010 170.000 1.659 7.880 8.170 0.156 0.0 8.09 8.160 8.310 8.170 98.600 100.000 0.078 8.14 8.190 8.340 8.210 8.06 8.130 8.290 8.140 7.927 8.210 7.851 8.140 10.793 10.640 0.151 10.852 10.852 0.000
PRIMET_226 2015-09-27 22:10:00 226 156.7 8.00 201 0.007 0.007 164.600 0.603 7.975 8.240 0.156 0.0 8.19 8.250 8.390 8.240 98.600 100.000 0.007 8.22 8.290 8.430 8.290 8.14 8.200 8.340 8.200 8.000 8.290 7.929 8.200 10.867 10.709 0.152 10.904 10.904 0.000
PRIMET_226 2015-09-27 22:05:00 226 156.7 8.00 200 0.007 0.007 164.600 3.892 8.030 8.320 0.167 0.0 8.25 8.340 8.480 8.320 98.500 100.000 0.007 8.29 8.380 8.510 8.350 8.21 8.290 8.430 8.280 8.050 8.350 7.993 8.280 10.911 10.749 0.164 10.963 10.963 0.000
PRIMET_226 2015-09-27 22:00:00 226 156.7 8.00 193 0.007 0.006 197.700 12.080 8.110 8.400 0.175 0.0 8.34 8.400 8.540 8.400 98.400 100.000 0.007 8.40 8.440 8.570 8.440 8.28 8.370 8.520 8.350 8.170 8.440 8.040 8.350 10.978 10.808 0.176 11.023 11.023 0.000
PRIMET_226 2015-09-27 21:55:00 226 156.7 8.00 201 0.007 0.007 203.100 0.667 8.200 8.480 0.178 0.0 8.44 8.490 8.610 8.480 98.400 100.000 0.007 8.48 8.530 8.640 8.520 8.39 8.450 8.580 8.430 8.240 8.520 8.160 8.430 11.053 10.874 0.177 11.083 11.083 0.000
PRIMET_226 2015-09-27 21:50:00 226 156.7 8.00 195 0.007 0.007 202.800 0.088 8.270 8.570 0.188 0.0 8.52 8.580 8.690 8.570 98.300 100.000 0.007 8.55 8.620 8.740 8.620 8.48 8.530 8.640 8.520 8.300 8.620 8.230 8.520 11.113 10.926 0.189 11.151 11.151 0.000
PRIMET_226 2015-09-27 21:45:00 226 156.7 8.00 201 0.007 0.007 202.800 0.088 8.360 8.650 0.186 0.0 8.61 8.650 8.770 8.650 98.300 100.000 0.007 8.66 8.710 8.830 8.680 8.55 8.620 8.740 8.620 8.440 8.680 8.290 8.620 11.181 10.993 0.190 11.211 11.211 0.000
PRIMET_226 2015-09-27 21:40:00 226 156.7 8.00 205 0.007 0.007 202.800 0.088 8.480 8.730 0.156 0.0 8.69 8.780 8.890 8.730 98.600 100.000 0.007 8.71 8.820 8.930 8.760 8.67 8.720 8.830 8.690 8.510 8.760 8.450 8.690 11.242 11.083 0.157 11.272 11.272 0.000
PRIMET_226 2015-09-27 21:35:00 226 156.7 8.00 214 0.007 0.007 202.200 0.452 8.470 8.730 0.164 0.0 8.69 8.750 8.870 8.730 98.500 100.000 0.007 8.72 8.790 8.910 8.760 8.66 8.730 8.840 8.710 8.500 8.760 8.450 8.710 11.242 11.075 0.169 11.272 11.272 0.000
PRIMET_226 2015-09-27 21:30:00 226 156.7 6.50 203 0.007 0.007 201.100 0.293 8.530 8.800 0.168 0.0 8.75 8.800 8.920 8.800 98.500 100.000 0.007 8.80 8.840 8.950 8.840 8.72 8.760 8.880 8.770 8.570 8.840 8.500 8.770 11.287 11.120 0.169 11.326 11.326 0.000
PRIMET_226 2015-09-27 21:25:00 226 156.7 5.00 200 0.007 0.007 203.800 2.024 8.610 8.890 0.168 0.0 8.83 8.880 8.990 8.890 98.500 100.000 0.007 8.88 8.930 9.040 8.950 8.78 8.840 8.960 8.850 8.660 8.950 8.550 8.850 11.349 11.181 0.170 11.395 11.395 0.000
PRIMET_226 2015-09-27 21:20:00 226 156.7 4.50 202 0.018 0.018 205.300 0.084 8.680 8.980 0.170 0.0 8.90 8.950 9.060 8.980 98.500 100.000 0.137 8.94 8.990 9.090 9.020 8.87 8.920 9.030 8.940 8.710 9.020 8.650 8.940 11.402 11.234 0.171 11.464 11.464 0.000
PRIMET_226 2015-09-27 21:15:00 226 156.7 3.50 204 0.007 0.007 205.400 0.084 8.730 9.060 0.180 0.0 8.96 9.040 9.150 9.060 98.400 100.000 0.007 8.99 9.090 9.200 9.100 8.93 9.000 9.100 9.020 8.750 9.100 8.710 9.020 11.449 11.272 0.183 11.526 11.526 0.000
PRIMET_226 2015-09-27 21:10:00 226 156.7 3.00 200 0.017 0.017 205.400 0.074 8.790 9.120 0.193 0.0 9.04 9.120 9.230 9.120 98.300 100.000 0.124 9.10 9.170 9.270 9.160 9.00 9.080 9.200 9.100 8.860 9.160 8.740 9.100 11.511 11.318 0.196 11.573 11.573 -0.000
PRIMET_226 2015-09-27 21:05:00 226 156.7 2.50 200 0.022 0.022 205.300 0.074 8.860 9.190 0.197 0.0 9.12 9.200 9.320 9.190 98.300 100.000 0.163 9.15 9.240 9.370 9.220 9.10 9.170 9.290 9.160 8.880 9.220 8.850 9.160 11.573 11.372 0.197 11.628 11.628 -0.000
PRIMET_226 2015-09-27 21:00:00 226 156.7 1.50 200 0.007 0.007 205.200 0.084 8.930 9.260 0.200 0.0 9.19 9.270 9.380 9.260 98.300 100.000 0.007 9.24 9.300 9.420 9.310 9.14 9.230 9.350 9.220 9.000 9.310 8.880 9.220 11.628 11.426 0.198 11.683 11.683 0.000
PRIMET_226 2015-09-27 20:55:00 226 156.7 0.50 203 0.007 0.007 205.200 0.079 9.030 9.340 0.191 0.0 9.27 9.350 9.470 9.340 98.400 100.000 0.007 9.29 9.380 9.510 9.380 9.24 9.310 9.430 9.310 9.040 9.380 9.010 9.310 11.691 11.503 0.187 11.746 11.746 0.000
PRIMET_226 2015-09-27 20:50:00 226 156.7 -0.50 201 0.007 0.007 205.400 0.079 9.060 9.420 0.205 0.0 9.32 9.400 9.530 9.420 98.200 100.000 0.007 9.35 9.430 9.570 9.460 9.30 9.380 9.500 9.380 9.080 9.460 9.040 9.380 11.730 11.526 0.211 11.810 11.810 0.000
PRIMET_226 2015-09-27 20:45:00 226 156.7 -1.00 200 0.012 0.012 205.400 0.088 9.080 9.490 0.230 0.0 9.37 9.460 9.600 9.490 98.000 100.000 0.072 9.42 9.480 9.630 9.520 9.33 9.420 9.560 9.460 9.130 9.520 9.040 9.460 11.770 11.542 0.235 11.865 11.865 0.000
PRIMET_226 2015-09-27 20:40:00 226 156.7 -1.00 200 0.007 0.007 205.400 0.079 9.190 9.560 0.219 0.0 9.46 9.540 9.680 9.560 98.200 100.000 0.007 9.50 9.590 9.730 9.610 9.42 9.470 9.620 9.510 9.230 9.610 9.140 9.510 11.841 11.628 0.213 11.921 11.921 -0.000
PRIMET_226 2015-09-27 20:35:00 226 156.7 -1.00 198 0.007 0.007 205.400 0.069 9.240 9.620 0.225 0.0 9.52 9.610 9.750 9.620 98.100 100.000 0.007 9.56 9.630 9.770 9.630 9.49 9.590 9.730 9.600 9.270 9.630 9.210 9.600 11.889 11.667 0.226 11.970 11.970 0.000
PRIMET_226 2015-09-27 20:30:00 226 156.7 -1.50 200 0.062 0.062 205.400 0.097 9.290 9.670 0.233 0.0 9.58 9.670 9.800 9.670 98.000 100.000 0.209 9.61 9.700 9.840 9.700 9.55 9.630 9.760 9.630 9.320 9.700 9.260 9.630 11.937 11.707 0.239 12.010 12.010 0.000
PRIMET_226 2015-09-27 20:25:00 226 156.7 -2.50 184 0.007 0.007 205.400 0.088 9.340 9.740 0.241 0.0 9.64 9.740 9.880 9.740 98.000 100.000 0.007 9.67 9.780 9.920 9.790 9.61 9.700 9.840 9.700 9.360 9.790 9.310 9.700 11.986 11.746 0.240 12.066 12.066 0.000
PRIMET_226 2015-09-27 20:20:00 226 156.7 -3.50 197 0.009 0.009 205.400 0.093 9.380 9.810 0.249 0.0 9.69 9.810 9.940 9.810 97.900 100.000 0.052 9.73 9.850 9.980 9.830 9.66 9.780 9.910 9.780 9.410 9.830 9.360 9.780 12.026 11.778 0.253 12.123 12.123 0.000
PRIMET_226 2015-09-27 20:15:00 226 156.7 -4.00 197 0.009 0.009 205.400 0.084 9.400 9.850 0.265 0.0 9.73 9.850 9.980 9.850 97.800 100.000 0.052 9.77 9.880 10.020 9.890 9.70 9.820 9.960 9.810 9.440 9.890 9.370 9.810 12.058 11.794 0.265 12.156 12.156 0.000
PRIMET_226 2015-09-27 20:10:00 226 156.7 -4.00 197 0.007 0.007 205.400 0.088 9.460 9.940 0.278 0.0 9.80 9.910 10.060 9.940 97.700 100.000 0.007 9.85 9.950 10.100 9.980 9.77 9.890 10.020 9.870 9.520 9.980 9.430 9.870 12.115 11.841 0.279 12.229 12.229 0.000
PRIMET_226 2015-09-27 20:05:00 226 156.7 -4.50 192 0.007 0.007 205.100 0.622 9.520 10.030 0.273 0.0 9.86 10.010 10.150 10.030 97.800 100.000 0.007 9.87 10.040 10.180 10.070 9.84 9.950 10.100 9.990 9.550 10.070 9.500 9.990 12.164 11.889 0.268 12.303 12.303 0.000
PRIMET_226 2015-09-27 20:00:00 226 156.7 -5.00 197 0.007 0.007 204.000 0.161 9.560 10.100 0.282 0.0 9.91 10.050 10.210 10.100 97.700 100.000 0.007 9.94 10.100 10.260 10.160 9.87 10.010 10.170 10.050 9.600 10.160 9.530 10.050 12.205 11.921 0.281 12.361 12.361 -0.000
PRIMET_226 2015-09-27 19:55:00 226 156.7 -5.00 193 0.007 0.007 204.100 0.088 9.620 10.140 0.267 0.0 9.95 10.130 10.280 10.140 97.800 100.000 0.007 9.98 10.150 10.300 10.160 9.93 10.100 10.270 10.130 9.660 10.160 9.580 10.130 12.238 11.970 0.269 12.394 12.394 0.000
PRIMET_226 2015-09-27 19:50:00 226 156.7 -5.00 192 0.007 0.007 204.100 0.088 9.630 10.190 0.275 0.0 9.97 10.140 10.300 10.190 97.800 100.000 0.007 9.99 10.180 10.350 10.240 9.93 10.100 10.260 10.160 9.650 10.240 9.580 10.160 12.254 11.978 0.270 12.436 12.436 0.000
PRIMET_226 2015-09-27 19:45:00 226 156.7 -5.00 197 0.007 0.007 204.100 0.079 9.600 10.270 0.319 0.0 9.99 10.210 10.390 10.270 97.400 100.000 0.007 10.04 10.230 10.420 10.300 9.96 10.180 10.350 10.230 9.630 10.300 9.560 10.230 12.271 11.953 0.319 12.503 12.503 0.000
PRIMET_226 2015-09-27 19:40:00 226 156.7 -5.00 192 0.007 0.007 203.900 0.274 9.730 10.330 0.301 0.0 10.10 10.270 10.450 10.330 97.600 100.000 0.007 10.12 10.290 10.470 10.350 10.06 10.220 10.420 10.310 9.760 10.350 9.670 10.310 12.361 12.058 0.297 12.553 12.553 -0.000
PRIMET_226 2015-09-27 19:35:00 226 156.7 -4.50 196 0.007 0.007 203.800 1.606 9.690 10.380 0.339 0.0 10.10 10.270 10.480 10.380 97.300 100.000 0.007 10.12 10.280 10.510 10.420 10.08 10.260 10.450 10.350 9.740 10.420 9.640 10.350 12.361 12.026 0.334 12.595 12.595 0.000
PRIMET_226 2015-09-27 19:30:00 226 156.7 -4.50 196 0.007 0.007 206.000 0.074 9.660 10.450 0.404 0.0 10.16 10.320 10.540 10.450 96.700 100.000 0.007 10.20 10.360 10.580 10.480 10.12 10.280 10.510 10.410 9.680 10.480 9.650 10.410 12.411 12.002 0.410 12.654 12.654 0.000
PRIMET_226 2015-09-27 19:25:00 226 156.7 -4.50 197 0.007 0.007 206.000 0.079 9.750 10.520 0.430 0.0 10.27 10.420 10.620 10.530 96.600 99.900 0.007 10.31 10.500 10.680 10.580 10.21 10.370 10.590 10.490 9.810 10.540 9.670 10.490 12.503 12.075 0.425 12.722 12.713 0.013
PRIMET_226 2015-09-27 19:20:00 226 156.7 -3.00 196 0.007 0.007 206.000 0.074 9.730 10.530 0.497 0.1 10.34 10.510 10.710 10.630 96.000 99.400 0.007 10.42 10.570 10.770 10.700 10.29 10.490 10.680 10.570 9.790 10.560 9.690 10.520 12.561 12.058 0.502 12.807 12.722 0.077
PRIMET_226 2015-09-27 19:15:00 226 156.7 -2.50 192 0.007 0.007 206.000 0.084 9.860 10.590 0.549 0.1 10.52 10.670 10.840 10.740 95.700 99.000 0.007 10.59 10.720 10.870 10.780 10.45 10.580 10.770 10.700 9.940 10.610 9.770 10.560 12.713 12.164 0.547 12.901 12.773 0.129
PRIMET_226 2015-09-27 19:10:00 226 156.7 -2.50 194 0.007 0.007 206.000 0.084 9.960 10.600 0.556 0.2 10.62 10.730 10.910 10.830 95.700 98.500 0.007 10.67 10.770 10.950 10.880 10.58 10.700 10.870 10.790 10.000 10.630 9.920 10.580 12.798 12.246 0.550 12.979 12.781 0.195
PRIMET_226 2015-09-27 19:05:00 226 156.7 -2.00 196 0.007 0.007 206.000 0.084 10.000 10.640 0.586 0.3 10.70 10.820 11.000 10.940 95.400 98.000 0.007 10.75 10.850 11.030 11.000 10.66 10.770 10.950 10.890 10.030 10.660 9.950 10.620 12.867 12.279 0.592 13.074 12.815 0.261
PRIMET_226 2015-09-27 19:00:00 226 156.7 -2.00 195 0.007 0.007 206.000 0.074 10.050 10.700 0.646 0.3 10.81 10.940 11.110 11.060 95.000 97.700 0.007 10.88 11.000 11.160 11.110 10.75 10.860 11.040 11.000 10.100 10.730 10.000 10.660 12.961 12.320 0.648 13.179 12.867 0.303
PRIMET_226 2015-09-27 18:55:00 226 156.7 -2.00 191 0.007 0.007 206.000 0.079 10.130 10.740 0.677 0.4 10.93 11.050 11.210 11.160 94.800 97.200 0.007 10.97 11.090 11.250 11.210 10.88 11.000 11.160 11.120 10.170 10.780 10.060 10.710 13.065 12.386 0.679 13.266 12.901 0.371
PRIMET_226 2015-09-27 18:50:00 226 156.7 -2.00 193 0.007 0.007 206.000 0.079 10.200 10.820 0.713 0.4 11.03 11.150 11.320 11.270 94.600 97.100 0.007 11.09 11.220 11.380 11.320 10.96 11.090 11.250 11.220 10.230 10.870 10.140 10.780 13.152 12.444 0.710 13.364 12.970 0.388
PRIMET_226 2015-09-27 18:45:00 226 156.7 -2.00 196 0.007 0.007 206.000 0.074 10.220 10.860 0.796 0.5 11.15 11.290 11.450 11.380 94.000 96.600 0.007 11.20 11.370 11.530 11.440 11.09 11.240 11.390 11.320 10.280 10.880 10.190 10.830 13.258 12.461 0.795 13.461 13.004 0.458
PRIMET_226 2015-09-27 18:40:00 226 156.7 -2.00 188 0.007 0.007 206.000 0.088 10.330 10.930 0.807 0.5 11.27 11.440 11.590 11.500 94.000 96.300 0.007 11.31 11.490 11.640 11.560 11.22 11.380 11.530 11.440 10.410 11.000 10.260 10.890 13.364 12.553 0.802 13.569 13.065 0.502
PRIMET_226 2015-09-27 18:35:00 226 156.7 -2.00 193 0.007 0.007 206.000 0.165 10.420 11.010 0.801 0.5 11.35 11.510 11.670 11.610 94.000 96.100 0.007 11.40 11.530 11.700 11.650 11.32 11.490 11.650 11.560 10.470 11.050 10.380 10.980 13.435 12.629 0.806 13.668 13.135 0.533
PRIMET_226 2015-09-27 18:30:00 226 156.7 -2.00 196 0.007 0.007 206.200 0.074 10.470 11.030 0.792 0.6 11.38 11.570 11.740 11.700 94.100 95.700 0.007 11.40 11.610 11.790 11.750 11.37 11.530 11.700 11.650 10.500 11.060 10.440 10.990 13.461 12.671 0.794 13.749 13.152 0.591
PRIMET_226 2015-09-27 18:25:00 226 156.7 -2.00 195 0.007 0.007 206.200 0.079 10.490 11.080 0.800 0.7 11.41 11.640 11.830 11.810 94.100 95.300 0.007 11.47 11.690 11.890 11.890 11.36 11.610 11.790 11.750 10.540 11.100 10.460 11.060 13.488 12.688 0.796 13.850 13.196 0.651
PRIMET_226 2015-09-27 18:20:00 226 156.7 -2.50 187 0.007 0.007 206.200 0.084 10.490 11.090 0.829 0.8 11.44 11.710 11.910 11.940 93.900 94.500 0.007 11.47 11.720 11.940 12.020 11.42 11.690 11.880 11.880 10.530 11.130 10.450 11.070 13.515 12.688 0.824 13.969 13.205 0.768
PRIMET_226 2015-09-27 18:15:00 226 156.7 -2.50 196 0.007 0.007 206.200 0.079 10.500 11.120 0.956 0.9 11.60 11.830 12.060 12.100 93.000 93.700 0.007 11.68 11.910 12.150 12.160 11.48 11.710 11.950 12.020 10.550 11.140 10.450 11.090 13.659 12.696 0.956 14.117 13.231 0.889
PRIMET_226 2015-09-27 18:10:00 226 156.7 -2.50 196 0.007 0.007 206.200 0.074 10.580 11.150 1.021 1.0 11.74 11.990 12.220 12.220 92.600 93.200 0.007 11.80 12.050 12.270 12.280 11.67 11.920 12.160 12.160 10.620 11.180 10.540 11.110 13.786 12.764 1.020 14.229 13.258 0.968
PRIMET_226 2015-09-27 18:05:00 226 156.7 -2.50 192 0.007 0.007 206.100 0.079 10.610 11.200 1.056 1.1 11.81 12.050 12.310 12.370 92.400 92.600 0.007 11.89 12.120 12.390 12.470 11.77 12.020 12.260 12.280 10.630 11.240 10.600 11.170 13.850 12.790 1.053 14.370 13.302 1.063
PRIMET_226 2015-09-27 18:00:00 226 156.7 -3.00 196 0.007 0.007 206.000 0.428 10.680 11.230 1.182 1.2 12.01 12.230 12.490 12.540 91.600 91.700 0.007 12.09 12.300 12.540 12.600 11.90 12.140 12.410 12.470 10.730 11.240 10.630 11.210 14.034 12.850 1.179 14.532 13.328 1.206
PRIMET_226 2015-09-27 17:55:00 226 156.7 -2.50 182 0.007 0.007 204.200 0.079 10.750 11.260 1.264 1.3 12.16 12.380 12.640 12.710 91.100 90.900 0.007 12.23 12.470 12.730 12.790 12.09 12.300 12.550 12.620 10.780 11.290 10.710 11.230 14.173 12.910 1.261 14.695 13.355 1.337
PRIMET_226 2015-09-27 17:50:00 226 156.7 -3.50 196 0.007 0.007 204.200 0.084 10.800 11.340 1.366 1.4 12.31 12.540 12.800 12.870 90.500 90.400 0.007 12.38 12.610 12.880 12.940 12.23 12.470 12.730 12.790 10.820 11.380 10.770 11.290 14.314 12.953 1.360 14.850 13.426 1.426
PRIMET_226 2015-09-27 17:45:00 226 156.7 -3.50 196 0.007 0.007 203.800 0.108 10.880 11.440 1.458 1.5 12.48 12.720 12.980 13.050 89.900 90.000 0.007 12.58 12.850 13.090 13.150 12.39 12.620 12.880 12.950 10.930 11.500 10.820 11.380 14.475 13.022 1.462 15.025 13.515 1.503
PRIMET_226 2015-09-27 17:40:00 226 156.7 -2.50 187 0.007 0.007 203.800 0.074 10.950 11.460 1.576 1.7 12.68 12.950 13.200 13.240 89.200 88.900 0.007 12.75 13.030 13.270 13.330 12.59 12.850 13.100 13.170 10.970 11.530 10.930 11.410 14.666 13.083 1.584 15.213 13.533 1.689
PRIMET_226 2015-09-27 17:35:00 226 156.7 -2.50 198 0.007 0.007 203.700 0.079 11.010 11.530 1.686 1.8 12.84 13.110 13.370 13.440 88.600 88.200 0.007 12.94 13.190 13.480 13.550 12.75 13.030 13.280 13.340 11.040 11.570 10.930 11.470 14.820 13.135 1.690 15.413 13.596 1.819
PRIMET_226 2015-09-27 17:30:00 226 156.7 -3.50 191 0.007 0.007 203.700 0.084 11.090 11.600 1.782 2.0 13.01 13.290 13.570 13.640 88.100 87.500 0.007 13.11 13.390 13.680 13.760 12.94 13.210 13.480 13.550 11.150 11.690 11.010 11.520 14.986 13.205 1.783 15.615 13.659 1.952
PRIMET_226 2015-09-27 17:25:00 226 156.7 -4.00 197 0.007 0.007 203.700 0.093 11.110 11.550 1.959 2.2 13.21 13.490 13.800 13.860 87.100 85.900 0.007 13.32 13.580 13.920 13.980 13.12 13.410 13.690 13.770 11.190 11.590 11.040 11.510 15.183 13.222 1.959 15.840 13.614 2.233
PRIMET_226 2015-09-27 17:20:00 226 156.7 -4.00 192 0.007 0.007 203.700 0.161 11.230 11.640 2.052 2.4 13.40 13.710 14.040 14.090 86.700 85.200 0.007 13.48 13.780 14.130 14.180 13.32 13.600 13.920 13.990 11.360 11.780 11.170 11.580 15.373 13.328 2.045 16.078 13.695 2.380
PRIMET_226 2015-09-27 17:15:00 226 156.7 -5.00 179 0.044 0.044 203.200 0.093 11.220 11.690 2.266 2.6 13.61 13.910 14.230 14.300 85.500 84.300 0.405 13.72 14.030 14.330 14.400 13.49 13.790 14.140 14.190 11.310 11.810 11.120 11.530 15.585 13.319 2.260 16.298 13.740 2.559
PRIMET_226 2015-09-27 17:10:00 226 156.7 -6.00 188 0.088 0.088 204.500 1.284 11.320 11.650 2.429 2.8 13.85 14.160 14.450 14.500 84.700 83.000 0.385 13.94 14.240 14.510 14.590 13.74 14.030 14.340 14.400 11.530 11.770 11.190 11.510 15.830 13.408 2.422 16.511 13.704 2.807
PRIMET_226 2015-09-27 17:05:00 226 156.7 -6.50 182 0.007 0.007 209.400 1.315 11.570 11.830 2.428 2.9 14.08 14.390 14.670 14.740 84.900 82.700 0.007 14.20 14.550 14.850 14.900 13.96 14.250 14.540 14.610 11.670 11.980 11.470 11.660 16.068 13.632 2.426 16.769 13.868 2.901
PRIMET_226 2015-09-27 17:00:00 226 156.7 -7.00 196 0.175 0.175 202.800 3.430 11.570 11.810 2.713 3.2 14.34 14.680 14.960 15.020 83.400 81.100 0.686 14.48 14.810 15.090 15.150 14.21 14.550 14.840 14.900 11.690 11.980 11.260 11.630 16.341 13.632 2.713 17.074 13.850 3.227
PRIMET_226 2015-09-27 16:55:00 226 156.7 -7.00 195 0.060 0.060 209.500 2.142 11.770 11.930 2.837 3.4 14.63 14.930 15.210 15.290 83.000 80.400 0.555 14.77 15.080 15.360 15.450 14.51 14.820 15.110 15.130 11.970 12.280 11.450 11.500 16.650 13.813 2.830 17.373 13.960 3.405
PRIMET_226 2015-09-27 16:50:00 226 156.7 -7.50 197 0.007 0.005 224.900 33.030 11.910 12.210 3.059 3.5 14.96 15.290 15.550 15.630 82.000 80.100 0.007 15.06 15.430 15.700 15.770 14.79 15.090 15.370 15.470 12.100 12.690 11.690 12.010 17.008 13.941 3.061 17.756 14.220 3.533
PRIMET_226 2015-09-27 16:45:00 226 156.7 -7.50 190 0.063 0.047 252.200 40.430 11.860 12.200 3.361 3.9 15.19 15.510 15.800 15.900 80.500 78.650 0.274 15.30 15.600 15.870 16.000 15.07 15.420 15.700 15.780 11.970 12.440 11.750 11.740 17.262 13.896 3.366 18.065 14.211 3.857
PRIMET_226 2015-09-27 16:40:00 226 156.7 -8.00 196 0.073 0.053 217.800 42.290 11.690 12.110 3.818 4.3 15.46 15.720 16.010 16.190 78.260 76.780 0.301 15.62 15.870 16.180 16.380 15.33 15.590 15.870 16.000 11.840 12.360 11.460 11.740 17.563 13.740 3.818 18.403 14.127 4.273
PRIMET_226 2015-09-27 16:35:00 226 156.7 -8.00 194 0.282 0.173 238.700 50.420 11.130 11.610 4.699 5.2 15.80 16.100 16.400 16.610 73.820 72.350 0.895 15.95 16.250 16.540 16.770 15.61 15.910 16.220 16.400 11.550 12.330 10.660 11.010 17.950 13.240 4.699 18.902 13.668 5.226
PRIMET_226 2015-09-27 16:30:00 226 156.7 -8.00 190 0.084 0.025 183.300 68.030 10.930 11.270 5.277 6.0 16.14 16.430 16.750 17.010 71.230 68.960 0.568 16.37 16.610 16.950 17.270 15.97 16.260 16.560 16.770 11.180 11.850 10.680 10.760 18.344 13.065 5.278 19.388 13.364 6.018
PRIMET_226 2015-09-27 16:25:00 226 156.7 -8.50 188 0.058 0.055 239.300 19.030 11.030 10.960 5.703 6.9 16.57 16.920 17.250 17.510 69.760 65.420 0.385 16.77 17.090 17.410 17.740 16.40 16.650 16.990 17.310 11.400 11.350 10.610 10.160 18.854 13.152 5.701 20.010 13.091 6.920
PRIMET_226 2015-09-27 16:20:00 226 156.7 -8.50 196 0.099 0.062 266.800 49.750 10.890 10.930 6.434 7.6 17.07 17.450 17.790 18.030 66.950 63.220 0.418 17.31 17.810 18.150 18.250 16.81 17.140 17.470 17.770 11.520 11.580 10.190 10.330 19.461 13.030 6.432 20.677 13.065 7.605
PRIMET_226 2015-09-27 16:15:00 226 156.7 -9.50 190 0.486 0.416 249.100 30.690 10.290 10.000 7.095 8.4 17.20 17.660 17.980 18.060 63.850 59.330 1.522 17.33 17.930 18.260 18.240 17.08 17.420 17.730 17.900 11.210 11.350 8.770 8.890 19.622 12.519 7.093 20.716 12.279 8.425
PRIMET_226 2015-09-27 16:10:00 226 156.7 -10.00 196 0.350 0.279 272.700 36.450 10.520 10.260 7.256 8.6 17.48 17.850 18.160 18.320 63.680 59.360 0.777 17.61 18.010 18.330 18.440 17.30 17.610 17.930 18.130 10.990 11.130 9.740 9.350 19.973 12.713 7.254 21.057 12.494 8.557
PRIMET_226 2015-09-27 16:05:00 226 156.7 -10.00 187 0.547 0.418 253.100 39.300 9.890 9.690 8.110 9.3 17.74 18.200 18.480 18.550 60.050 56.310 1.535 17.85 18.390 18.640 18.610 17.62 18.030 18.310 18.460 10.620 10.370 8.240 8.810 20.303 12.189 8.111 21.362 12.026 9.333